GFSNGP_sfc_temp_000.txt.gz
Temp
49 51 49 47 47 48 45 45 36 43 48 55 59 61 62 64 62 60 59 59 59 59 60 58 55 55 54 54 52 52 51 51 51 49 49 49 48 47 47 46 46 46 44 44
38 47 47 43 47 47 48 48 49 49 49 60 63 65 62 60 60 56 56 57 57 57 56 55 54 53 53 52 52 53 51 50 50 48 48 47 47 45 45 45 45 45 43 43
33 44 39 32 40 47 51 54 50 43 52 60 59 59 56 55 56 53 55 51 51 54 55 54 53 54 53 53 53 50 50 49 48 47 45 45 45 44 44 43 43 42 42 41
33 35 29 52 60 58 52 52 54 55 56 58 59 58 54 56 54 51 47 46 50 53 53 53 54 54 52 52 50 49 48 47 47 45 44 44 43 43 43 42 41 41 40 39
32 35 43 49 55 51 47 47 57 56 57 57 55 51 49 57 50 47 43 47 49 48 51 52 50 49 50 50 50 47 46 45 45 44 43 42 41 40 41 40 39 39 38 37
36 31 31 47 57 55 53 40 55 54 51 47 47 37 47 56 48 44 47 51 46 45 44 43 47 50 49 49 48 46 45 43 44 43 42 41 41 40 40 40 38 36 34 34
32 31 39 54 53 53 35 42 51 53 53 52 48 50 52 46 44 49 50 50 44 42 43 49 50 49 46 48 45 45 43 43 43 42 41 40 40 40 39 37 33 31 30 31
34 32 31 57 50 41 51 55 57 56 55 53 51 48 46 43 45 48 46 40 40 44 47 50 50 48 48 47 45 43 42 42 41 41 40 39 39 38 37 34 32 30 30 31
44 44 58 59 54 57 59 55 55 54 56 52 46 48 42 42 45 46 38 41 46 47 47 49 47 47 46 43 43 41 41 40 40 40 39 39 37 34 34 35 31 29 30 31
41 49 54 54 58 59 59 56 57 55 50 47 43 42 41 44 48 38 38 42 47 47 47 46 46 44 45 41 40 40 39 38 38 37 36 37 36 36 34 31 29 29 29 31
41 47 53 55 57 58 57 58 56 53 49 46 42 43 43 47 40 37 40 45 46 46 45 45 44 43 42 41 39 38 36 35 36 35 34 34 35 34 32 32 30 27 29 29
39 53 52 52 58 59 57 54 53 49 47 46 49 46 47 42 37 38 41 45 46 45 45 44 43 42 41 40 38 36 33 34 33 32 32 33 33 32 34 32 31 30 30 29
50 56 56 57 59 60 54 53 54 54 51 49 48 45 37 36 37 39 43 45 44 44 44 43 42 41 40 34 30 28 29 29 32 31 32 31 30 29 28 32 32 31 30 29
58 56 51 55 51 56 55 56 55 55 50 45 42 38 38 38 42 43 44 43 43 43 42 42 40 38 36 34 29 27 27 28 30 31 31 30 29 28 28 26 26 29 30 28
57 57 54 55 54 54 55 53 50 50 47 40 39 38 39 40 43 44 42 40 38 39 38 37 35 36 36 33 30 30 31 32 29 30 30 29 29 28 28 28 27 27 28 29
55 53 53 51 50 50 49 48 47 46 40 38 38 37 41 43 42 41 37 33 35 35 32 27 28 32 32 33 31 33 34 28 27 29 30 29 30 28 27 27 27 26 25 24
45 45 46 45 46 46 45 44 39 36 38 38 37 35 35 33 33 33 34 30 29 29 29 29 31 34 31 31 31 36 34 32 26 30 29 29 29 27 27 26 26 25 24 24
49 49 49 47 45 43 39 37 35 36 36 36 32 32 32 32 32 31 30 28 29 30 31 31 29 30 29 31 30 32 31 30 29 28 28 28 27 28 26 26 26 25 24 24
49 47 46 44 44 40 37 35 35 34 33 32 32 32 31 30 31 30 29 29 29 29 32 30 29 29 29 27 28 32 30 28 28 29 28 26 27 27 25 25 25 24 24 23
45 46 44 43 41 35 35 34 33 33 32 31 30 31 31 30 28 27 29 29 31 34 31 31 29 29 28 27 25 32 29 27 27 27 26 26 25 25 25 24 24 24 23 22
38 40 35 33 33 32 32 32 32 32 31 29 30 31 29 28 28 27 29 33 33 30 31 29 31 33 32 31 29 28 27 26 26 25 25 25 25 24 23 24 23 22 22 22
39 34 33 32 32 33 32 32 32 31 30 29 28 27 27 30 30 30 29 29 36 28 33 34 35 31 32 25 31 27 27 26 26 26 25 25 24 23 23 23 22 22 21 20
39 36 34 32 32 35 32 32 31 30 30 29 28 29 29 30 29 28 29 31 33 32 32 32 32 27 24 27 27 27 26 25 25 25 25 24 24 23 23 22 22 22 21 20
38 34 33 34 32 32 33 32 30 29 29 30 30 31 31 31 32 34 32 31 31 32 32 32 28 25 23 28 27 27 26 26 25 25 25 18 24 23 23 22 22 22 21 20
33 32 33 32 32 36 34 31 30 31 31 32 32 33 30 35 31 32 32 32 32 32 32 29 26 24 27 28 27 26 26 26 26 25 25 24 23 23 23 22 22 21 20 20
32 32 34 35 37 38 37 33 35 35 34 33 34 33 32 32 33 32 32 32 32 31 31 29 28 26 28 27 27 25 25 26 23 24 24 24 23 23 22 22 21 21 20 19
32 32 33 33 35 34 35 35 34 33 31 29 30 32 33 32 32 32 32 31 32 32 31 30 29 27 28 28 26 25 25 25 24 25 24 24 24 23 22 22 22 21 20 19

GFSNGP_sfc_temp_003.txt.gz
Temp
53 56 55 54 53 54 52 53 43 49 53 59 63 64 65 65 66 64 64 64 64 60 59 60 62 62 61 59 58 57 55 54 51 53 53 52 51 51 51 50 49 49 48 48
40 50 52 47 53 54 54 55 55 55 54 65 66 66 64 61 61 60 61 62 61 56 55 58 59 60 59 57 56 56 54 52 53 53 51 50 50 49 49 48 48 47 46 46
34 48 41 34 43 51 54 58 57 49 57 63 60 59 58 60 60 59 59 59 56 51 54 58 57 58 56 56 54 50 52 51 51 50 49 48 49 49 47 46 46 45 45 44
33 37 30 53 62 61 56 59 60 59 60 59 58 60 60 60 57 50 52 53 49 53 56 56 54 56 55 51 51 50 50 51 51 50 48 48 47 46 46 46 44 43 43 42
34 37 44 49 58 55 50 49 59 58 57 58 58 57 53 59 52 51 52 47 55 54 56 48 49 49 47 46 49 51 50 50 50 48 47 46 45 44 44 43 42 42 41 38
36 31 29 50 59 61 60 44 57 56 55 52 52 40 46 52 54 49 47 55 54 53 47 44 44 46 49 50 51 50 49 49 49 48 47 45 44 43 43 43 41 39 36 36
33 32 40 56 62 59 38 44 56 57 54 52 48 49 53 51 48 49 55 54 52 44 42 48 49 51 50 50 50 51 48 48 47 48 46 45 43 43 42 40 37 33 32 33
34 33 32 62 59 42 50 57 58 56 55 52 52 50 49 46 45 52 53 53 44 42 47 50 51 51 51 51 51 49 47 46 46 46 45 44 42 41 40 38 35 32 31 32
46 46 60 64 59 62 63 59 55 53 57 51 50 50 50 46 50 51 49 43 45 46 46 49 51 51 49 48 48 46 45 45 44 44 43 42 40 38 37 38 33 31 30 31
46 52 57 57 60 62 59 53 59 58 55 56 53 52 49 51 51 49 42 40 45 46 47 48 50 48 48 46 45 46 43 42 42 41 39 40 39 39 37 33 31 31 29 29
45 52 54 54 56 60 57 58 59 58 56 55 51 51 47 47 50 42 38 42 45 46 47 48 49 47 47 45 43 42 41 39 40 39 37 37 37 37 35 34 32 29 29 29
37 50 51 54 59 60 57 55 57 56 56 57 56 51 49 47 42 38 39 43 45 48 48 48 47 46 46 45 43 40 37 38 36 35 36 36 36 35 35 34 33 32 31 30
48 55 55 58 60 60 55 56 58 56 56 55 54 49 44 38 39 42 44 46 47 47 47 46 45 44 44 35 33 31 31 32 34 34 35 34 33 31 27 32 33 33 30 30
60 58 56 57 55 59 58 59 57 57 57 51 45 42 39 42 44 45 45 47 47 46 46 44 43 42 41 40 34 30 30 31 34 34 34 33 31 30 29 28 27 29 31 29
60 60 58 59 59 58 58 56 53 51 50 46 42 40 41 43 43 45 46 43 42 42 41 41 38 39 40 38 33 34 33 35 31 31 32 31 31 31 30 29 28 28 29 29
57 57 57 55 54 55 55 53 48 44 40 39 38 38 41 43 45 44 41 35 36 38 36 32 31 36 36 37 36 37 38 31 30 32 32 32 31 30 29 28 28 27 26 24
49 48 49 49 51 52 51 49 44 37 38 36 37 36 36 35 35 36 38 33 32 31 32 31 33 39 35 36 36 38 38 36 30 33 32 31 30 30 28 27 27 26 25 25
54 54 54 53 51 49 47 44 39 37 39 38 33 33 32 32 33 33 33 31 31 32 33 34 33 35 32 36 34 34 34 33 32 31 31 30 29 29 28 26 26 26 25 25
53 52 52 52 50 46 43 39 38 37 33 33 32 32 32 32 32 32 32 31 31 31 36 34 31 30 34 32 30 34 32 31 30 31 30 29 29 29 27 26 25 25 25 23
49 50 49 48 46 38 36 37 33 35 35 33 32 32 33 33 31 30 31 31 33 36 33 34 33 32 32 32 28 34 32 29 29 30 29 28 28 26 26 26 25 24 24 23
44 45 39 35 35 35 33 34 33 34 34 32 31 31 31 31 31 31 31 36 34 32 33 33 33 37 36 34 32 31 29 29 29 28 28 27 27 26 25 25 25 23 22 22
44 39 35 34 34 35 34 34 34 32 32 32 31 31 30 33 32 33 33 31 35 32 33 34 36 33 33 28 33 29 29 29 28 28 27 27 26 25 25 25 23 23 22 21
44 42 39 33 33 34 36 33 32 32 32 31 31 31 32 34 34 32 31 33 34 33 33 33 33 30 28 29 30 29 28 28 27 27 27 26 25 25 24 23 23 23 22 21
42 42 40 37 33 32 32 36 34 33 31 32 32 32 33 34 33 36 35 33 32 32 32 32 31 28 28 30 30 29 28 28 27 27 27 19 26 25 25 24 23 23 22 21
36 37 35 33 32 35 37 38 34 33 33 34 34 35 32 37 32 34 33 33 32 32 32 31 29 28 29 30 30 29 29 28 28 28 27 27 26 25 25 24 23 22 22 21
35 35 35 33 37 41 41 38 37 38 38 36 36 33 33 33 33 33 33 32 32 33 32 32 30 29 30 30 29 29 28 28 27 26 27 27 26 25 25 24 23 23 22 21
34 33 34 35 38 38 39 38 36 35 33 31 31 32 34 33 33 33 33 32 32 32 32 32 31 30 30 30 29 29 28 28 26 27 26 27 26 26 25 24 24 23 22 21

GFSNGP_sfc_temp_006.txt.gz
Temp
51 53 52 49 49 52 50 50 42 47 51 57 62 63 60 61 61 61 61 61 58 57 59 58 57 57 58 58 56 55 53 52 51 49 49 49 48 47 47 46 46 45 44 43
39 48 50 45 49 51 51 52 52 53 53 63 64 62 60 59 59 58 55 55 55 57 55 55 56 56 55 56 55 54 51 48 48 48 50 48 46 45 45 44 43 43 41 41
35 44 40 34 43 49 52 56 55 45 54 62 59 56 55 55 57 52 53 53 54 52 52 55 55 54 52 53 50 48 46 46 46 47 47 46 46 45 42 40 40 39 39 39
32 33 28 50 60 57 53 56 58 57 58 60 57 57 57 58 52 50 50 51 52 52 54 55 52 49 48 48 49 46 45 45 48 48 46 45 44 42 39 39 38 38 37 37
32 34 42 47 53 52 49 48 58 55 55 55 55 53 51 56 53 49 50 52 52 55 54 50 48 46 44 44 44 44 47 48 48 46 44 43 41 38 38 37 37 36 36 34
36 31 28 45 56 61 59 40 53 52 50 50 49 38 42 53 52 52 52 54 54 53 50 48 45 47 47 47 47 48 48 47 47 46 44 42 39 37 37 36 36 34 34 33
35 32 38 53 59 59 36 37 49 51 49 49 45 45 49 53 53 53 54 54 54 50 46 46 49 49 48 49 48 49 47 46 46 45 43 41 39 38 37 35 33 31 28 30
33 32 31 60 57 40 49 54 53 50 49 48 50 51 52 53 50 52 52 52 49 46 46 48 49 47 48 48 48 47 46 44 43 42 42 42 37 36 35 33 31 26 28 28
43 43 55 59 56 57 55 52 51 51 54 52 50 51 52 51 52 50 48 46 46 46 46 47 48 50 47 45 47 44 43 41 40 40 39 39 35 33 32 32 30 28 28 27
42 49 54 55 57 57 57 53 54 55 52 53 52 52 52 52 51 49 45 43 44 44 44 46 49 48 46 45 44 43 39 38 37 36 35 35 35 34 32 29 28 28 26 26
42 48 52 54 55 56 56 56 53 54 52 54 53 52 53 49 49 44 40 43 43 45 45 46 48 47 46 45 43 39 36 35 35 34 33 33 33 32 30 29 29 27 27 27
38 50 48 50 57 58 54 50 51 54 53 55 53 50 49 46 45 41 41 43 45 45 47 47 48 46 46 43 38 34 33 33 32 31 31 32 31 31 34 33 33 33 33 29
50 57 57 58 58 56 51 51 56 55 54 48 48 46 45 42 42 42 45 42 43 46 46 45 44 43 40 33 31 29 28 30 30 30 31 30 29 28 25 29 33 33 32 30
59 57 49 54 51 55 56 57 56 54 50 48 46 44 42 41 42 42 41 45 45 45 44 42 40 38 37 37 32 29 31 28 29 28 28 28 27 27 27 25 24 26 31 29
56 57 56 56 56 56 56 55 52 48 44 42 42 39 40 39 39 42 44 40 39 39 38 36 32 33 36 35 32 32 32 30 27 27 27 27 27 27 28 24 26 26 26 26
54 55 54 51 52 53 52 51 48 43 38 39 36 36 39 41 40 41 40 32 32 32 32 28 27 33 33 35 33 34 35 29 26 27 27 27 26 26 26 24 25 25 24 22
47 45 46 47 49 49 50 50 45 39 39 37 36 32 33 32 32 33 34 30 29 29 29 28 31 34 33 34 34 33 33 32 27 30 27 26 25 24 25 24 24 24 23 23
53 52 52 51 49 47 45 43 39 37 36 35 30 28 28 28 29 30 30 29 29 28 30 30 29 32 30 33 30 30 30 30 29 27 27 27 25 25 23 23 24 23 23 23
53 51 51 51 49 43 42 40 36 37 32 30 29 27 29 29 30 29 29 27 27 28 31 30 31 28 31 30 27 29 30 29 28 27 26 23 25 24 23 24 22 23 22 21
48 49 48 47 45 36 35 35 34 33 33 31 28 28 31 31 29 27 28 28 30 31 31 32 32 31 30 31 26 29 29 27 26 25 26 25 25 22 22 21 22 21 21 21
41 42 39 37 36 34 33 32 31 32 32 30 29 30 28 29 29 32 31 30 31 32 31 31 31 31 32 32 30 31 28 27 26 26 25 23 24 22 23 22 22 21 20 20
42 39 37 35 33 33 34 33 33 32 31 31 30 29 30 31 32 32 30 31 34 32 32 31 30 32 31 28 29 30 28 27 26 26 25 23 21 20 20 21 21 21 20 19
42 41 39 36 33 34 34 33 32 32 32 31 31 32 32 31 32 30 29 32 33 33 32 32 32 32 28 29 30 30 28 27 26 26 24 24 21 18 20 19 20 19 18 19
41 40 39 37 34 33 32 32 32 32 32 33 32 30 30 32 32 34 34 34 33 32 32 32 31 30 28 29 30 30 29 28 27 27 25 14 20 20 20 20 19 19 18 17
38 36 36 34 33 33 32 34 33 32 31 32 32 32 32 34 32 32 32 33 32 32 32 32 29 28 28 29 29 29 29 28 27 26 25 23 20 19 21 20 18 17 17 16
39 37 36 35 34 34 35 36 34 35 34 33 33 32 32 32 33 33 33 32 32 32 32 32 31 30 29 29 29 29 28 27 25 24 24 23 21 18 19 19 18 18 17 16
37 34 33 33 33 34 36 36 34 34 33 32 32 31 33 32 33 32 32 32 32 32 32 32 32 31 29 30 30 29 28 27 25 25 24 24 21 20 19 18 18 18 16 15

GFSNGP_sfc_temp_009.txt.gz
Temp
44 47 48 47 46 46 43 43 36 41 43 50 52 51 50 53 54 54 52 51 51 51 51 51 52 52 50 49 50 50 48 44 42 42 44 46 45 44 43 43 43 42 41 39
37 44 46 41 43 44 44 44 44 45 45 53 54 51 50 50 52 49 49 50 51 52 51 51 52 50 49 47 45 47 44 43 44 44 44 45 45 44 42 41 40 39 37 36
35 39 37 29 38 43 45 48 46 36 43 48 47 49 49 48 48 48 49 49 50 49 50 51 50 48 44 45 46 45 44 44 43 43 42 42 44 43 40 37 36 34 34 34
33 30 26 41 53 52 47 48 48 46 46 48 48 49 51 53 45 47 49 48 48 49 49 46 44 43 44 43 45 44 43 43 43 43 42 42 41 39 36 34 33 33 32 31
30 29 37 42 47 43 42 42 46 45 48 50 49 48 48 53 49 48 48 47 48 49 45 42 42 41 41 41 42 43 42 42 43 42 41 40 37 34 34 32 32 30 31 30
29 24 23 37 48 52 52 35 46 48 45 45 45 36 41 48 50 49 47 48 48 44 42 41 40 44 41 44 42 40 42 41 42 42 40 38 35 33 32 31 31 30 31 29
24 28 32 45 51 51 31 37 47 49 47 46 43 45 49 50 48 47 49 48 44 41 43 43 45 46 42 42 40 42 42 43 42 41 38 36 33 32 31 29 29 23 22 26
26 30 25 50 50 36 44 48 51 48 47 47 47 46 48 47 47 47 45 41 41 41 43 43 47 44 42 40 43 43 42 40 38 37 37 37 31 30 29 27 23 16 18 21
34 33 46 52 49 52 53 50 48 47 46 46 45 46 46 46 46 44 40 38 40 39 42 44 44 44 41 41 43 39 37 36 35 35 34 32 29 28 26 25 20 18 21 23
36 43 48 50 53 53 52 49 49 48 47 47 46 45 43 43 41 39 37 39 39 42 42 41 44 42 42 41 40 39 34 33 33 30 30 29 29 28 22 20 19 25 23 23
39 45 48 49 49 51 49 49 47 48 47 46 45 42 42 42 41 37 40 40 39 39 41 41 42 41 41 40 37 33 31 31 29 28 27 27 28 25 24 24 21 26 26 26
36 47 45 47 49 50 48 47 47 47 45 45 43 41 42 40 40 41 37 40 41 42 42 42 43 39 36 35 33 29 29 28 25 24 24 24 23 24 30 31 32 33 32 28
46 50 50 48 51 52 49 49 50 46 43 42 42 41 39 37 40 40 41 39 41 42 41 39 38 36 35 29 28 26 24 27 24 25 23 22 22 22 19 23 30 31 31 29
53 52 46 49 46 51 51 51 51 46 43 42 40 38 40 39 40 38 37 39 40 40 38 36 34 32 32 30 27 22 21 24 19 19 18 19 19 22 16 18 15 17 27 27
51 51 49 49 49 50 51 49 46 40 38 37 38 38 36 35 35 37 37 35 34 34 33 32 28 30 32 32 30 28 28 23 19 17 14 17 19 15 15 14 15 18 23 24
49 49 46 45 45 47 47 45 43 39 36 36 35 33 33 34 33 34 33 28 28 28 29 24 21 28 30 29 28 27 26 25 22 20 17 19 16 15 15 14 14 20 21 21
41 39 39 39 42 42 42 42 39 36 34 33 32 27 28 25 25 26 29 25 22 23 23 21 25 30 30 29 27 23 22 25 26 26 24 20 14 13 17 12 11 18 20 21
47 46 45 43 42 41 37 36 35 33 32 32 25 22 18 19 22 24 23 23 22 23 22 24 22 26 24 29 29 23 23 25 25 18 20 14 13 16 13 13 10 17 20 20
45 42 42 43 41 36 34 34 30 32 32 30 25 25 23 23 23 23 21 18 16 21 28 29 30 26 28 28 26 19 16 20 19 18 17 15 14 13 12 10 9 14 19 18
40 40 40 39 38 33 34 30 27 33 32 26 28 22 26 25 22 20 24 22 28 29 28 28 28 26 26 27 24 21 17 17 17 18 16 14 12 12 12 10 14 12 15 17
35 35 32 31 31 30 26 29 32 28 28 30 25 26 25 22 23 30 23 27 30 29 30 30 29 29 30 29 25 20 19 15 16 16 13 14 9 10 10 7 13 12 12 15
34 30 30 31 30 30 28 28 30 28 27 27 28 23 24 24 21 21 18 28 32 30 29 29 28 28 28 24 24 24 25 21 17 16 17 11 8 8 6 10 13 11 11 11
34 34 34 31 29 30 32 32 32 30 29 30 27 25 27 25 24 20 26 28 31 30 30 30 30 29 28 26 27 27 26 23 16 17 17 13 9 5 7 11 13 10 9 11
36 36 35 32 26 32 33 35 32 30 30 28 29 32 24 21 22 26 29 29 30 30 29 30 28 28 27 26 27 26 26 24 18 18 18 16 11 7 9 11 11 11 9 12
33 33 30 25 30 34 34 33 28 28 28 27 29 30 30 30 30 26 27 29 30 29 29 30 29 27 26 26 27 27 22 20 19 18 20 16 13 7 9 12 11 11 12 11
34 35 30 32 34 34 33 30 29 29 28 28 30 31 31 30 23 20 17 23 28 29 29 30 29 28 27 27 27 27 20 18 17 17 18 17 15 9 7 9 10 13 12 10
34 27 31 33 32 32 31 30 30 29 29 29 29 30 29 30 30 31 30 28 28 28 28 30 30 30 28 28 27 23 25 17 17 18 18 18 17 14 11 8 10 12 10 9

GFSNGP_sfc_temp_012.txt.gz
Temp
41 44 44 44 43 43 40 40 31 38 39 45 43 44 46 48 50 49 49 48 49 47 48 48 49 48 46 45 44 45 45 43 40 41 41 42 41 40 41 43 43 40 39 37
36 41 41 38 42 42 41 41 41 40 40 45 47 48 47 48 49 49 47 49 51 50 49 49 48 47 45 47 46 45 42 43 43 42 43 42 42 41 42 41 40 38 36 35
34 35 34 32 36 39 42 44 42 34 40 44 44 45 46 47 48 47 47 48 48 48 47 47 44 44 42 42 42 44 43 43 42 42 41 40 41 41 39 37 35 34 33 32
31 32 25 41 47 47 42 44 45 43 43 44 46 49 50 49 47 47 49 49 49 47 46 44 42 41 41 42 41 41 40 41 42 40 40 39 38 37 34 34 33 32 31 31
25 29 35 39 44 40 37 39 44 41 45 47 49 47 46 50 49 49 50 48 48 45 43 40 39 40 42 40 40 42 41 39 39 39 39 36 34 33 33 31 30 30 31 29
31 27 25 35 45 49 46 31 44 45 44 45 47 37 42 46 49 49 49 48 46 44 41 39 40 41 40 40 39 38 39 40 42 40 37 34 32 31 31 29 29 29 29 28
20 25 28 41 47 49 26 34 42 47 47 43 41 42 45 47 49 50 47 43 43 41 39 40 42 45 41 38 39 41 41 40 38 37 36 33 31 30 28 27 27 21 20 23
26 26 26 47 47 37 41 42 47 46 44 43 43 44 45 46 44 44 40 40 40 40 37 41 45 43 40 38 41 41 39 37 36 35 34 34 30 28 28 25 21 15 15 19
33 32 43 47 48 47 49 46 43 44 46 44 43 43 43 40 42 41 39 37 38 36 41 43 44 43 39 38 41 37 35 34 32 32 32 31 28 27 24 23 20 18 19 20
36 43 45 47 51 51 47 44 45 44 43 44 41 42 40 40 40 38 36 37 39 41 40 39 41 40 39 40 38 35 32 31 31 29 29 28 27 27 22 20 19 24 22 22
40 44 46 48 47 49 48 47 46 47 45 44 43 41 40 38 38 36 37 39 39 36 38 40 40 37 35 35 34 32 31 30 29 28 26 26 27 24 24 24 21 20 20 25
37 47 45 47 49 49 45 45 45 45 44 44 41 39 38 36 36 38 39 37 38 39 40 41 41 37 35 34 32 30 30 28 24 23 22 23 21 23 29 29 31 31 31 27
46 49 48 48 48 48 45 45 47 48 42 40 39 38 36 35 37 38 39 38 39 39 39 37 35 33 33 27 27 25 24 26 23 24 22 21 20 21 16 21 29 29 30 29
51 50 43 45 42 46 45 47 48 45 43 40 37 36 35 35 36 36 35 36 36 36 36 34 32 31 31 30 26 20 17 20 22 21 20 20 13 15 14 12 10 14 23 26
47 47 46 47 46 47 48 46 43 41 40 37 36 35 34 32 32 33 34 33 32 32 32 31 28 29 30 30 28 26 26 21 16 18 18 17 14 14 12 10 11 12 14 22
46 45 46 43 43 43 44 43 40 39 37 35 34 33 32 32 32 32 32 28 27 28 29 22 21 27 29 29 27 24 25 25 22 20 18 19 18 13 13 10 10 12 12 19
36 35 37 37 39 38 39 40 37 34 34 33 32 29 29 25 27 28 29 25 22 22 22 21 23 28 28 29 28 24 20 27 25 19 16 18 13 11 11 8 7 8 14 17
43 42 43 39 38 37 34 35 33 32 32 31 26 25 27 25 25 26 24 22 22 19 27 27 25 28 25 29 29 26 18 21 22 18 17 13 12 14 7 7 7 7 15 16
43 41 40 40 39 35 33 32 32 31 27 28 31 28 28 24 25 25 20 18 27 22 27 23 27 28 27 27 27 20 16 17 18 18 14 11 8 8 7 4 5 7 12 14
41 41 40 38 36 31 31 31 28 27 29 31 30 25 25 27 27 22 27 22 25 28 24 28 28 27 24 27 27 22 16 16 17 16 11 10 7 7 6 7 12 9 8 11
33 34 32 30 30 29 25 27 23 31 32 24 27 28 27 26 22 28 19 27 25 29 30 29 28 28 28 27 21 18 16 21 14 14 10 9 6 4 1 4 12 9 8 9
33 30 29 28 28 31 32 26 29 31 31 29 30 27 25 24 21 20 21 27 29 30 28 27 27 27 27 26 26 25 26 25 18 10 13 8 7 5 1 5 9 8 7 7
34 33 34 30 31 33 29 31 34 34 32 31 29 28 25 26 24 20 22 26 29 29 27 28 28 28 27 26 26 26 26 25 16 15 14 12 8 4 1 7 9 8 7 8
34 34 33 33 28 29 26 34 32 33 32 31 29 28 29 23 25 26 28 29 29 29 28 29 28 28 27 25 25 26 26 22 15 15 17 15 11 6 3 6 9 8 7 8
32 32 31 28 27 30 33 33 32 31 29 28 29 29 29 28 25 21 17 22 27 29 28 28 29 29 26 26 26 26 27 18 17 14 14 13 14 10 4 5 8 8 7 7
33 33 34 32 33 35 32 32 31 29 29 27 27 30 30 29 28 26 25 25 25 27 27 28 28 28 28 27 26 26 27 20 17 14 14 12 14 11 10 4 4 8 9 5
31 26 30 33 30 32 31 32 29 28 29 29 30 31 29 29 28 29 28 27 27 26 27 27 27 27 27 25 27 27 21 20 17 17 15 13 12 13 12 9 7 9 9 7

GFSNGP_sfc_temp_015.txt.gz
Temp
39 41 41 41 40 42 37 37 33 37 37 43 42 43 45 46 47 49 51 50 49 48 46 46 46 46 44 43 43 43 42 41 41 42 42 41 41 41 41 43 43 40 38 36
32 39 39 37 40 39 39 39 37 37 37 43 45 45 44 45 48 47 46 46 47 49 48 47 46 44 43 43 42 42 40 41 43 42 42 41 40 39 40 40 39 37 36 35
28 34 32 28 34 37 39 42 40 32 38 41 42 43 46 46 46 45 46 48 49 48 47 47 45 43 40 40 41 42 41 40 43 42 40 39 39 39 37 35 35 34 33 32
29 32 24 40 44 45 41 42 42 41 41 43 43 45 47 46 43 43 46 48 48 49 47 43 42 41 40 40 41 40 40 39 39 39 39 37 36 35 34 33 32 31 31 31
29 28 33 39 43 38 37 38 43 41 42 44 46 43 41 44 46 45 46 48 48 46 41 40 41 42 41 38 41 41 40 39 39 39 38 35 32 31 30 30 30 30 30 29
29 27 24 35 42 45 43 32 42 42 41 42 40 36 40 43 46 46 47 45 42 41 39 40 40 41 39 40 39 39 39 39 38 37 35 32 31 30 31 29 30 29 29 28
27 28 29 39 45 46 28 33 44 45 45 40 38 42 42 45 45 43 42 40 40 39 38 38 38 43 40 38 38 40 38 37 37 36 34 31 31 30 29 27 26 21 20 22
27 25 23 44 44 36 41 41 43 42 41 40 43 43 43 43 42 42 40 37 37 36 36 41 44 42 38 35 39 39 36 35 34 32 32 32 29 28 27 25 22 16 14 18
33 33 43 46 46 47 47 43 40 39 42 44 42 42 43 40 39 39 37 36 36 39 39 40 42 39 37 37 39 36 34 31 31 31 31 30 27 25 24 24 20 17 19 20
37 42 46 47 51 52 47 43 43 45 44 44 41 43 40 40 37 35 34 34 38 38 36 37 38 38 38 37 37 35 32 31 31 28 28 27 27 27 22 20 19 23 21 20
38 44 45 47 47 47 46 45 44 43 42 41 43 41 39 37 35 34 34 38 37 36 36 37 38 38 36 35 34 32 30 29 28 27 25 25 27 24 24 24 20 18 18 22
36 47 46 47 46 47 42 41 42 42 42 44 43 38 37 35 35 35 35 35 35 36 35 35 35 34 34 33 32 30 30 28 24 22 22 22 20 23 28 29 30 30 30 28
46 50 49 46 45 45 43 44 44 43 43 42 41 38 36 34 35 36 36 34 34 34 34 33 32 30 30 26 24 23 21 24 23 23 23 21 19 19 14 20 27 28 28 29
50 48 42 41 37 43 43 45 45 45 43 40 39 37 35 34 34 34 33 33 33 32 32 31 30 29 29 29 25 17 16 18 16 16 16 19 16 16 10 11 9 13 21 25
45 46 44 44 44 44 44 42 39 39 39 38 38 36 34 32 32 32 32 31 31 29 30 29 26 28 29 29 27 25 25 18 14 14 14 15 17 13 11 11 9 11 13 17
40 39 39 39 39 39 40 40 39 38 36 35 34 34 33 32 33 33 31 27 26 25 26 19 18 25 28 28 27 24 25 22 22 19 14 15 15 10 13 9 11 10 11 12
36 33 34 35 35 37 38 37 35 33 32 31 32 28 28 25 28 28 28 24 17 15 23 26 25 28 28 29 27 27 23 21 25 21 18 15 10 11 9 8 5 7 8 11
42 41 40 38 37 35 34 33 34 33 32 31 29 30 27 27 28 26 25 21 17 16 26 27 26 26 23 29 29 27 19 17 20 17 14 10 10 10 7 8 6 7 5 12
41 39 39 39 38 36 34 34 33 32 28 24 29 31 32 31 26 25 21 18 20 21 26 22 26 25 27 26 26 27 18 16 18 16 15 11 7 8 5 3 5 5 5 10
37 38 39 37 35 31 32 32 29 29 27 30 31 31 30 28 27 27 20 22 24 25 23 27 27 27 27 27 26 25 16 15 16 16 11 8 2 2 1 3 9 7 3 6
33 33 31 29 29 29 26 27 25 25 30 32 32 31 30 28 26 23 22 25 25 21 26 28 27 27 27 27 26 24 21 22 22 12 12 9 2 2 1 -2 1 3 3 5
32 29 28 27 27 28 29 27 25 25 31 33 34 31 29 27 25 24 26 27 26 30 27 26 27 27 26 26 25 25 25 25 22 13 11 10 3 1 -1 -3 0 3 3 5
32 32 32 29 28 31 31 27 28 29 33 33 33 31 28 27 26 25 21 24 25 28 27 27 28 29 27 25 25 25 26 25 19 16 15 14 12 2 -1 0 -1 3 2 5
32 32 32 32 28 25 26 32 31 30 28 32 32 30 28 25 25 25 27 28 28 28 28 28 28 28 24 24 24 25 25 25 15 15 14 14 12 8 -1 -2 1 -0 2 4
29 30 30 27 27 29 31 32 30 32 32 27 29 29 28 27 26 23 18 17 21 27 26 27 27 28 27 25 24 25 25 24 19 15 9 11 13 12 7 -2 -0 -1 1 5
31 31 32 32 32 33 32 32 31 32 29 27 26 27 28 28 27 27 27 23 24 26 26 27 26 26 25 18 17 21 24 20 17 17 14 14 13 13 10 2 -1 3 4 7
28 24 32 32 31 32 33 32 31 31 25 28 26 28 29 29 28 27 27 27 26 25 25 26 25 26 23 13 14 18 20 20 19 17 16 16 15 15 13 10 5 5 7 7

GFSNGP_sfc_temp_018.txt.gz
Temp
37 39 39 39 38 38 35 36 33 37 35 41 42 40 43 45 45 47 48 46 45 47 50 51 50 49 44 43 42 42 40 39 38 39 41 41 41 40 41 41 41 38 37 36
31 36 35 33 37 38 37 36 37 38 36 42 43 43 44 44 45 44 43 43 48 50 49 50 48 45 42 42 42 42 41 40 40 42 42 39 39 39 38 39 39 37 35 33
25 31 31 27 34 35 37 39 39 33 40 41 40 42 42 43 42 40 43 45 47 47 47 45 43 42 41 40 40 41 39 41 40 41 40 40 40 38 36 34 33 32 32 32
25 27 21 39 42 43 40 41 41 40 40 41 42 43 43 41 39 41 43 43 44 43 42 42 41 40 38 39 38 38 40 41 41 40 39 37 35 34 32 31 31 30 30 30
29 28 32 40 42 37 36 37 41 39 40 42 43 39 37 42 41 43 41 41 41 41 39 38 38 38 37 36 39 38 37 38 37 35 35 34 32 31 31 30 30 29 30 29
28 26 23 35 40 43 41 31 40 43 43 42 42 35 40 43 44 42 43 42 39 38 37 37 38 37 39 39 37 37 35 35 35 34 33 30 29 29 30 28 29 29 29 28
30 28 32 40 43 44 28 34 41 43 44 44 40 41 42 44 44 43 42 40 39 36 35 37 37 42 40 37 36 37 37 37 34 33 31 29 28 28 27 26 26 21 19 22
26 25 22 42 42 35 41 42 45 43 41 42 41 41 42 43 42 40 39 37 36 34 37 37 37 39 37 34 37 38 36 34 32 31 31 30 27 26 26 24 21 15 13 17
35 31 41 46 47 46 47 45 42 40 42 41 39 41 43 40 40 39 38 35 35 34 35 36 36 35 34 36 38 35 33 31 31 30 30 29 26 25 23 23 19 17 17 20
37 41 43 46 48 48 44 42 44 43 41 41 40 41 40 39 39 37 34 33 35 34 34 33 35 35 34 34 33 32 30 29 28 27 27 26 27 26 22 20 18 22 21 19
38 44 45 45 46 45 44 43 41 42 42 41 40 39 41 39 36 34 33 34 35 34 33 33 35 34 33 32 31 30 29 29 28 27 25 25 27 23 24 23 20 20 18 19
37 46 44 44 42 43 39 37 39 41 41 42 42 39 38 36 35 34 34 34 34 33 33 33 33 32 31 31 30 28 29 28 23 22 21 21 19 22 27 28 29 30 30 27
45 49 43 41 40 40 38 41 42 42 42 39 39 39 37 35 34 36 35 34 32 32 32 31 30 30 29 25 23 21 20 23 20 21 20 19 19 19 17 19 26 27 27 27
48 44 39 41 37 41 40 41 41 40 40 39 39 37 36 35 35 32 32 33 32 31 30 30 29 29 29 28 25 17 15 17 15 16 14 16 11 16 13 11 10 12 19 24
40 41 41 42 42 40 41 41 37 37 38 35 36 35 34 33 33 33 34 33 33 30 29 29 25 27 28 29 26 23 24 18 13 11 10 11 12 13 11 8 7 9 11 17
36 38 39 39 40 40 39 38 35 33 34 33 32 32 32 31 31 32 32 30 26 27 26 18 24 24 27 28 26 23 27 21 17 16 13 14 12 10 12 10 10 8 10 12
34 33 35 35 37 37 35 35 33 32 33 32 31 27 29 29 28 29 28 27 19 21 20 26 27 29 26 27 26 24 21 21 17 17 16 13 12 8 9 10 10 7 9 3
41 40 40 38 35 34 34 33 32 31 32 32 25 27 30 31 30 32 32 21 18 17 25 27 28 26 22 26 25 26 25 21 18 16 14 10 11 8 7 6 7 5 6 7
38 37 35 35 35 33 33 34 32 32 29 26 20 28 32 33 32 31 24 22 24 21 26 23 25 26 24 26 25 25 25 18 16 16 14 9 5 5 2 -1 5 2 2 6
35 35 35 33 32 30 30 31 28 28 29 26 26 29 31 32 31 26 25 25 26 27 24 23 27 25 24 26 26 25 20 13 13 12 6 7 2 -0 -1 1 3 3 -2 2
32 32 30 28 29 29 26 27 25 26 29 25 26 30 32 33 27 27 25 25 27 24 24 26 26 25 27 26 26 25 24 23 21 13 6 5 5 3 -1 -6 -5 -2 -2 0
32 29 26 26 25 27 29 26 25 25 25 26 28 32 33 31 26 26 27 26 27 26 27 26 26 25 26 26 25 25 25 25 24 15 10 7 7 7 3 -5 -4 -3 -3 -1
32 30 30 27 26 30 30 28 27 25 26 27 30 32 31 30 27 23 22 26 26 25 24 26 26 27 28 25 24 24 25 25 23 15 12 12 12 11 7 1 -4 -4 -2 1
31 30 31 30 26 24 26 30 29 30 31 32 32 32 28 22 18 21 23 23 27 23 20 26 27 27 26 24 24 25 24 23 20 13 15 14 8 8 9 3 -2 -4 -4 -2
28 28 27 24 26 30 30 31 31 32 32 32 28 24 25 23 22 20 18 24 24 20 22 26 27 27 26 26 22 22 24 23 21 17 16 16 15 9 9 10 7 -1 -2 -0
30 29 30 30 31 30 30 30 31 32 31 27 19 19 24 20 21 23 26 27 20 20 25 23 24 24 23 21 15 14 18 20 18 18 16 16 16 13 12 10 8 7 4 6
26 22 26 30 33 28 27 32 32 31 32 27 24 21 28 25 27 26 26 26 25 25 19 17 22 21 23 23 21 11 14 19 19 18 16 17 16 16 13 14 11 9 6 6

GFSNGP_sfc_temp_021.txt.gz
Temp
42 44 42 41 41 42 40 42 36 42 43 48 51 49 51 53 52 52 52 51 51 52 53 52 50 50 51 50 50 50 48 47 46 46 46 46 45 46 46 46 45 44 40 41
35 39 39 36 41 41 41 42 41 42 41 52 51 51 49 50 50 49 47 48 50 50 49 48 48 47 46 46 47 48 47 46 44 43 44 43 42 45 45 44 44 42 41 39
32 35 35 33 39 40 42 43 44 39 48 48 47 48 49 50 49 45 46 48 47 47 47 45 45 44 44 45 46 46 45 46 44 43 44 44 44 43 41 41 41 40 39 39
32 31 28 44 48 48 45 46 48 46 47 49 50 51 51 50 45 45 45 46 46 46 45 45 45 45 44 46 46 45 45 45 45 43 43 42 42 41 40 40 39 38 38 37
30 30 37 43 47 45 42 44 48 45 47 50 51 48 50 46 47 47 46 47 46 45 45 44 44 45 44 44 45 45 43 43 43 41 41 40 39 38 39 38 38 37 37 36
31 28 27 40 47 49 48 37 46 48 47 47 48 36 43 43 43 45 49 48 46 45 44 44 45 45 45 44 41 41 42 42 42 40 39 38 37 37 37 37 36 35 34 35
32 30 35 44 47 49 34 39 48 47 47 46 43 42 41 42 45 48 47 46 45 43 42 43 44 44 43 43 41 42 44 41 40 39 37 37 37 37 36 36 33 30 29 30
29 28 27 46 47 39 47 48 48 48 48 45 40 39 40 45 46 46 46 44 43 41 42 43 44 43 43 42 44 44 41 39 39 38 37 36 36 36 35 34 31 28 28 29
37 37 46 48 48 51 50 45 44 44 40 37 36 40 43 43 45 46 45 45 43 41 41 43 43 43 41 42 42 40 39 38 37 37 36 36 35 34 33 33 30 29 28 28
39 46 48 49 53 49 46 41 41 41 39 40 41 42 43 45 46 45 45 43 42 41 41 40 43 42 42 40 39 38 37 36 36 35 35 35 35 34 32 31 29 29 28 27
39 46 48 48 45 43 40 40 40 43 44 43 43 43 43 44 44 43 42 42 42 40 39 40 42 41 41 40 38 37 35 35 35 34 33 32 32 32 31 31 29 28 28 28
37 48 46 41 41 41 38 40 42 43 43 45 45 43 43 42 42 41 41 42 41 40 40 40 40 39 39 39 37 35 34 34 32 32 32 31 31 30 31 29 29 29 29 28
47 48 42 40 39 40 41 43 44 44 44 42 43 43 41 39 40 39 40 39 39 40 40 39 38 37 38 35 32 30 30 30 31 29 31 30 29 28 26 29 27 27 27 26
45 43 38 39 38 43 44 45 45 44 44 43 42 41 39 38 38 38 38 39 39 39 39 37 36 35 36 35 31 28 28 24 29 30 30 29 28 27 27 25 23 24 25 24
40 42 41 43 44 44 45 44 41 41 41 40 41 39 38 37 37 36 36 36 36 35 35 35 33 32 33 33 31 30 30 31 30 29 28 26 27 27 26 25 24 24 24 24
39 41 42 41 42 42 42 41 39 39 39 39 38 36 37 35 33 32 35 35 31 32 34 28 28 30 31 32 32 31 30 30 27 29 29 28 27 26 25 25 24 23 22 20
38 37 38 38 38 38 38 39 38 38 38 36 35 33 32 31 32 32 36 35 32 30 28 28 30 32 30 31 31 32 31 31 26 29 28 27 26 25 25 24 23 22 21 19
44 43 41 39 37 37 37 37 36 35 34 35 32 28 25 28 30 33 35 33 28 25 27 29 29 30 28 31 30 30 30 29 28 28 28 27 26 25 24 22 22 21 21 21
41 39 38 38 37 35 35 35 34 34 31 30 29 28 29 29 31 33 34 29 27 27 29 29 29 30 30 30 30 30 29 28 28 28 27 23 25 25 23 23 22 22 21 20
38 38 37 37 35 32 31 32 30 31 32 30 28 27 27 30 31 32 32 29 29 31 30 30 30 31 29 30 29 30 28 27 26 27 26 26 24 24 23 18 19 21 21 20
34 35 32 30 30 30 27 28 27 28 31 29 26 27 28 30 32 32 29 28 31 29 30 29 31 31 31 31 31 30 28 28 28 28 27 26 24 24 23 22 21 21 21 21
35 31 29 28 28 29 31 30 30 28 27 27 29 30 30 32 32 31 28 30 32 27 31 32 32 30 31 30 31 30 29 29 29 29 27 26 25 24 24 22 21 21 21 20
34 32 32 29 28 31 31 29 28 27 27 30 31 31 32 32 31 29 29 31 31 31 32 32 30 31 31 31 30 30 30 29 29 29 28 27 26 25 23 23 22 20 21 20
34 33 33 32 28 26 27 32 32 32 31 32 33 33 31 30 30 30 31 25 24 27 30 30 30 31 31 31 30 29 29 29 28 28 28 23 26 24 23 22 20 21 19 16
30 30 30 27 29 32 32 33 31 33 33 33 34 31 28 30 31 31 30 30 28 29 30 27 31 29 30 30 29 28 27 28 28 27 27 27 26 25 24 23 21 20 19 19
33 33 33 31 32 32 32 32 30 32 33 32 33 31 30 31 30 28 29 30 31 28 30 31 30 30 30 29 28 26 26 26 26 26 25 26 26 26 25 23 22 20 19 19
31 25 30 31 32 33 34 32 30 31 33 32 32 32 30 32 31 30 30 30 30 30 30 29 29 28 29 29 28 26 25 25 23 23 24 25 25 25 25 24 23 22 20 18

GFSNGP_sfc_temp_024.txt.gz
Temp
53 54 54 51 50 52 49 50 42 48 52 58 61 61 61 60 61 60 61 60 59 57 59 58 57 56 56 55 55 55 54 54 51 52 47 45 43 46 48 51 51 50 48 49
42 50 51 46 51 52 51 51 52 52 50 62 62 62 58 58 59 58 57 56 54 53 56 55 54 54 53 53 53 54 53 52 50 49 49 49 49 48 50 50 50 49 48 47
38 44 43 36 47 50 51 54 52 46 55 59 58 56 57 57 58 57 54 52 52 55 54 54 53 53 52 52 54 53 52 51 50 50 49 49 50 49 48 47 48 46 46 45
35 36 32 49 58 57 52 54 57 57 57 56 57 58 59 60 55 51 48 48 52 54 54 54 54 54 53 54 52 51 49 50 50 49 48 48 48 47 46 46 45 45 44 44
32 36 45 49 53 51 48 48 57 54 55 57 58 57 57 54 48 44 45 50 54 55 54 54 54 54 53 52 53 50 48 46 47 48 47 46 46 45 45 45 44 43 43 41
33 30 30 49 55 55 54 43 55 54 52 51 47 37 45 44 43 44 48 56 55 54 54 54 54 53 51 51 50 49 48 48 49 48 46 45 45 44 44 44 43 41 39 39
35 32 41 55 54 55 37 41 53 54 51 45 41 41 40 42 45 52 55 55 56 55 53 53 53 51 49 50 49 50 50 49 48 47 46 45 44 44 43 42 39 34 32 34
34 31 30 55 53 42 50 54 54 54 50 43 39 39 42 46 49 52 55 56 56 53 53 54 53 51 49 49 52 51 49 48 47 46 45 44 43 43 42 41 36 32 31 32
46 45 57 60 55 58 58 53 48 41 39 40 40 42 48 50 52 54 54 55 54 53 52 52 52 51 48 50 50 48 47 46 45 44 44 44 42 41 39 38 34 31 30 30
46 52 56 57 59 52 50 43 43 42 42 44 45 49 49 52 53 53 53 52 52 51 50 50 52 51 50 49 48 47 45 44 44 43 41 43 42 41 38 34 31 31 30 29
48 52 53 55 51 45 41 41 43 47 48 47 49 49 50 50 51 51 50 51 50 49 48 49 50 50 50 48 46 44 43 41 41 40 40 39 39 38 36 35 31 30 30 30
40 50 46 44 40 41 39 43 48 48 49 52 51 49 50 48 50 50 49 49 48 48 48 48 49 49 49 48 45 43 40 40 40 38 38 37 37 36 33 30 29 29 28 28
46 50 44 40 40 42 45 47 50 50 51 49 51 50 48 47 48 45 48 48 47 46 46 47 46 45 45 42 38 36 36 36 37 35 36 35 34 32 31 33 30 28 27 27
50 45 38 39 37 48 49 51 51 52 52 50 49 49 48 47 47 47 46 46 44 44 44 41 39 38 41 38 37 32 33 30 35 35 34 33 32 31 31 29 27 30 30 26
44 48 46 47 48 50 52 50 48 48 48 47 49 47 46 44 44 45 45 43 42 43 43 41 37 36 35 37 35 34 34 34 33 33 32 31 31 31 30 29 28 30 30 29
46 48 47 46 47 48 48 48 45 45 46 45 44 42 43 44 43 43 44 43 39 39 40 33 31 34 34 35 35 36 35 32 32 33 32 31 31 30 29 29 29 29 28 27
43 42 44 44 45 45 45 46 45 44 42 41 40 38 37 35 34 37 40 39 35 33 33 31 32 35 32 34 34 35 34 34 31 32 32 31 30 29 29 28 28 28 28 25
48 48 48 46 44 43 43 43 42 41 39 40 34 33 32 32 32 33 33 34 34 33 33 33 33 33 32 36 35 35 33 31 31 31 32 30 30 30 29 28 28 28 27 27
48 46 46 45 45 43 41 41 39 38 34 34 33 32 32 32 32 33 34 32 32 32 34 32 30 32 34 33 33 35 32 31 31 32 31 30 30 30 29 28 27 28 27 27
46 46 45 44 42 38 36 36 34 35 36 35 33 31 32 33 33 32 32 32 33 34 33 34 33 34 33 33 31 34 32 31 31 31 30 31 30 29 29 27 26 27 27 26
41 42 38 35 35 34 33 33 32 32 34 33 31 31 32 32 32 32 32 33 33 32 33 33 35 38 36 35 34 33 32 31 31 31 31 30 30 29 29 28 27 27 27 26
42 37 34 34 34 34 35 35 35 33 32 32 32 32 32 33 33 33 33 32 36 31 35 36 37 34 35 31 34 32 32 32 31 31 30 30 30 29 29 28 27 27 27 26
41 40 38 34 33 37 36 34 33 32 32 32 32 32 33 33 33 31 32 34 36 33 34 35 34 32 32 32 32 32 31 31 31 31 31 31 30 30 29 29 28 28 27 27
41 40 39 38 35 33 33 39 37 35 34 34 34 34 34 32 32 35 37 33 31 32 33 33 32 32 32 32 32 31 31 31 30 31 31 30 30 30 30 29 28 28 27 24
36 37 37 33 35 40 39 40 37 36 34 34 34 35 35 35 32 35 33 33 31 31 33 32 31 32 32 32 31 31 30 30 30 30 30 30 30 30 30 29 28 28 27 26
39 40 41 39 39 39 39 38 35 34 33 33 35 34 34 34 34 34 33 33 33 33 33 33 32 32 32 32 31 30 30 30 30 29 29 29 30 29 30 30 29 28 27 27
39 35 38 39 41 39 37 36 33 33 34 32 32 33 34 34 33 33 32 32 32 32 32 32 32 32 32 31 31 31 30 30 29 28 28 28 28 28 28 29 29 29 28 27

GFSNGP_sfc_temp_027.txt.gz
Temp
57 60 60 58 56 57 54 55 46 51 54 60 63 63 64 66 65 65 65 63 62 60 61 61 61 59 59 58 59 59 57 57 56 52 52 51 50 49 51 51 52 52 52 51
47 56 58 53 57 57 57 56 56 55 53 63 66 67 65 64 63 63 59 61 59 58 56 57 59 58 58 58 57 58 57 56 55 51 51 50 51 50 50 50 50 51 50 49
39 49 47 39 50 56 57 58 56 48 56 64 62 60 59 57 57 56 52 56 54 52 54 57 58 58 57 57 58 57 56 55 52 51 50 50 51 50 49 48 50 48 48 48
36 37 33 55 63 62 57 59 61 60 61 61 61 59 61 57 52 51 52 49 49 52 56 59 58 58 58 58 57 57 56 54 53 50 49 49 49 48 49 48 47 47 46 46
34 39 47 53 57 54 51 51 61 58 59 60 59 58 58 55 52 48 47 48 52 57 59 58 58 60 58 57 57 56 54 53 51 50 49 49 48 48 48 47 46 45 45 42
36 31 32 51 60 60 59 44 58 58 56 55 55 43 44 42 46 49 51 56 58 59 60 60 60 59 56 55 55 53 54 52 52 50 49 49 48 47 47 47 45 44 40 39
37 34 43 58 59 60 40 43 56 56 49 45 42 41 44 45 46 53 57 59 61 61 59 60 60 58 55 55 54 56 55 53 51 50 49 49 47 47 46 45 43 37 33 36
38 33 32 60 57 44 51 57 52 52 46 42 45 43 44 50 55 57 58 60 60 58 57 59 59 57 55 53 57 56 53 51 49 49 49 48 46 46 45 43 40 33 32 33
47 47 59 61 57 57 58 52 49 42 43 44 45 49 53 53 55 57 58 58 58 56 55 56 57 56 53 53 53 50 50 48 47 48 48 48 45 44 42 41 38 32 32 32
48 56 57 57 58 55 53 48 46 46 47 50 50 52 53 55 55 56 56 55 56 54 53 52 55 55 54 54 51 50 47 46 45 45 44 44 45 44 40 38 33 32 32 31
49 56 55 50 47 46 45 44 45 50 52 52 53 53 54 53 54 54 53 54 54 52 51 52 53 52 53 54 50 47 44 41 42 43 43 40 41 41 39 38 34 31 31 30
42 48 46 43 44 44 42 48 51 51 52 55 55 53 54 52 53 53 52 52 52 52 51 50 51 50 49 48 48 43 37 38 41 40 39 38 38 38 36 33 31 30 29 28
52 47 43 43 43 45 48 51 53 54 54 53 54 53 52 51 52 48 51 51 50 49 49 49 47 45 47 42 40 36 34 38 39 36 36 35 35 34 31 34 31 30 29 28
50 47 38 40 43 50 52 54 54 55 55 54 52 52 51 50 49 49 48 49 50 48 46 45 44 43 42 41 37 34 35 33 36 36 34 33 32 31 31 30 29 31 29 28
46 49 51 51 52 53 55 54 52 51 51 50 51 49 48 46 45 46 47 47 46 45 45 45 41 39 40 39 37 36 35 35 34 33 32 32 32 32 32 30 30 30 33 30
50 52 52 50 50 52 52 51 49 48 48 47 46 44 45 45 43 43 44 43 38 37 39 35 34 37 38 37 37 37 38 33 33 33 32 32 32 31 30 31 30 30 30 30
47 46 47 46 48 49 48 50 48 47 45 43 43 40 38 37 36 39 39 38 35 33 34 33 33 38 36 37 37 39 37 35 33 33 32 32 31 30 30 30 29 29 30 27
52 51 51 50 48 47 47 46 44 44 42 42 36 34 33 33 33 34 34 34 34 34 35 34 34 36 35 38 37 38 35 33 32 31 32 31 32 31 30 29 29 29 30 30
51 50 50 50 49 46 45 43 43 40 35 35 34 33 33 33 34 35 35 33 32 33 34 34 31 32 36 35 34 35 33 32 32 32 32 32 31 32 31 30 30 29 29 29
48 50 49 48 45 41 39 40 36 39 40 38 34 33 32 33 33 33 33 32 34 36 35 35 34 35 35 36 32 36 33 32 32 32 32 32 32 31 31 30 30 29 29 28
44 45 43 39 38 36 34 34 34 34 37 34 32 32 32 32 34 34 33 35 34 33 35 34 35 39 38 36 35 34 33 32 32 32 32 31 31 31 31 30 30 30 29 28
45 40 35 35 36 37 38 38 38 34 34 33 33 33 32 33 34 34 34 34 37 32 36 36 36 36 37 32 36 33 33 33 32 32 32 32 31 31 31 30 30 30 30 29
44 43 41 37 34 39 40 36 34 33 33 33 33 33 33 35 35 32 32 36 37 34 35 36 35 32 32 32 33 32 32 32 32 32 32 32 32 31 31 31 30 30 29 29
43 43 43 42 38 36 34 41 42 41 35 34 34 34 34 33 34 38 37 35 33 32 32 33 33 32 32 32 32 32 32 32 31 31 31 31 31 32 32 31 31 30 30 29
41 41 40 37 38 41 43 44 42 41 38 36 35 37 36 36 33 35 34 34 33 33 34 33 32 32 32 31 32 32 32 32 31 31 30 29 29 30 31 31 31 30 30 29
43 43 44 44 43 43 43 41 38 37 36 34 36 35 34 35 35 35 34 34 34 35 34 33 32 32 32 32 32 32 32 32 31 30 29 29 29 29 29 30 30 31 30 30
44 39 43 43 45 44 41 37 34 34 35 33 33 34 36 34 34 34 33 33 33 33 33 33 33 32 32 32 32 32 32 32 31 30 30 29 29 28 28 29 29 31 31 30

GFSNGP_sfc_temp_030.txt.gz
Temp
58 59 59 57 57 57 54 55 44 50 53 58 60 62 63 61 61 61 60 60 58 58 58 58 58 58 58 57 56 56 55 54 52 50 49 48 48 48 48 47 47 47 46 45
46 58 57 51 55 56 57 57 57 55 53 63 66 62 59 59 57 57 55 55 55 57 55 55 56 57 57 56 55 55 54 53 53 51 49 48 47 46 47 46 46 45 44 43
39 47 44 38 48 55 57 58 56 47 56 62 57 56 56 56 55 53 52 53 53 53 53 55 56 57 55 55 56 55 54 55 54 51 48 47 48 48 46 44 44 42 42 42
35 37 33 54 62 60 56 58 59 58 60 58 57 58 56 54 51 50 50 51 51 52 53 56 58 57 56 58 55 54 53 53 53 50 48 48 47 46 44 42 40 39 39 39
35 38 46 52 57 53 50 49 59 56 55 55 55 56 51 51 49 49 49 51 52 55 57 58 58 59 58 56 55 54 53 53 52 50 48 47 45 44 42 40 39 39 39 36
36 31 31 50 60 62 59 41 55 53 50 48 50 40 44 49 49 49 51 55 57 58 59 58 58 57 56 55 55 53 53 50 49 49 48 46 44 42 41 40 40 36 35 34
37 33 41 56 60 61 39 41 52 51 47 45 42 44 48 49 49 54 57 58 59 58 56 56 56 55 53 53 52 51 50 49 49 49 47 46 44 42 41 38 35 31 30 31
37 33 32 60 56 41 50 55 51 50 47 46 47 47 49 52 54 55 56 57 57 55 54 55 55 53 52 51 54 52 51 48 46 45 46 46 42 40 39 37 33 28 27 28
44 42 57 58 53 55 54 49 48 47 49 47 48 50 52 52 54 55 55 55 55 53 52 53 54 54 50 50 51 48 46 44 43 45 44 44 40 38 35 35 30 28 29 28
50 56 58 54 54 52 51 47 48 48 49 51 49 51 52 53 53 53 53 53 53 51 50 50 52 52 51 50 48 46 44 42 40 38 39 40 40 38 32 30 28 31 29 25
51 57 58 50 49 47 46 47 48 51 53 52 52 51 52 51 51 51 51 52 51 50 49 49 51 49 50 48 46 42 39 38 37 37 37 35 35 34 32 32 29 26 25 24
44 52 52 46 44 45 45 48 52 52 52 53 53 51 51 49 51 50 48 49 49 49 48 49 49 48 48 46 44 39 35 34 34 33 33 33 32 33 35 33 32 32 31 26
53 52 50 46 46 49 49 52 54 53 53 51 52 51 50 48 49 46 48 48 47 46 46 46 46 45 45 40 37 35 33 34 34 33 33 32 31 31 29 32 34 32 32 30
52 48 41 43 46 50 52 54 54 55 54 52 50 50 49 47 47 46 45 45 45 44 43 42 42 40 40 40 36 34 32 33 32 33 32 31 31 30 30 29 28 28 32 29
49 50 50 51 52 53 55 54 51 50 50 49 49 47 45 43 42 43 44 44 42 40 39 38 36 35 38 37 35 35 34 33 32 32 31 31 31 30 30 29 29 28 29 26
50 52 52 51 51 52 51 50 48 47 47 46 44 40 42 42 41 40 41 39 35 34 35 33 32 34 36 35 34 35 35 32 31 31 31 30 30 29 29 28 28 28 27 26
46 46 48 47 48 48 48 49 47 45 44 40 39 37 36 35 34 36 37 36 34 33 33 34 33 34 35 35 35 34 34 33 31 31 30 30 30 29 29 28 28 27 27 22
53 52 52 50 48 47 46 45 42 41 39 39 34 30 30 29 31 32 33 34 33 33 34 34 31 34 34 35 34 33 31 31 30 30 30 30 30 29 29 28 28 27 27 24
52 50 50 50 49 44 42 40 40 38 33 33 32 32 32 31 32 33 33 33 33 33 32 33 32 31 34 34 32 31 31 31 31 30 31 30 30 30 30 29 29 27 26 25
49 49 48 46 44 39 37 38 35 36 37 35 31 32 31 32 34 33 33 32 33 34 34 34 32 32 32 33 31 32 31 31 30 30 30 30 30 30 30 29 28 28 28 27
42 43 40 37 36 34 33 33 31 33 35 31 30 33 33 33 33 33 32 32 35 32 33 34 31 34 35 34 33 32 32 31 31 30 30 30 30 30 30 30 30 29 28 28
42 37 34 33 34 35 36 36 36 33 33 33 31 33 33 32 32 33 34 33 36 34 34 34 34 34 34 29 31 31 31 31 31 31 30 31 30 30 30 30 29 29 29 25
41 40 39 35 33 38 38 35 34 34 33 32 32 33 33 33 33 32 32 35 34 34 33 33 33 33 32 31 30 30 30 30 31 31 30 30 30 30 30 30 29 27 24 27
40 40 40 40 36 35 34 38 38 37 33 33 33 33 33 33 33 35 36 36 34 33 32 33 32 29 27 31 30 30 30 31 31 31 30 30 30 29 30 30 30 30 25 27
39 39 39 35 36 37 39 41 39 38 36 36 35 35 35 36 33 34 34 34 33 33 33 33 31 31 32 31 31 30 31 31 31 30 30 29 28 28 28 29 29 30 29 26
40 40 41 40 40 41 41 41 38 36 35 33 34 34 34 34 34 34 34 34 34 33 33 33 33 32 32 31 31 31 32 31 31 30 30 28 28 27 27 28 28 28 29 28
40 37 40 40 42 42 40 37 33 32 33 33 31 33 34 34 34 34 34 33 33 33 33 33 33 33 32 32 31 31 32 31 31 29 28 27 27 27 27 27 27 27 27 29

GFSNGP_sfc_temp_033.txt.gz
Temp
48 51 51 49 48 49 46 46 35 41 46 51 52 50 51 53 54 52 51 51 51 49 48 49 49 50 51 50 50 50 49 48 46 44 44 44 43 43 43 43 43 42 41 41
37 48 47 43 47 47 49 49 47 47 45 51 52 53 51 51 50 49 48 49 49 49 49 49 50 50 51 50 49 49 48 47 47 45 44 43 42 42 42 42 42 41 40 38
30 39 36 31 41 48 49 50 48 39 46 50 48 47 46 45 47 46 45 46 47 46 47 49 48 52 48 49 49 49 48 48 49 46 46 43 44 43 41 39 38 38 37 35
25 30 22 45 54 52 49 50 50 48 47 48 47 45 45 44 42 44 45 45 45 46 48 49 50 49 48 51 49 47 49 48 47 44 45 45 43 42 40 38 36 37 34 33
28 27 37 45 51 47 44 41 48 45 46 46 46 46 40 46 45 43 43 44 46 49 49 47 47 48 48 47 47 49 44 43 43 44 43 42 41 39 39 38 35 34 33 32
23 19 19 39 51 55 52 32 47 46 43 42 42 32 36 43 44 44 45 47 48 48 48 47 46 47 45 46 46 44 45 43 43 42 42 38 39 39 38 36 34 32 31 31
22 20 31 47 53 54 32 34 44 44 42 39 37 38 41 43 44 46 48 49 49 47 45 45 46 46 46 44 43 45 45 44 42 40 41 41 40 38 38 32 30 28 26 29
32 27 23 53 50 39 42 45 45 43 43 41 40 41 43 45 47 48 47 47 48 45 43 45 46 47 43 42 44 43 43 42 39 39 41 42 36 35 34 30 28 20 17 20
36 33 46 49 47 46 47 43 43 45 45 43 43 43 46 46 45 46 46 45 46 43 44 45 45 44 42 42 42 41 39 38 37 39 39 38 35 32 30 28 23 21 21 19
40 48 47 45 46 47 46 43 44 46 46 46 44 45 44 44 44 43 44 43 45 44 43 43 45 46 42 42 41 39 36 35 36 34 34 33 34 32 25 22 21 25 21 17
41 44 44 44 44 43 43 43 44 48 47 46 45 44 44 42 42 42 41 43 43 42 42 42 44 44 43 41 39 36 34 35 33 31 32 31 31 28 27 26 25 20 20 18
34 46 44 41 42 43 41 43 46 47 46 47 46 43 42 41 41 40 40 42 41 41 41 41 41 41 41 39 37 34 32 33 32 29 28 26 24 26 33 31 32 33 32 23
45 44 43 41 41 44 46 47 49 48 46 44 44 43 41 39 40 39 41 40 40 39 39 38 37 37 37 34 35 32 30 30 27 27 26 25 24 24 23 27 33 34 33 32
45 43 38 39 40 48 48 50 50 49 46 44 42 41 40 39 39 38 38 39 39 38 37 36 35 34 36 36 33 30 30 31 30 29 29 29 27 28 27 23 20 20 29 29
44 46 45 45 47 48 49 47 45 43 42 41 40 38 38 36 36 36 37 37 36 34 34 33 34 33 35 34 33 33 32 30 29 28 28 28 28 27 25 25 23 23 22 21
47 50 49 47 47 46 46 44 41 39 39 38 36 34 36 35 34 34 35 32 30 31 32 31 33 34 33 34 33 32 29 28 29 27 27 27 27 23 24 25 24 20 19 17
44 43 44 43 42 43 43 41 39 38 37 34 34 33 32 30 29 30 31 31 27 29 31 30 32 33 33 33 33 32 26 28 28 28 27 27 22 25 23 22 23 20 15 16
49 48 47 44 42 39 39 37 35 34 34 33 28 21 19 18 26 28 31 32 33 33 32 31 27 31 32 34 30 29 25 24 28 27 27 27 26 26 21 16 17 20 21 16
48 44 43 43 40 37 35 34 34 32 27 26 23 23 21 23 30 32 32 31 29 31 33 30 34 28 29 29 28 27 20 23 27 27 27 24 27 26 25 16 20 20 16 15
43 43 42 41 39 34 33 33 28 31 32 27 22 20 24 30 33 33 32 30 32 32 30 30 32 27 27 29 27 25 24 22 27 27 20 24 25 21 19 20 19 17 16 17
37 37 35 34 31 29 27 28 24 28 31 25 23 26 25 32 32 33 30 29 33 28 29 31 31 27 29 26 25 23 22 19 21 27 27 26 27 26 25 21 22 20 23 16
35 32 28 27 28 31 31 31 32 28 27 25 23 23 27 32 32 32 28 28 33 32 31 31 31 32 32 31 30 22 20 17 20 24 25 25 25 17 15 19 25 24 19 17
35 35 34 29 27 33 33 30 29 28 27 24 30 32 31 32 32 28 29 32 33 32 31 31 32 32 31 31 27 22 20 18 20 22 26 27 27 25 16 16 24 26 18 17
35 35 35 35 30 29 30 34 33 32 28 29 32 33 32 32 31 29 33 34 33 33 33 32 32 31 29 25 25 27 23 21 21 23 25 27 27 23 18 16 21 24 25 24
34 34 34 29 31 33 33 34 32 30 31 31 31 32 30 32 32 33 34 34 34 32 33 33 32 30 30 29 29 27 27 25 26 29 28 26 26 25 25 24 21 19 18 20
34 32 32 34 33 33 32 30 27 29 30 30 30 30 32 30 32 32 33 33 33 33 33 33 33 32 32 32 31 31 29 28 27 28 25 26 23 22 22 23 23 23 25 21
33 30 32 31 31 31 30 29 30 29 29 30 30 31 32 32 32 32 31 31 33 33 33 33 33 33 33 32 32 31 30 30 29 28 26 25 23 21 20 22 22 23 23 22

GFSNGP_sfc_temp_036.txt.gz
Temp
44 46 46 45 44 44 42 42 34 39 40 42 45 45 47 49 49 48 47 47 47 46 45 46 47 47 49 48 48 47 46 45 44 43 42 43 41 41 42 43 43 42 40 38
37 43 42 40 44 44 44 45 44 42 39 46 47 47 46 46 46 45 45 46 45 46 46 47 47 47 47 47 46 46 45 45 46 44 44 41 42 40 42 42 41 40 37 36
30 35 35 30 40 44 45 45 44 37 41 45 43 44 43 42 43 42 42 44 44 44 45 45 45 46 45 45 47 46 45 45 44 44 42 41 41 40 39 37 38 38 36 34
25 27 21 42 49 50 44 44 45 44 43 44 44 42 42 42 40 41 42 42 43 43 44 45 45 45 44 45 45 44 43 42 42 41 40 40 38 38 36 36 36 36 32 32
22 25 35 42 48 46 43 40 45 43 43 43 44 41 38 43 43 41 41 42 43 43 45 44 44 44 43 42 42 42 41 41 41 40 39 38 38 36 36 35 35 32 32 30
27 19 19 38 48 53 49 32 45 44 41 41 40 30 35 41 43 43 43 43 44 44 44 42 42 43 41 40 40 39 40 40 41 40 38 37 35 35 35 34 33 31 31 30
19 17 29 43 49 51 31 35 43 44 41 40 37 38 40 41 42 43 45 44 44 42 41 41 42 42 40 39 39 40 41 40 40 38 37 40 37 35 32 31 29 28 25 27
24 18 24 48 48 40 42 42 43 41 41 40 40 41 42 42 42 43 42 43 43 40 40 41 42 41 40 37 40 40 39 37 37 36 37 38 35 33 33 29 27 18 14 19
35 34 44 47 46 45 45 42 42 41 42 43 41 41 43 42 42 42 41 40 41 39 39 40 41 40 38 40 40 38 36 35 35 35 35 35 33 30 29 27 22 20 19 17
38 45 45 43 44 45 45 42 44 45 45 44 42 42 40 41 40 39 39 39 40 39 38 37 39 40 38 40 39 36 35 33 33 35 32 33 33 32 26 21 20 24 20 16
38 40 42 42 42 42 42 44 45 47 45 44 43 41 40 39 38 38 38 38 38 37 36 36 37 38 38 37 38 35 34 33 33 33 31 30 30 27 27 26 24 19 19 17
35 45 42 40 41 42 42 43 46 45 45 42 42 40 39 37 37 37 36 37 36 36 36 35 37 36 36 36 36 34 31 30 31 29 27 27 26 27 31 31 31 33 33 22
45 43 41 41 42 44 45 46 48 46 43 41 40 39 38 36 37 36 36 36 35 35 35 35 34 34 34 33 33 32 31 31 30 29 28 29 29 28 19 26 32 32 33 33
44 42 38 39 40 46 48 48 46 44 42 40 39 38 37 36 35 35 34 35 35 35 33 32 33 34 36 34 33 31 31 30 30 29 28 27 26 27 26 19 15 18 27 29
42 43 43 44 46 46 47 45 42 40 40 38 38 36 35 34 33 33 33 33 32 31 31 32 33 33 36 33 32 32 31 29 28 26 27 26 27 26 20 24 24 22 18 19
44 46 47 46 45 45 43 42 39 38 38 36 35 33 34 33 31 31 31 31 31 30 32 31 31 33 33 31 32 32 31 27 27 27 26 26 26 19 23 24 25 23 14 14
43 41 42 40 41 41 40 39 38 36 35 33 33 32 31 29 27 30 30 33 30 31 31 32 32 33 32 33 32 30 29 29 27 27 25 25 25 17 20 21 21 17 16 14
47 45 45 43 40 38 37 36 34 33 33 32 26 18 16 17 25 27 29 31 32 30 30 33 30 32 29 32 31 26 21 21 22 23 26 25 24 25 24 15 17 18 18 13
44 42 41 40 38 36 35 34 33 31 25 23 20 22 20 21 27 31 31 31 31 30 32 31 31 31 29 28 26 21 18 16 20 24 25 21 24 24 19 21 18 20 19 18
42 42 40 39 37 35 33 34 26 30 32 26 18 16 22 24 29 32 31 31 30 30 33 30 31 31 29 27 28 28 23 19 20 21 24 21 23 16 16 15 16 17 15 16
36 36 35 34 31 28 24 26 22 27 31 22 19 25 24 24 29 32 31 30 31 26 29 29 28 30 31 30 29 27 25 22 20 19 21 25 22 23 21 19 19 19 21 16
35 31 27 26 26 30 30 30 31 27 26 24 21 18 26 27 26 29 29 28 31 24 33 32 31 31 31 29 30 29 28 23 22 19 17 20 25 22 17 12 13 16 18 17
34 34 33 27 25 32 32 29 27 26 26 25 22 27 27 30 29 29 28 30 30 33 33 33 33 33 31 31 31 30 27 25 24 22 19 20 24 25 20 17 16 16 16 21
34 34 34 34 29 27 28 33 33 32 27 26 27 30 30 25 23 25 28 30 29 28 33 33 32 33 32 31 29 29 29 27 25 24 23 20 26 27 21 20 18 19 19 20
33 33 33 28 30 32 33 33 31 30 28 28 28 29 28 28 24 27 26 27 30 32 32 34 33 33 33 32 30 29 28 28 27 27 26 27 28 26 24 23 22 20 18 20
33 32 31 33 32 33 32 29 28 26 24 23 22 23 22 25 29 29 26 26 25 31 31 32 33 33 32 32 32 31 30 29 29 28 28 28 28 26 24 23 21 20 21 21
32 27 30 31 32 31 28 28 24 26 24 22 23 22 23 23 26 29 22 24 24 22 25 29 28 29 30 31 32 32 32 32 31 30 29 29 27 26 25 22 22 23 23 20

GFSNGP_sfc_temp_039.txt.gz
Temp
41 42 43 43 43 43 41 39 34 37 38 41 43 43 44 45 45 45 44 45 45 45 46 45 44 44 45 44 44 44 43 42 41 41 41 40 39 39 39 39 39 39 40 39
36 40 40 38 42 42 41 41 40 38 36 44 45 45 44 44 44 43 43 45 44 44 44 43 43 43 44 43 43 43 43 42 42 42 41 39 38 38 37 36 37 39 36 37
29 33 34 29 38 43 43 43 43 35 41 43 42 42 41 41 41 40 41 41 42 42 42 42 42 43 42 42 43 42 41 41 41 41 40 39 39 37 35 35 35 35 36 36
24 27 22 41 45 47 43 42 42 41 42 43 42 41 41 40 38 40 41 41 41 42 42 41 41 42 41 43 41 40 40 40 40 39 38 38 37 35 33 33 32 32 32 32
23 25 34 41 44 42 41 40 43 41 41 42 41 39 38 42 42 41 40 40 41 41 41 41 41 41 40 39 39 39 39 38 38 38 37 36 37 38 37 36 34 31 31 31
25 19 19 38 45 50 47 33 44 43 41 40 38 30 35 40 41 40 40 42 41 41 41 39 39 39 38 37 37 37 38 38 38 37 36 35 36 36 33 31 31 31 31 30
16 18 30 41 47 49 32 34 43 44 43 39 36 37 40 41 39 41 42 41 41 39 38 38 39 39 37 36 36 39 38 37 37 36 35 35 34 32 30 30 31 28 26 27
25 18 25 45 45 38 41 40 43 41 41 39 41 41 42 42 41 41 39 38 39 37 37 37 38 37 35 34 38 39 37 36 35 35 35 35 35 34 32 28 27 20 14 19
34 33 43 45 43 42 44 41 41 41 41 43 42 42 43 39 39 39 38 37 38 36 36 37 37 36 34 36 37 35 37 35 32 34 32 32 31 29 29 28 23 20 19 16
37 43 42 45 42 43 43 41 42 43 43 45 43 41 39 39 37 37 37 36 37 36 35 34 36 36 34 35 35 35 34 34 32 32 33 32 31 31 27 22 19 23 19 16
37 41 40 42 42 42 41 42 44 45 46 44 42 39 39 37 36 36 35 36 35 34 34 34 35 34 34 34 34 34 33 34 31 31 31 30 29 28 28 26 24 19 19 18
34 43 42 42 42 41 40 42 44 45 44 42 41 39 37 36 36 35 34 34 34 34 33 33 33 33 33 36 35 33 32 32 30 29 29 28 29 29 31 31 31 33 33 23
44 42 41 39 40 42 43 45 47 44 42 40 39 38 37 36 35 35 34 33 33 32 32 32 30 30 37 35 32 32 31 31 28 30 29 28 28 28 25 27 31 31 32 32
42 41 38 38 39 44 46 46 45 43 42 40 38 37 36 35 33 32 32 32 32 31 30 30 33 33 35 36 32 31 30 30 29 29 26 27 24 25 26 18 22 17 26 28
40 43 43 43 43 44 45 43 40 39 38 37 37 35 34 33 32 31 30 31 30 32 34 33 32 32 34 33 32 31 31 29 28 24 22 23 21 25 20 22 22 19 16 19
42 43 44 44 43 43 43 41 39 37 36 36 34 33 33 32 31 30 30 30 29 31 33 32 31 33 33 33 31 31 31 29 28 27 25 24 22 19 19 22 22 21 13 14
40 38 39 38 38 39 40 39 37 36 35 34 33 32 30 27 26 29 30 29 30 32 32 30 31 33 32 30 32 31 25 25 27 25 23 23 23 21 18 15 21 16 15 11
44 43 41 38 38 37 36 35 35 34 34 33 26 18 18 17 25 25 27 30 30 31 31 30 31 32 31 30 29 29 22 21 18 17 21 19 24 21 22 15 15 15 16 18
41 40 40 39 38 36 36 34 34 32 25 23 21 23 20 19 24 28 31 28 30 28 30 29 32 30 30 30 28 23 21 19 19 20 20 19 14 21 17 17 17 14 15 15
40 40 39 38 36 35 34 34 27 31 32 25 19 17 22 24 22 22 24 27 30 31 29 28 29 30 30 31 29 28 28 23 21 20 19 21 20 21 17 14 16 15 15 18
35 36 34 33 30 27 25 24 22 27 31 22 20 24 24 23 21 22 23 27 30 27 27 24 30 30 29 27 30 29 26 27 26 23 22 22 21 18 20 19 18 18 18 15
34 30 27 26 26 29 29 29 30 25 25 24 21 19 17 28 25 24 24 27 32 24 27 32 32 32 32 32 31 30 28 28 28 25 22 22 21 20 20 21 19 18 18 18
34 34 32 26 24 32 31 29 26 25 25 26 25 24 24 28 27 28 25 28 26 25 30 31 32 30 30 31 32 31 30 29 27 26 25 25 23 23 22 22 21 19 18 19
34 34 33 34 27 27 28 34 32 32 27 28 26 24 27 29 24 24 27 23 19 21 26 31 32 32 32 32 32 31 30 29 28 28 27 26 25 25 25 25 21 21 20 20
32 33 33 27 30 31 32 33 31 29 29 29 28 28 27 27 25 26 18 22 23 23 24 27 28 30 30 31 31 31 31 30 29 29 28 27 27 27 27 26 25 23 20 19
32 30 30 31 30 30 31 30 29 30 28 25 25 26 24 24 21 21 21 23 21 16 15 17 22 20 21 21 22 24 28 31 31 30 29 29 29 28 28 26 24 22 22 22
29 25 28 28 30 30 29 28 27 28 29 29 29 29 23 21 18 25 21 13 9 8 9 11 14 18 18 19 21 23 25 26 28 30 31 31 29 29 27 26 24 22 21 21

GFSNGP_sfc_temp_042.txt.gz
Temp
38 39 40 40 40 40 39 38 35 36 36 41 42 41 41 43 43 43 42 43 44 43 45 45 44 44 43 42 42 42 41 40 39 39 39 39 39 38 37 37 36 36 36 37
35 37 37 37 40 40 39 38 38 36 37 43 42 43 42 42 42 42 41 41 42 43 43 42 42 41 42 42 41 41 39 39 40 39 39 38 37 37 36 35 35 37 36 34
29 32 33 29 37 39 40 41 40 35 40 41 39 41 40 40 41 40 41 42 42 40 41 41 41 42 39 39 40 39 39 40 39 39 38 37 37 36 34 33 34 32 32 33
23 26 21 39 43 43 42 42 42 40 41 42 41 41 41 41 39 40 41 42 40 40 40 40 39 39 38 39 38 38 38 38 38 37 36 36 35 35 34 35 35 34 31 30
22 24 34 41 41 40 40 40 43 42 40 41 39 39 39 41 41 40 41 41 40 39 40 38 38 38 37 37 37 37 36 36 36 36 35 35 34 34 34 35 34 32 30 30
20 19 19 37 42 46 45 33 43 42 40 38 38 31 38 40 41 41 41 41 39 39 38 37 37 37 36 35 34 34 36 36 36 36 34 33 33 34 32 30 30 30 31 31
15 16 29 39 44 46 33 35 41 43 41 37 36 39 40 41 42 42 41 40 39 38 36 36 36 36 34 33 32 35 36 35 35 37 34 33 32 32 30 29 30 28 26 28
23 15 25 44 44 39 41 39 42 41 40 39 39 39 41 41 41 40 39 39 38 36 35 36 36 35 32 30 33 34 34 34 34 34 34 34 30 33 33 29 27 20 18 20
33 32 42 44 41 41 42 42 40 40 40 41 40 41 40 40 39 39 39 37 38 36 35 36 35 34 32 32 33 33 33 34 35 35 32 31 32 29 28 28 24 22 19 16
36 41 41 43 43 43 43 42 41 42 42 42 41 41 40 38 37 37 37 36 36 35 33 32 34 34 32 33 33 32 34 32 31 33 30 31 30 30 27 23 20 22 19 16
36 41 40 43 42 42 41 41 42 43 43 42 42 40 39 37 36 36 36 36 35 33 32 31 33 32 32 32 35 33 32 32 30 30 28 28 29 27 28 27 25 21 21 18
34 44 43 43 41 41 40 41 42 42 41 42 41 39 38 37 37 36 34 34 33 32 31 30 31 30 31 36 36 33 31 31 30 27 26 25 24 26 32 31 31 33 32 24
43 41 40 37 38 40 41 42 44 42 42 39 39 39 38 37 36 35 33 32 31 30 29 29 30 33 36 35 34 32 31 30 28 28 25 23 23 24 22 28 32 32 32 32
40 40 36 37 38 43 43 43 43 42 41 40 38 38 37 36 34 33 31 30 30 29 28 31 34 33 32 34 33 31 31 28 27 27 25 24 19 21 22 20 17 22 26 28
40 41 41 41 42 41 44 43 40 38 38 37 37 35 35 33 32 32 31 31 30 30 30 32 33 33 32 33 32 32 31 29 26 23 19 21 20 22 20 19 20 22 17 19
40 41 41 39 40 41 41 40 37 37 37 35 35 34 34 33 32 31 31 30 28 28 32 32 29 31 32 32 31 31 31 30 28 24 22 20 24 18 19 20 21 23 16 15
36 34 35 35 36 37 37 39 37 35 35 34 34 32 32 28 26 29 30 30 26 26 28 28 28 30 32 32 31 30 31 30 25 21 20 21 19 19 19 16 18 19 16 15
41 40 40 38 37 36 35 35 35 34 34 34 28 22 19 18 25 26 26 26 23 24 27 30 27 29 29 32 31 28 27 26 22 20 20 16 19 19 17 16 16 15 17 15
42 40 39 37 37 36 35 34 34 33 27 26 21 23 22 22 24 26 25 19 21 24 30 27 28 28 31 31 30 28 23 23 23 25 24 21 19 19 17 16 15 16 16 16
39 38 38 37 35 35 34 34 28 31 32 25 20 20 24 25 22 20 18 21 27 30 29 27 27 27 28 29 29 29 28 27 26 25 24 21 22 22 21 21 19 16 16 16
35 35 34 33 30 28 25 24 22 27 30 22 21 25 25 25 20 16 17 25 28 25 26 23 27 31 32 30 30 29 29 29 27 27 26 25 24 24 24 22 20 19 19 20
34 29 26 25 26 29 29 28 29 25 25 25 24 21 19 22 22 29 22 26 29 23 22 28 30 31 31 31 31 30 30 29 28 28 27 26 25 25 24 24 23 22 21 21
33 33 32 26 24 31 29 28 26 24 24 25 25 25 23 27 26 25 29 27 26 20 24 29 31 31 31 30 31 31 31 30 30 29 28 27 27 26 25 25 24 24 22 21
33 32 32 32 26 27 28 31 31 31 27 27 27 28 27 27 30 30 28 23 16 19 25 20 18 19 18 24 26 27 28 30 30 30 29 27 28 28 26 26 25 26 24 22
31 31 30 27 28 28 29 29 28 28 28 29 29 30 29 29 30 28 26 17 19 26 15 13 12 13 15 18 18 18 20 22 24 26 28 29 28 27 27 27 27 27 25 23
28 27 27 28 27 26 26 26 25 27 28 27 28 30 31 29 30 27 24 26 24 15 14 10 9 14 14 16 16 15 16 16 14 14 17 21 26 28 28 28 28 26 25 23
26 22 25 25 26 24 23 23 23 23 26 26 26 30 32 31 28 25 25 21 19 12 6 4 6 9 11 9 9 10 10 10 10 10 12 14 14 15 16 21 23 23 22 22

GFSNGP_sfc_temp_045.txt.gz
Temp
43 43 46 47 46 45 45 45 43 45 45 51 53 50 49 50 49 48 49 50 50 50 51 51 50 51 51 52 52 51 50 50 49 49 49 49 48 47 47 45 45 45 43 41
41 41 42 43 46 45 45 45 46 44 45 53 50 51 48 47 48 48 48 49 49 49 48 48 49 49 49 49 50 49 48 48 49 48 48 47 46 45 44 44 43 43 41 39
36 37 39 36 43 46 45 46 48 43 52 48 46 47 48 48 48 48 48 48 46 47 48 48 48 48 48 48 48 47 47 48 47 46 45 45 45 45 44 43 42 41 41 41
34 31 31 47 48 48 47 47 48 47 48 49 49 49 50 51 49 47 48 47 47 48 47 48 48 48 46 47 46 45 45 45 45 45 43 44 43 43 43 42 42 42 41 39
33 33 40 46 45 45 44 47 50 50 46 45 45 48 47 49 50 49 48 48 48 49 48 47 46 45 45 45 44 43 42 42 42 43 43 42 42 41 42 40 39 39 38 38
30 32 30 44 48 51 52 41 50 49 45 43 46 42 49 48 48 47 48 48 47 47 46 46 44 44 43 42 41 40 40 41 42 43 41 40 40 40 41 41 39 39 37 37
25 32 37 46 50 52 39 43 46 49 47 44 46 48 46 46 45 47 47 46 46 46 45 44 43 43 41 41 39 40 41 41 41 41 40 41 40 40 40 38 37 33 32 35
27 29 32 48 50 44 49 48 48 47 47 45 44 43 43 45 44 45 44 44 45 44 43 43 43 41 41 39 41 40 40 39 39 39 38 38 39 39 38 35 33 30 30 32
39 40 48 49 49 49 49 48 48 47 47 46 44 43 44 43 43 42 44 44 43 42 41 42 42 41 38 40 40 38 38 36 38 39 39 39 37 37 36 36 33 32 31 32
41 47 45 47 49 49 49 48 49 48 48 47 45 44 43 43 41 41 43 42 42 41 39 39 40 39 39 39 38 38 35 37 38 37 37 37 36 36 35 34 33 32 31 31
41 45 45 48 47 48 47 47 46 47 47 46 44 43 41 39 40 42 41 41 40 38 38 38 38 38 38 38 38 37 35 34 34 34 34 35 36 36 35 36 34 32 32 32
39 47 48 48 45 45 45 45 46 45 43 45 43 40 39 39 42 41 39 39 38 38 37 37 36 36 37 39 39 36 33 33 33 32 34 34 34 35 34 33 32 33 33 32
47 47 46 43 43 45 45 45 45 44 42 41 42 41 41 41 40 38 38 37 37 36 36 36 36 37 39 38 36 35 33 33 33 31 33 33 33 32 31 34 33 32 32 33
44 45 45 43 42 45 44 44 44 43 41 40 39 41 41 40 38 38 38 38 36 36 36 36 36 36 39 39 37 33 33 32 33 33 34 33 32 31 31 30 29 30 33 31
42 43 43 43 44 43 43 42 39 39 38 40 41 39 39 38 38 38 38 36 36 36 36 36 36 37 39 38 35 33 33 33 32 33 32 30 31 31 31 30 30 30 32 29
41 42 43 40 40 40 40 39 37 38 40 39 39 37 38 38 38 37 37 35 33 34 37 33 31 36 37 37 36 34 33 32 32 32 32 32 32 31 31 30 30 30 30 31
37 35 37 37 37 37 38 40 40 39 38 37 37 36 36 33 31 33 35 34 31 29 31 31 32 37 35 36 36 35 33 34 32 32 31 31 31 30 30 30 29 29 30 30
41 40 40 39 38 38 37 38 38 38 37 37 31 28 26 25 30 30 31 31 29 28 31 33 33 34 33 36 34 34 33 32 32 31 32 30 30 30 30 30 30 29 30 31
42 40 40 39 39 38 38 37 37 35 30 29 28 29 29 27 29 31 30 26 26 28 34 34 32 31 33 33 32 32 31 30 30 30 30 30 30 30 30 29 29 29 29 29
40 40 39 38 37 36 34 35 30 34 35 30 27 26 29 29 29 27 26 26 31 35 34 33 32 31 32 33 31 32 32 31 31 31 30 30 30 30 30 29 29 29 29 29
36 37 34 33 33 29 27 27 27 31 33 26 26 28 28 30 29 26 26 27 35 31 32 28 31 33 34 33 33 32 32 31 31 31 31 30 30 30 29 30 30 29 29 29
36 32 28 27 29 31 32 32 31 27 27 27 26 25 26 28 30 29 29 30 36 31 31 32 33 33 32 32 33 32 32 32 31 32 31 31 31 30 30 30 29 30 29 29
35 34 32 29 28 31 31 30 28 29 27 28 27 28 29 30 32 30 30 37 32 30 30 31 32 29 21 27 29 29 28 28 29 29 30 31 31 31 31 30 30 30 30 29
33 32 31 31 28 28 27 29 29 29 27 27 28 28 29 28 30 33 34 32 31 29 29 29 25 20 18 23 23 22 22 23 23 24 25 26 28 30 31 31 30 30 30 30
29 29 28 27 26 25 26 26 26 27 27 27 28 30 30 32 30 32 32 33 31 27 29 21 19 18 20 20 20 19 18 18 16 17 17 18 19 19 21 25 30 30 30 30
27 27 27 27 25 24 23 22 21 23 22 21 23 25 27 28 30 31 32 30 29 26 23 20 19 18 17 16 15 14 15 14 13 13 14 15 15 16 16 18 19 21 25 28
24 23 24 23 23 21 19 18 17 17 18 18 18 21 23 24 27 28 29 27 22 20 18 17 16 14 14 13 12 12 12 11 9 9 10 11 11 12 13 14 16 17 17 18

GFSNGP_sfc_temp_048.txt.gz
Temp
54 54 55 57 57 57 56 58 50 58 58 65 66 65 65 64 62 60 60 60 60 61 60 60 59 57 58 59 60 59 58 58 57 56 56 56 54 53 53 52 52 51 49 47
49 51 51 51 56 58 58 59 58 60 58 69 67 67 63 60 60 58 59 60 60 60 59 58 57 59 57 58 58 57 56 55 56 55 54 53 52 51 52 52 51 50 49 48
46 47 48 41 52 57 59 60 59 54 62 63 60 60 61 60 59 59 59 59 58 57 56 56 57 57 57 57 57 54 53 53 53 53 52 52 52 51 50 50 48 46 45 46
42 39 35 57 59 58 59 61 63 61 60 63 63 63 64 65 61 59 59 58 57 55 55 57 58 57 56 57 55 52 51 51 51 51 50 51 50 50 50 47 46 42 41 43
39 43 51 58 56 54 53 57 63 62 62 60 58 58 58 62 63 61 60 60 58 58 58 57 57 56 55 53 52 51 49 49 49 49 49 49 49 48 48 44 45 45 41 42
37 37 35 54 56 59 59 49 60 61 60 57 57 51 62 60 60 60 60 59 57 56 54 55 54 53 51 51 50 48 48 48 48 49 48 47 47 47 47 45 44 45 44 44
40 38 47 58 58 59 45 50 59 61 61 58 57 60 57 61 58 59 58 56 53 53 52 53 52 51 49 50 48 49 48 48 48 48 46 45 42 44 46 45 40 37 35 39
37 35 36 59 56 50 58 60 59 59 60 58 56 52 54 56 55 54 53 50 51 51 51 51 51 49 49 49 51 48 47 46 46 46 46 46 43 45 44 42 37 33 33 35
50 52 57 60 61 61 59 58 59 58 59 58 53 53 53 53 52 48 48 50 49 50 48 49 49 49 47 48 48 46 45 44 45 46 46 46 42 42 38 39 37 35 34 35
49 58 58 59 62 62 62 59 59 58 59 58 56 54 52 49 45 45 45 46 48 48 47 46 48 47 47 47 46 45 44 42 38 37 41 43 42 41 38 37 36 34 33 32
52 58 59 59 58 57 57 55 55 55 55 56 55 52 47 43 42 44 44 44 47 46 45 46 46 46 46 45 44 43 43 41 38 37 36 37 39 40 40 41 39 36 35 33
50 54 55 54 53 52 53 53 54 53 52 53 51 44 42 41 42 42 44 47 45 45 45 45 45 44 45 46 45 43 41 41 38 36 36 36 36 36 36 34 33 33 33 33
54 54 53 52 53 54 53 53 53 51 48 46 45 42 41 40 43 44 45 43 44 44 44 44 43 44 46 45 43 40 39 39 38 35 35 35 35 34 33 37 34 33 33 33
53 53 50 50 48 52 51 49 47 46 43 41 40 42 45 46 43 44 45 46 45 44 44 44 44 44 46 46 44 39 39 34 36 36 36 35 34 33 34 32 31 34 35 33
49 52 50 50 49 46 46 43 39 38 39 42 46 46 45 44 45 45 46 45 44 43 44 44 44 43 46 44 42 41 40 39 36 35 35 35 34 33 33 32 32 33 35 34
49 49 46 43 42 42 42 41 39 41 43 46 44 42 44 44 45 45 46 44 40 41 44 37 36 41 44 44 42 42 40 35 34 35 35 35 35 33 32 33 33 32 32 33
39 37 39 39 40 41 42 46 46 45 44 42 42 41 41 40 39 40 43 43 37 33 35 34 35 43 42 42 42 42 41 39 36 37 35 35 33 33 33 32 32 32 32 33
45 44 43 42 44 44 43 42 43 42 41 41 36 33 33 32 34 35 35 36 33 33 35 38 38 41 41 41 40 38 35 35 34 33 34 33 33 34 33 32 33 32 33 34
45 44 44 44 45 44 43 42 41 39 35 34 33 33 33 33 35 37 36 33 32 32 40 43 36 34 39 39 36 37 33 32 32 32 32 32 32 33 32 32 32 32 33 33
45 45 44 42 41 40 38 37 35 39 40 35 32 33 33 33 33 33 33 32 36 40 43 42 40 38 37 38 34 37 35 33 33 33 33 33 33 32 32 32 32 32 32 32
42 41 37 37 36 34 33 33 33 34 35 32 31 30 30 31 32 32 32 36 40 39 39 37 37 39 41 38 36 35 34 32 32 33 32 32 32 32 32 32 32 32 32 32
41 34 32 33 35 35 35 35 33 31 30 30 29 29 29 32 32 33 33 34 39 36 37 36 36 35 35 31 35 32 32 32 31 31 32 32 31 31 32 32 32 32 32 32
39 38 35 32 32 34 34 32 30 30 28 28 29 29 29 31 33 31 30 36 37 36 35 34 33 31 27 30 31 30 29 29 28 28 28 27 27 28 30 30 31 32 32 32
37 35 34 34 32 31 30 32 32 32 29 29 29 27 29 29 30 34 35 33 32 33 33 33 31 25 23 28 28 28 27 26 24 24 24 24 24 24 24 24 25 28 29 32
33 34 32 31 31 31 30 30 30 30 29 28 28 29 28 30 27 29 30 31 31 31 31 26 24 24 26 25 24 23 23 22 20 21 21 21 21 21 21 22 22 23 24 25
33 32 32 30 29 29 28 27 25 26 24 23 25 25 25 26 27 28 29 29 28 26 25 23 21 22 21 21 20 19 20 19 18 17 17 18 17 18 18 18 19 19 21 21
29 27 29 29 28 26 24 22 21 21 22 21 19 22 23 23 24 24 24 23 23 22 21 19 17 15 16 17 17 16 16 16 13 12 14 14 14 14 14 14 15 16 16 17

GFSNGP_sfc_temp_051.txt.gz
Temp
64 63 63 63 63 64 60 61 54 60 63 70 72 71 72 73 73 70 68 68 68 67 67 66 64 63 64 62 63 63 61 61 60 60 59 58 57 57 56 55 55 56 54 51
54 61 60 58 63 63 64 64 65 65 64 75 76 74 72 71 70 68 67 68 68 67 66 64 64 62 62 62 61 61 60 58 59 58 56 56 56 55 55 55 55 54 50 48
48 55 55 44 56 62 64 67 65 58 67 71 68 68 69 70 69 67 67 67 66 65 65 64 63 63 60 61 60 58 57 57 56 55 54 54 55 55 54 53 53 50 47 47
46 41 34 61 66 65 62 66 70 69 69 70 69 71 71 72 70 67 67 66 65 65 64 63 62 60 60 60 59 56 55 55 55 54 53 54 53 53 53 53 51 48 46 46
38 46 55 60 64 60 58 60 69 67 69 69 67 66 67 71 71 69 68 67 66 65 63 62 60 59 59 58 58 55 54 53 53 53 52 52 51 51 51 51 49 46 46 45
43 37 34 57 62 65 64 52 67 67 65 64 64 55 64 68 69 67 67 67 65 64 62 58 57 58 56 56 55 53 53 52 53 52 51 50 50 48 48 49 49 46 44 44
44 38 50 64 64 64 48 52 65 67 67 65 62 62 64 67 65 67 66 64 63 59 56 58 56 55 53 54 53 54 53 52 52 52 51 50 49 48 47 47 45 40 36 40
44 34 36 65 62 53 60 65 65 65 66 64 64 59 60 63 62 62 61 58 56 56 54 55 54 53 52 52 55 53 51 50 50 50 50 50 48 48 47 44 40 35 34 35
54 53 63 67 65 66 65 63 64 63 65 63 61 58 60 60 59 58 55 55 56 53 51 52 53 52 49 50 51 50 49 48 48 47 46 47 47 46 43 40 37 35 35 35
54 63 64 65 67 67 67 64 65 64 63 63 62 61 58 58 55 54 53 51 48 46 49 50 52 50 50 50 50 49 47 47 47 44 42 42 44 44 42 39 38 37 36 35
57 63 65 63 62 61 62 61 60 60 61 61 62 59 56 53 51 48 43 43 48 49 49 49 49 49 50 50 49 47 47 47 45 44 40 38 38 39 40 42 40 38 38 37
51 58 58 57 57 58 58 58 59 58 57 59 58 53 50 46 42 41 42 46 48 48 46 48 50 50 50 51 50 47 44 44 44 42 38 37 36 37 38 36 35 35 34 34
58 58 58 56 58 60 57 57 56 54 53 50 50 48 43 41 43 42 47 48 46 48 50 49 49 48 50 50 47 44 43 42 42 39 38 37 36 35 34 37 35 35 34 34
58 58 53 56 52 56 54 53 51 51 48 44 42 45 46 47 48 48 48 50 50 49 49 49 49 49 50 50 48 45 44 37 40 39 37 37 36 35 35 33 32 34 35 34
55 57 56 54 53 50 49 46 42 41 42 44 48 50 50 48 48 49 51 51 49 48 48 49 48 48 51 47 45 44 44 44 41 38 37 37 36 35 34 33 33 34 35 35
55 54 52 48 46 45 45 43 43 44 48 49 48 46 48 49 49 49 49 48 44 43 47 38 38 45 47 47 47 45 45 38 37 39 38 37 37 36 35 35 34 34 34 34
46 42 43 42 44 45 47 49 49 48 47 44 44 42 42 41 42 44 46 45 41 35 38 37 38 46 45 46 46 45 44 44 37 38 38 37 36 35 35 34 34 34 34 34
47 46 47 45 46 47 46 45 44 44 41 40 36 34 33 33 35 37 38 39 35 35 38 41 42 44 44 46 45 44 42 39 36 34 33 33 34 35 35 34 34 33 34 35
46 47 49 49 48 46 44 42 40 41 36 35 33 32 33 33 36 37 37 34 33 35 42 45 38 38 43 42 40 41 39 36 35 34 34 34 33 34 34 33 34 33 34 33
48 48 46 42 42 41 38 39 38 40 40 34 32 32 31 32 32 32 33 32 36 40 41 41 40 40 39 38 35 35 34 34 34 34 34 34 33 33 33 33 33 33 32 32
43 42 40 38 36 34 33 34 33 34 35 31 30 29 29 31 32 33 32 34 38 38 37 37 39 40 41 36 36 35 34 32 32 32 32 32 32 32 32 32 32 32 32 33
41 35 33 35 37 37 36 36 34 31 30 29 29 29 28 31 32 33 34 34 38 34 35 36 38 36 37 33 34 33 33 32 31 29 29 29 29 29 29 30 30 31 31 32
41 38 35 33 34 36 36 34 31 31 29 28 28 27 28 30 32 30 29 34 33 33 33 33 32 31 31 31 32 31 30 29 28 27 27 27 26 25 25 25 25 26 27 28
40 39 37 36 35 34 33 35 34 34 30 30 30 28 28 27 28 31 32 31 30 29 30 27 26 27 28 29 29 28 27 26 25 24 25 25 24 24 24 23 22 24 24 24
37 37 36 34 35 35 34 33 33 33 30 30 29 30 29 30 26 28 28 28 27 27 26 24 22 22 24 23 22 22 23 21 20 20 20 21 21 20 21 20 20 20 21 22
37 37 35 33 32 33 31 30 28 29 27 27 27 27 27 27 27 26 25 25 24 24 23 22 20 19 20 20 19 18 19 19 17 16 17 17 17 18 17 16 16 17 17 18
32 32 34 33 32 30 28 26 25 24 26 22 22 25 26 25 24 24 23 22 22 21 21 20 19 18 16 16 16 15 15 15 14 14 15 15 15 14 13 13 14 15 16 16

GFSNGP_sfc_temp_054.txt.gz
Temp
63 65 65 62 62 64 61 61 51 56 59 67 71 69 71 73 72 72 71 71 69 68 66 66 63 61 61 59 59 61 59 58 55 55 55 54 52 52 52 51 51 50 49 47
55 62 62 57 62 62 63 63 63 63 62 73 74 74 71 71 72 70 69 69 69 68 67 65 62 61 61 59 60 59 58 55 55 54 53 51 51 50 50 50 50 49 47 45
45 55 53 42 55 59 62 65 64 56 64 72 69 69 69 69 71 69 69 68 68 67 66 63 62 62 59 60 58 57 55 55 55 53 52 50 51 51 49 47 47 46 44 43
43 40 34 57 68 67 62 64 67 67 69 71 69 70 71 71 69 68 69 68 67 65 64 63 62 60 58 59 57 55 54 53 53 52 50 50 50 49 48 47 45 44 41 42
35 42 52 58 64 61 59 58 67 64 66 68 66 67 66 71 71 69 68 67 66 65 62 61 59 59 58 56 56 54 52 52 52 50 49 49 48 46 45 44 44 42 42 40
41 35 33 56 63 67 66 48 66 66 64 64 64 51 59 67 68 68 69 67 64 62 61 58 57 57 55 53 53 51 52 51 50 50 49 48 46 45 44 42 43 41 39 38
41 36 46 64 65 66 46 49 64 65 65 64 60 58 63 66 66 67 66 64 62 59 56 56 55 53 50 50 51 53 52 50 50 50 48 47 46 45 43 42 40 35 33 34
43 34 34 66 62 53 59 64 64 65 64 60 59 59 62 63 62 62 56 56 57 55 54 53 51 49 49 49 52 51 50 49 48 48 47 47 43 43 44 40 35 31 31 32
49 47 62 67 64 65 66 63 64 62 64 64 61 59 61 59 57 54 54 54 55 51 48 48 50 50 47 47 50 49 48 47 47 48 46 44 41 39 38 37 32 31 33 31
54 63 64 65 66 65 65 62 62 62 61 62 60 61 58 56 54 52 52 47 46 44 45 47 50 50 48 49 49 48 46 45 45 43 42 41 40 38 35 35 31 32 32 31
58 63 65 60 59 60 61 61 61 61 61 60 61 58 55 52 49 46 44 44 46 46 46 47 49 47 48 50 49 46 45 44 42 41 39 36 38 37 35 35 34 32 32 30
50 57 57 55 57 59 58 58 59 57 54 55 55 51 48 44 44 44 43 45 46 48 46 46 48 49 50 50 50 46 42 41 37 35 35 36 36 35 37 36 35 36 35 32
57 59 57 56 58 59 55 54 54 52 51 48 48 46 45 42 43 43 46 47 48 47 49 49 48 48 50 49 46 42 39 37 36 35 34 34 35 34 32 35 36 35 35 35
59 58 53 56 50 53 52 51 49 48 47 45 44 45 45 46 46 47 48 50 50 49 48 48 48 48 50 50 46 40 39 36 37 37 35 35 34 34 34 32 31 32 34 34
56 57 54 53 51 48 48 47 44 43 43 44 48 49 49 48 47 48 49 49 48 47 47 47 44 42 46 45 43 40 40 39 37 37 35 35 34 33 33 32 31 31 32 31
55 54 52 48 46 45 45 45 44 45 48 46 44 43 44 44 44 45 46 41 38 37 41 36 35 39 41 44 44 43 42 38 35 36 34 34 34 33 33 33 32 31 31 31
47 43 44 43 44 45 47 48 47 45 43 39 38 36 37 36 38 37 39 38 36 33 35 35 36 43 40 43 42 41 41 40 37 34 33 32 32 33 32 32 32 32 32 33
50 48 48 47 46 45 44 43 41 39 36 36 33 30 29 29 32 33 33 34 32 32 35 37 37 36 38 41 40 38 37 37 37 33 32 31 31 31 31 30 30 30 31 32
46 46 48 48 47 44 41 39 37 36 32 31 29 30 29 29 31 32 33 29 30 33 35 36 34 35 36 37 36 36 34 33 33 32 32 32 31 31 31 31 31 31 32 31
47 46 44 42 40 37 35 35 36 35 33 30 26 26 27 26 26 27 29 29 33 32 32 34 33 34 34 35 34 34 33 32 32 32 32 31 31 30 31 31 30 30 31 31
42 39 36 35 33 33 31 30 29 31 31 25 25 24 23 25 27 27 29 30 32 30 31 30 32 28 29 29 29 32 32 31 31 31 30 29 29 28 27 27 26 26 26 28
38 34 33 34 34 33 33 33 31 27 26 23 21 20 21 26 26 27 26 27 29 27 28 29 26 23 25 25 28 29 30 30 29 28 27 26 25 24 24 24 23 23 24 24
37 35 34 32 32 34 33 32 27 26 24 23 23 24 25 27 28 25 23 28 28 26 27 25 20 18 21 24 24 24 24 23 22 23 23 23 23 22 22 21 21 21 20 21
37 37 35 35 34 34 32 33 34 32 25 27 25 22 26 25 25 28 27 25 24 22 23 21 18 17 19 21 20 19 20 18 17 18 18 19 19 19 19 18 17 17 17 18
36 35 35 34 34 33 33 32 32 31 29 29 28 28 27 28 23 24 24 24 22 22 22 21 18 16 17 17 17 16 16 16 14 14 14 15 15 15 15 14 13 13 14 15
37 35 33 33 31 31 30 29 27 28 26 25 24 25 25 26 25 24 23 22 22 21 20 20 19 17 16 15 15 14 14 14 13 12 12 12 12 12 11 11 10 11 12 12
32 32 34 32 30 29 26 26 24 23 25 21 21 24 25 24 23 22 21 21 20 19 18 18 18 16 15 14 14 14 13 12 11 11 11 10 10 9 9 9 9 10 11 11

GFSNGP_sfc_temp_057.txt.gz
Temp
54 56 56 57 54 55 54 51 41 47 50 56 58 58 60 62 64 62 61 61 62 60 57 55 54 53 53 52 53 56 55 54 50 49 48 48 47 47 48 48 48 47 46 44
45 54 53 49 54 54 54 55 52 51 51 59 60 62 61 61 61 61 61 61 60 58 58 56 55 54 54 52 54 52 51 50 50 49 48 47 47 47 47 47 46 45 43 42
36 46 46 35 47 52 53 55 53 46 53 59 57 59 58 59 61 60 60 60 59 59 58 57 57 56 52 51 51 49 51 50 48 49 47 47 49 48 46 45 43 41 41 41
32 34 26 48 59 59 55 56 56 56 55 55 56 57 59 59 58 59 59 59 57 56 54 53 53 51 51 51 50 50 49 50 50 49 48 48 46 45 44 42 41 39 39 39
30 30 42 50 55 53 50 48 56 54 55 56 57 55 55 59 59 57 56 55 54 54 53 51 51 50 51 49 50 48 48 47 49 48 46 46 44 42 41 40 39 38 38 36
29 27 25 44 55 60 58 38 54 55 54 54 54 39 46 55 57 56 56 55 53 51 50 48 47 48 47 45 45 46 48 48 48 46 45 44 42 41 41 40 40 38 37 35
25 26 35 52 58 58 38 39 54 55 52 52 46 47 52 53 51 53 52 51 51 48 45 45 46 47 46 46 45 48 49 47 47 46 45 44 39 39 39 37 36 32 31 31
32 31 29 56 55 45 48 52 54 53 52 50 50 52 51 51 49 50 49 47 46 44 44 45 46 47 46 44 48 48 47 46 45 45 45 44 39 38 37 33 31 29 30 30
39 37 50 54 53 55 55 52 52 52 53 53 52 52 48 47 48 46 43 43 44 43 44 46 48 47 44 45 46 45 44 43 43 44 43 41 37 33 30 29 27 28 27 26
46 52 54 52 54 55 54 52 53 53 53 54 52 49 47 46 42 41 42 41 44 44 44 45 47 47 45 45 45 45 42 41 40 38 38 37 35 34 30 25 26 30 30 30
48 49 50 50 51 52 53 53 51 50 51 51 50 46 42 40 40 41 42 43 45 43 42 42 43 43 44 44 43 42 41 39 37 36 34 32 33 31 30 31 32 32 29 30
37 49 47 46 50 51 49 49 48 46 43 44 43 40 41 41 42 42 41 44 43 42 42 43 43 43 44 45 44 41 38 36 32 31 30 30 29 31 35 35 33 35 35 34
48 51 49 47 48 50 47 46 46 44 43 41 41 42 42 40 41 41 43 42 42 43 44 43 43 42 44 43 41 38 34 33 32 32 31 31 30 30 30 33 35 35 35 35
53 51 45 46 43 46 45 44 44 43 42 40 39 42 43 43 42 42 41 42 43 42 41 41 40 39 40 41 39 35 34 33 32 32 32 32 31 31 30 29 28 29 32 34
48 50 46 46 45 44 43 42 39 38 39 39 41 40 40 39 38 39 39 39 38 37 37 37 35 35 38 37 36 35 35 35 34 34 35 35 34 31 30 30 27 29 30 28
47 46 45 42 43 41 41 39 38 38 38 37 36 35 36 36 36 36 36 33 31 30 32 27 29 33 36 37 36 36 35 34 35 36 35 34 32 31 30 30 30 30 29 30
40 38 39 40 39 40 40 40 38 36 35 32 31 30 31 31 31 31 31 30 28 25 28 28 30 33 32 35 34 32 32 32 32 34 33 33 30 28 30 28 23 24 26 24
46 45 45 43 40 37 36 35 34 32 30 30 28 25 23 23 26 27 27 28 24 24 28 30 30 30 31 32 30 29 30 30 29 29 31 32 30 30 28 25 23 23 27 27
46 45 45 43 40 37 35 32 30 29 27 26 24 23 21 19 26 27 27 20 21 23 26 29 28 28 26 27 26 25 24 25 27 28 29 31 31 29 26 23 27 27 28 27
41 40 39 36 34 33 31 31 29 28 28 25 20 18 20 17 16 16 18 22 25 25 27 27 26 24 23 24 22 25 25 26 27 28 27 28 27 26 25 25 24 23 22 23
35 34 31 30 29 28 27 26 26 27 27 19 18 13 12 15 15 12 19 22 25 24 25 22 20 20 21 20 23 21 22 21 21 22 23 23 23 22 21 21 20 20 20 20
34 31 29 29 29 29 28 28 27 22 21 17 11 10 10 21 15 19 14 21 24 17 21 20 18 14 17 16 19 17 18 16 16 17 17 18 18 18 18 18 17 17 17 17
33 32 31 29 28 28 28 26 21 20 18 15 12 14 16 21 23 18 15 23 23 17 21 15 9 12 11 14 14 12 14 11 11 12 13 15 14 15 15 13 13 13 13 14
32 32 31 31 29 28 27 28 28 26 16 20 14 12 19 12 10 20 22 15 10 9 9 10 8 8 6 8 10 9 10 11 8 9 11 12 12 12 11 11 10 10 11 11
32 32 31 29 28 27 27 28 26 26 24 23 21 24 22 21 11 14 11 11 13 11 10 12 10 6 -0 -1 2 1 2 6 7 6 7 8 8 8 8 9 8 8 9 9
30 28 28 28 26 25 25 24 21 20 18 13 13 9 8 12 14 14 10 10 11 11 7 5 7 7 1 -1 -1 -1 2 5 3 7 3 3 4 4 4 5 5 7 7 7
29 28 27 25 25 23 20 19 14 13 14 7 8 6 17 12 7 9 5 3 6 9 3 1 1 3 5 1 -1 2 -2 -1 -2 6 -0 -8 -3 -1 0 1 3 4 3 5

GFSNGP_sfc_temp_060.txt.gz
Temp
51 52 52 50 51 51 49 47 40 45 46 53 55 56 57 58 58 56 57 57 56 55 54 52 51 51 52 52 53 52 50 48 46 47 48 46 45 44 45 47 46 45 44 43
43 48 49 46 50 50 50 50 49 49 48 55 55 54 57 59 58 57 56 56 55 54 53 51 50 50 51 50 49 50 48 48 48 46 45 46 44 47 46 46 45 43 42 40
36 42 43 35 45 49 51 51 51 44 50 52 52 55 53 53 58 55 55 55 55 54 53 52 51 52 49 48 48 48 48 48 46 45 45 45 48 46 45 43 42 41 40 39
31 32 26 46 54 54 50 50 51 51 50 52 52 51 52 53 54 55 55 54 53 53 50 49 49 48 48 49 49 48 47 45 45 46 47 46 45 44 42 41 40 39 38 37
30 30 39 48 52 51 48 44 50 50 51 52 52 54 50 53 52 50 49 49 48 48 48 48 48 48 47 46 46 45 43 46 48 46 44 44 42 41 40 39 38 38 38 36
31 27 25 42 52 56 53 36 50 52 50 51 49 37 43 47 50 48 49 48 47 46 46 45 44 46 45 43 44 43 45 46 46 45 44 42 40 39 38 36 37 36 35 34
24 24 33 48 54 54 38 39 51 51 50 48 44 44 45 46 46 47 45 44 45 44 43 43 44 46 45 45 43 47 46 45 45 45 43 42 39 37 35 33 31 30 30 30
29 22 29 52 52 45 46 48 49 49 48 46 45 44 45 46 43 43 42 42 44 43 42 43 47 46 42 43 45 45 45 44 43 42 42 42 37 36 35 31 29 25 24 27
38 36 48 50 51 50 52 49 48 49 50 48 45 44 44 41 41 41 41 41 43 43 44 45 46 46 43 41 43 43 42 41 41 41 40 39 35 33 30 29 26 26 26 27
43 47 46 48 50 51 50 48 48 50 51 49 44 44 40 40 40 40 41 42 45 44 43 43 43 43 43 43 42 42 40 40 39 36 36 35 34 32 29 27 26 28 28 28
41 45 47 48 48 48 46 46 45 45 48 46 44 40 40 39 39 41 42 43 44 43 41 41 42 41 41 42 42 40 38 37 36 34 33 32 33 32 31 32 32 30 30 29
37 48 45 44 45 47 44 43 43 42 40 42 41 40 41 41 41 42 41 43 42 41 40 40 40 40 39 40 39 37 35 35 32 31 32 32 31 33 34 35 34 35 36 33
46 46 45 44 45 46 43 42 42 41 41 39 40 42 42 40 41 41 42 41 39 38 37 36 36 36 37 37 35 33 31 32 32 31 32 32 32 31 30 36 35 35 35 35
48 46 41 43 38 42 42 42 42 41 40 39 38 39 39 39 38 36 36 36 36 36 34 34 34 33 35 36 35 33 32 32 30 30 31 31 31 32 32 31 31 33 32 34
45 46 43 42 41 40 41 41 38 36 36 36 38 37 37 35 34 32 33 34 33 32 32 31 31 30 33 32 32 31 30 30 30 30 30 30 33 33 33 33 32 31 31 27
43 43 42 39 38 39 39 38 35 34 35 34 33 33 33 33 32 31 31 30 28 26 28 23 27 29 30 31 29 28 28 27 27 29 31 30 29 28 30 31 31 30 28 24
38 35 36 36 37 37 37 37 36 33 32 30 30 30 30 29 29 29 29 28 25 25 27 26 26 29 28 28 26 25 24 24 24 26 26 27 27 27 28 30 28 27 23 23
44 42 41 40 36 34 33 33 32 31 30 29 27 22 21 22 25 26 25 25 21 22 26 27 26 26 26 26 24 24 23 24 24 24 26 27 27 28 29 28 27 25 25 26
44 41 40 40 38 34 32 30 29 28 26 24 22 21 21 19 25 25 25 18 17 21 24 24 24 23 23 23 22 23 21 19 19 22 22 23 23 23 23 23 22 22 22 21
41 40 38 36 35 32 28 28 28 27 27 22 19 19 21 17 13 16 19 20 21 22 25 22 21 20 21 21 17 19 16 14 15 16 16 17 18 18 18 18 19 17 17 18
34 34 32 31 29 28 28 27 26 26 25 18 18 14 13 15 15 13 16 19 23 21 22 18 18 17 18 15 16 13 12 10 10 11 12 12 12 13 13 12 13 13 14 14
32 30 28 28 28 28 28 28 26 22 20 15 9 8 11 19 15 15 11 19 22 11 18 17 16 8 12 8 12 7 12 7 7 7 8 10 9 10 9 9 10 10 11 11
31 30 29 28 27 28 27 25 21 20 17 15 13 14 18 21 20 13 12 21 20 13 18 12 5 3 2 -2 -2 -4 -1 0 -0 2 5 6 6 7 6 7 7 8 8 9
31 31 30 30 28 26 25 26 27 24 18 18 14 11 18 10 7 18 19 10 5 4 3 5 1 3 -1 -6 -6 -7 -6 -6 -6 -2 -0 -2 -1 4 2 3 4 5 7 7
31 31 30 28 28 27 28 27 25 24 22 22 20 22 20 19 10 12 8 9 9 7 4 2 3 2 -6 -9 -9 -9 -7 -8 -9 -4 -8 -10 -7 -6 -4 -1 -0 1 3 3
29 27 27 28 26 26 25 23 19 19 16 11 10 4 8 12 12 11 6 4 6 7 2 -4 -5 -5 -6 -5 -7 -8 -7 -4 -9 -2 -8 -13 -10 -6 -8 -4 -4 -0 -1 -0
27 26 25 24 25 23 21 18 13 12 12 6 9 3 12 10 10 6 -2 -4 -4 1 -4 -4 -7 -4 -5 -4 -5 -1 -7 -8 -11 -6 -13 -17 -16 -13 -11 -7 -5 -2 -2 -0

GFSNGP_sfc_temp_066.txt.gz
Temp
44 46 47 47 47 45 43 42 38 42 41 48 51 51 53 53 52 51 52 52 52 50 49 47 47 48 49 50 50 52 51 50 47 46 46 46 45 45 45 46 45 44 42 41
39 42 44 41 46 45 46 45 43 43 43 51 51 50 51 51 52 51 51 52 50 50 49 48 47 48 49 48 48 50 48 45 46 46 46 45 43 44 45 45 43 41 39 39
36 39 39 35 41 46 46 46 46 40 46 49 47 47 43 44 47 51 50 50 49 48 47 47 48 48 46 46 48 47 46 46 46 45 45 43 45 45 43 42 41 39 38 37
32 32 25 44 46 47 45 46 47 46 46 48 46 43 42 42 43 46 47 46 46 45 45 45 44 44 44 45 44 45 46 45 45 44 44 44 44 43 41 40 39 37 36 35
32 30 38 43 46 45 44 44 47 45 45 45 45 45 42 42 41 40 41 41 41 42 42 42 42 43 43 44 46 45 44 45 45 45 44 43 41 40 39 37 36 35 34 33
27 26 26 40 46 50 49 38 48 47 45 45 45 39 41 38 39 39 40 40 40 41 42 41 41 44 45 44 45 43 44 45 45 44 43 41 40 39 36 34 34 33 32 32
23 25 34 45 49 50 37 38 46 48 46 45 44 41 37 38 38 39 39 39 41 41 40 41 43 45 41 42 43 45 45 44 44 43 41 41 38 35 34 32 32 30 30 30
26 24 31 49 47 43 45 43 46 47 46 42 38 37 37 38 37 38 38 40 42 41 40 40 41 43 43 42 43 44 43 42 42 41 39 38 34 34 33 31 29 28 26 29
39 38 47 47 48 48 48 47 47 47 44 42 38 37 37 36 37 37 38 38 41 40 40 42 44 41 39 37 39 40 40 38 36 36 34 33 32 31 30 29 28 29 29 29
41 45 45 46 46 46 47 47 46 45 44 43 39 38 36 36 37 37 38 39 40 41 38 37 36 36 36 37 37 36 33 32 31 30 31 30 31 31 28 26 27 30 30 30
39 43 44 46 45 45 43 44 44 43 43 41 39 37 37 36 36 37 38 38 39 37 35 34 35 34 35 34 34 31 31 30 29 29 28 28 30 29 30 30 29 30 30 31
40 49 48 46 44 43 43 42 43 41 39 39 39 37 38 37 38 38 38 38 36 36 35 33 32 31 31 32 30 29 29 28 27 27 27 27 27 27 32 33 34 34 34 32
50 48 42 42 41 42 40 39 40 40 39 37 38 39 39 36 36 37 37 37 35 33 32 30 28 28 29 29 29 28 25 27 25 25 25 24 24 25 23 27 31 32 32 33
44 45 40 41 39 40 39 39 39 38 38 38 36 36 36 35 35 34 33 33 32 30 28 28 27 26 28 28 27 25 24 23 21 21 21 23 24 25 25 24 23 25 30 29
40 42 41 39 38 36 37 37 34 33 34 34 36 34 34 33 32 31 31 31 30 28 27 27 25 25 27 27 26 25 24 22 21 20 24 25 25 22 21 21 20 21 22 23
40 41 40 36 35 36 37 35 33 32 34 33 32 32 31 31 30 30 30 30 27 24 24 19 23 25 26 25 24 23 23 21 19 20 20 20 20 19 19 18 19 18 18 18
36 34 34 34 35 35 35 36 34 33 32 31 30 31 30 29 28 27 26 26 23 22 23 21 22 25 25 24 23 21 19 19 16 19 16 16 16 15 15 14 15 13 14 16
42 40 40 38 36 33 32 32 33 32 31 30 29 27 27 26 25 24 23 23 21 20 22 22 22 24 23 21 21 19 15 14 14 13 13 12 11 13 10 9 10 9 9 12
40 38 38 37 36 34 32 30 29 29 27 27 26 24 24 24 25 24 23 18 17 20 20 21 22 20 20 18 17 14 11 5 7 11 7 6 5 6 5 2 6 5 5 7
38 37 35 33 33 30 27 28 29 28 27 25 23 22 21 20 20 19 19 19 21 21 21 19 19 18 16 15 10 13 6 1 6 3 -0 2 -5 -3 -0 1 3 2 -1 2
32 32 30 29 27 27 27 27 26 26 25 24 22 21 20 19 18 17 18 18 20 20 19 17 16 15 15 11 11 3 -2 -5 -6 -6 -6 -9 -10 -5 -6 -7 -6 -5 -4 -0
29 27 26 27 26 26 26 26 25 22 21 19 19 19 18 18 16 16 14 18 20 14 17 16 14 5 9 4 7 -4 1 -3 -6 -10 -11 -12 -14 -14 -10 -12 -8 -4 -4 -4
28 28 27 26 25 25 25 23 21 21 19 19 18 19 20 21 20 16 14 19 19 12 15 11 4 1 -2 -8 -9 -11 -11 -11 -13 -13 -15 -18 -18 -18 -16 -12 -9 -10 -9 -7
27 26 25 26 25 24 23 25 25 23 20 21 19 19 19 15 12 18 18 9 5 2 3 3 -1 1 -5 -11 -12 -13 -14 -15 -17 -19 -14 -15 -21 -22 -16 -16 -13 -11 -10 -9
27 27 28 27 26 25 26 25 23 23 22 22 21 21 20 18 12 14 9 8 8 6 3 -1 0 -1 -11 -13 -15 -15 -13 -11 -15 -20 -18 -20 -21 -21 -19 -18 -17 -15 -12 -11
26 25 25 26 26 25 25 24 21 20 18 15 14 10 10 13 13 12 9 7 7 4 0 -5 -6 -8 -10 -12 -14 -14 -13 -3 -8 -16 -18 -19 -23 -19 -20 -17 -18 -15 -15 -13
24 24 23 21 21 20 20 19 17 16 14 11 11 8 12 12 10 10 3 -1 -5 -7 -8 -10 -7 -6 -6 -12 -14 -13 -11 -9 -7 -11 -18 -21 -24 -26 -22 -21 -19 -18 -15 -14

GFSNGP_sfc_temp_069.txt.gz
Temp
50 51 52 52 51 49 49 51 46 51 47 57 60 62 63 62 60 60 62 60 60 62 60 58 56 56 55 54 54 55 54 53 50 47 44 44 45 48 46 49 52 52 51 50
46 47 50 48 51 50 49 50 51 50 49 58 61 60 59 57 55 58 59 60 59 58 56 54 53 54 53 54 53 53 51 47 45 43 44 46 46 44 47 51 50 49 49 48
42 44 46 39 46 50 51 52 53 47 56 57 57 57 55 53 52 53 55 56 56 55 55 53 53 53 53 53 54 52 49 45 46 46 48 45 45 50 49 47 49 48 47 47
37 37 32 51 53 54 52 53 53 53 54 58 57 51 49 48 49 51 51 51 51 52 52 53 54 53 52 53 50 47 46 46 46 46 45 45 50 48 48 49 47 48 47 46
36 38 43 49 50 51 49 54 55 54 55 53 51 51 49 46 46 46 47 48 49 50 49 50 50 51 51 51 49 47 46 46 46 46 47 49 47 48 48 47 47 46 46 45
33 35 33 47 53 55 56 45 57 55 53 50 50 49 54 45 45 44 46 47 47 47 48 48 49 51 51 48 47 45 47 47 47 47 50 48 47 47 47 46 45 46 45 45
33 35 40 49 53 55 44 49 56 55 54 51 52 51 46 44 43 45 46 46 47 48 47 48 51 51 47 47 45 46 46 48 49 49 48 47 46 45 45 45 43 41 38 41
34 33 37 52 52 48 54 52 54 53 53 50 44 41 42 42 42 43 44 45 47 46 46 49 50 48 46 46 47 48 48 46 45 44 44 43 43 43 43 42 40 36 33 36
44 45 52 53 56 55 54 55 52 54 52 47 42 41 42 41 42 43 44 46 47 46 44 45 47 47 44 44 46 44 43 41 40 40 40 40 40 40 39 39 37 35 34 35
47 51 50 51 53 54 53 54 52 53 50 48 45 42 41 42 42 43 44 44 44 43 41 39 41 40 41 40 41 41 38 38 38 38 37 38 38 38 36 35 34 34 33 32
45 49 49 51 51 53 51 50 48 48 48 47 44 42 42 42 42 43 43 43 43 40 38 37 38 37 38 38 39 37 36 35 35 35 34 34 34 34 33 35 33 31 32 31
44 52 53 57 54 51 49 48 47 45 43 45 45 42 42 42 43 42 41 41 39 38 36 35 35 34 34 35 35 36 34 33 31 31 31 31 31 31 31 31 32 32 32 31
53 51 47 44 45 47 47 46 46 45 44 41 42 42 42 41 42 39 41 39 38 35 34 33 32 31 32 33 33 32 31 30 30 29 29 28 29 29 28 31 30 30 29 29
47 47 45 45 45 44 44 43 42 42 43 42 41 42 41 39 39 38 37 36 34 32 31 31 31 29 31 32 31 29 28 25 28 28 28 28 28 28 27 25 24 26 28 26
43 44 46 42 41 39 41 40 38 36 37 38 40 39 39 37 35 33 33 33 32 31 30 30 29 28 30 30 29 28 29 27 26 26 26 25 26 25 25 24 23 23 24 24
41 41 41 40 38 38 38 38 36 35 37 36 36 36 35 33 32 31 31 31 30 27 28 23 25 28 28 28 28 27 27 22 23 25 24 23 23 22 21 20 21 20 19 18
37 35 36 36 37 38 39 39 37 36 34 33 32 32 31 30 29 28 27 27 24 24 24 24 25 28 27 27 26 24 24 23 18 22 21 20 19 19 18 17 17 16 16 16
43 43 44 41 38 35 34 34 34 34 32 30 28 27 27 27 26 25 24 24 22 22 24 24 25 25 23 24 24 21 19 18 19 18 18 16 15 16 16 14 14 13 14 15
42 40 39 38 37 35 33 31 30 29 28 28 27 26 25 25 25 25 24 22 20 21 21 23 22 22 21 20 20 17 16 14 15 15 14 12 12 12 12 12 11 11 11 11
37 36 35 33 33 31 28 28 28 27 28 27 25 24 23 22 22 22 23 22 23 23 23 21 21 19 19 17 15 17 13 12 12 11 10 10 9 8 9 7 7 8 8 8
31 31 29 28 26 26 26 26 26 25 25 25 24 23 22 21 21 21 21 21 20 22 21 19 19 19 18 17 16 14 12 11 9 9 8 7 6 7 6 6 6 6 6 6
29 27 26 26 25 25 26 26 25 23 22 21 21 21 20 20 19 19 20 22 22 19 20 19 18 12 15 12 15 13 12 10 9 8 8 7 6 4 4 4 3 3 4 4
27 27 26 24 23 23 24 23 22 22 21 21 21 22 22 23 23 20 19 21 22 17 20 19 13 10 7 12 12 10 9 8 8 7 6 5 4 3 3 2 1 1 1 1
26 26 25 26 26 26 24 25 25 24 22 22 21 22 22 20 20 22 22 17 14 16 17 16 12 10 6 10 10 9 8 8 6 6 6 -2 3 2 2 -0 -1 -0 -1 -1
27 27 26 25 24 23 24 25 24 24 23 22 22 23 22 22 21 20 19 17 16 16 16 9 8 7 10 9 8 7 8 7 7 5 4 3 2 1 0 -0 -3 -3 -3 -3
26 25 26 26 25 26 25 24 22 21 21 19 19 18 19 19 18 18 16 15 15 12 13 11 10 10 9 9 7 6 6 6 6 6 2 2 1 -1 -2 -3 -4 -4 -5 -4
24 23 22 21 21 21 21 21 20 18 19 19 18 18 19 18 16 15 12 13 11 10 9 9 8 7 8 7 6 6 4 5 3 3 3 1 -1 -2 -4 -5 -5 -6 -6 -6

GFSNGP_sfc_temp_075.txt.gz
Temp
64 67 68 66 65 65 62 63 56 61 63 69 73 76 78 80 81 79 80 81 82 82 82 80 78 77 78 75 71 69 63 59 54 53 52 54 52 50 48 47 47 52 50 50
58 65 66 62 66 66 66 66 66 66 65 76 78 79 78 78 79 77 78 78 79 80 81 78 76 74 71 67 64 63 57 53 53 52 51 48 46 47 48 50 50 50 52 59
50 62 61 52 60 65 66 69 67 60 68 75 75 75 76 77 78 75 75 74 74 76 77 75 73 65 60 59 59 58 55 52 51 50 48 47 48 48 49 52 53 55 58 57
48 46 39 59 70 70 66 69 71 71 72 75 76 78 78 76 75 73 71 70 71 73 72 72 66 62 59 58 55 53 52 51 51 51 51 53 54 55 55 56 56 57 56 56
43 46 55 61 62 64 63 63 73 72 73 75 77 74 73 72 70 71 69 70 70 71 70 68 62 60 57 55 54 53 53 56 56 56 54 52 52 54 55 56 55 55 56 55
46 42 39 57 67 73 73 56 74 74 73 73 73 60 70 68 67 66 68 68 67 68 68 66 65 63 59 57 57 57 57 56 56 54 56 56 54 55 56 56 55 56 54 53
47 43 54 68 70 74 52 56 74 75 75 73 69 69 67 66 66 67 66 66 67 66 65 65 65 63 58 58 58 59 58 58 58 57 55 55 56 55 55 54 52 49 45 46
47 39 39 66 63 58 67 74 75 74 75 72 71 64 63 64 63 63 63 63 65 64 64 65 65 63 60 58 59 58 57 55 56 55 55 56 54 53 52 52 48 45 38 41
55 55 68 68 70 71 76 74 75 74 76 73 65 62 63 61 61 62 63 64 65 63 61 62 62 63 59 57 57 56 55 53 54 53 53 53 52 50 49 49 45 43 40 40
58 64 67 70 71 73 74 73 75 73 74 72 65 64 62 62 62 62 63 63 63 60 58 56 58 58 58 58 57 56 53 51 51 50 49 50 50 49 46 44 42 40 39 38
60 65 68 69 70 71 74 71 71 72 72 71 67 64 63 62 62 63 61 61 61 58 56 56 57 56 56 56 55 51 49 48 48 47 46 45 45 42 42 37 35 36 36 35
55 66 65 67 70 74 71 71 70 70 69 70 69 65 64 63 63 61 59 59 56 55 54 53 52 52 52 53 52 49 46 45 42 42 42 43 43 38 33 32 31 30 29 29
65 70 67 66 64 65 68 70 71 70 69 67 68 66 63 61 60 52 57 56 54 52 51 50 48 46 46 46 47 45 42 38 37 39 40 40 40 39 39 31 32 31 29 28
72 65 62 65 66 61 62 63 60 66 67 67 65 63 62 59 55 56 54 54 52 49 46 43 41 39 41 41 40 36 34 32 39 38 38 38 38 36 36 34 31 33 30 29
65 65 65 62 60 60 61 60 59 59 60 59 60 58 57 53 53 52 51 49 46 42 40 38 35 34 37 37 37 36 36 34 34 34 33 32 33 33 33 32 30 31 32 32
65 62 59 58 58 57 56 56 55 54 55 55 54 54 53 52 47 44 43 41 36 30 28 27 27 30 34 36 36 34 30 28 28 33 32 32 31 30 30 30 29 29 29 29
56 54 54 55 54 54 55 56 54 53 52 50 48 48 43 37 31 28 26 27 26 26 27 27 28 31 33 35 35 34 34 30 24 30 30 29 28 28 28 28 27 26 26 27
58 58 58 57 54 53 51 50 49 46 41 34 31 29 27 26 24 23 24 25 25 25 26 28 29 30 29 30 30 29 28 28 27 27 27 27 26 25 26 25 25 24 24 25
55 53 52 50 47 41 39 36 34 32 31 31 29 27 26 26 27 27 27 24 23 23 24 26 25 26 25 23 27 27 25 24 25 26 24 23 23 24 23 23 22 21 22 21
44 43 40 37 37 35 32 32 32 30 29 29 27 26 25 25 26 26 26 24 25 26 27 26 26 25 24 23 23 26 24 23 23 23 23 20 21 21 20 20 20 20 19 18
32 31 30 30 29 30 30 30 30 29 29 28 27 26 25 25 25 25 23 22 24 25 25 25 26 26 25 25 26 25 23 22 22 21 21 20 20 20 19 19 18 17 16 16
29 28 28 28 28 29 29 30 29 27 27 26 25 25 24 24 25 25 26 24 25 25 27 27 25 20 22 18 25 23 22 22 20 20 19 19 18 17 16 16 15 15 14 14
29 29 29 29 28 28 29 28 27 27 26 26 26 27 29 29 29 27 24 27 27 25 28 24 20 18 18 21 21 21 20 19 18 18 17 17 16 15 15 14 14 13 13 13
31 31 30 31 31 30 26 27 27 27 27 27 26 28 29 27 26 28 27 24 24 24 23 21 20 18 15 21 20 19 18 18 18 17 17 15 16 15 14 13 12 13 12 11
32 32 32 31 30 29 30 30 30 29 28 28 27 28 28 29 27 27 26 23 22 24 22 17 16 16 20 19 19 17 17 17 16 15 14 14 13 13 13 13 12 11 10 9
30 30 31 31 31 31 30 30 29 29 28 25 25 26 26 26 26 25 23 22 22 21 21 20 19 18 18 18 17 16 16 16 15 14 12 12 12 12 11 11 11 10 9 8
30 30 29 28 29 28 28 27 25 23 25 26 23 25 24 24 23 23 22 21 21 20 20 19 19 17 16 15 14 15 14 14 13 12 11 11 10 10 9 9 8 7 6 5

GFSNGP_sfc_temp_078.txt.gz
Temp
62 64 65 63 62 63 60 62 54 59 60 67 71 73 74 76 76 78 79 80 79 79 77 77 76 75 75 66 63 62 59 56 53 51 51 51 50 50 50 50 49 48 48 48
55 62 63 60 65 64 64 64 64 64 63 74 76 77 75 77 77 77 77 78 78 79 78 76 74 72 65 62 59 58 54 51 51 51 50 50 49 48 47 47 47 48 49 49
46 59 58 48 59 63 65 67 65 58 66 73 72 74 74 75 76 76 77 76 75 75 76 73 65 62 58 57 56 54 51 51 50 49 47 46 47 48 47 46 47 47 48 49
44 44 37 58 69 68 64 66 68 69 71 73 73 76 78 77 74 74 74 73 72 73 70 64 61 58 57 57 54 51 50 49 49 48 47 47 48 48 47 49 49 49 50 52
40 43 53 59 63 63 60 60 70 68 71 73 76 73 73 75 73 71 71 71 71 71 66 63 59 58 54 53 52 51 49 49 49 49 49 49 50 51 51 51 51 50 50 49
41 38 36 54 66 69 68 51 70 71 69 70 73 58 65 68 69 68 69 69 69 68 61 59 58 56 54 51 51 50 51 51 53 53 52 51 51 51 52 52 52 51 49 45
41 39 49 64 67 68 49 51 70 73 72 71 68 66 66 66 66 68 67 67 68 66 63 60 58 57 54 53 53 55 57 55 54 53 53 53 52 51 51 49 45 38 36 38
43 36 37 65 62 55 61 67 71 72 72 69 65 64 64 65 64 65 65 64 65 63 63 63 62 59 56 56 58 57 55 54 55 54 54 54 50 49 49 45 39 35 33 35
51 50 63 63 65 67 69 69 69 72 73 72 63 63 64 63 63 63 64 63 65 63 60 60 61 60 57 56 57 55 54 53 52 52 52 52 49 45 42 42 37 34 33 32
53 59 60 60 59 68 70 67 73 74 72 70 64 64 62 63 63 63 63 63 63 60 58 56 59 59 56 56 55 54 51 49 49 48 47 47 47 44 38 36 34 33 32 31
58 62 63 66 63 68 69 72 70 72 72 70 67 64 64 63 63 62 62 62 61 58 55 54 56 56 56 56 54 51 48 47 45 43 42 39 36 34 32 31 31 31 30 30
52 63 60 63 69 71 68 69 71 69 68 69 69 65 65 63 63 62 60 60 58 56 55 54 53 52 53 53 51 47 45 41 37 36 36 37 34 31 33 31 31 31 30 29
64 68 65 64 65 65 63 67 69 69 69 68 68 67 64 62 61 53 59 56 54 53 51 49 46 43 42 41 43 40 35 35 35 35 34 34 34 33 29 30 32 31 30 29
69 68 60 64 61 62 63 63 63 67 68 66 65 64 63 60 56 56 55 54 52 47 44 41 39 37 39 38 36 34 34 32 33 33 32 32 31 31 31 30 27 28 30 29
65 65 64 61 62 61 62 62 60 59 60 59 61 59 57 54 53 51 49 47 43 39 37 35 32 31 33 34 33 31 29 29 30 29 28 29 30 30 29 29 28 27 28 27
69 66 61 59 59 58 58 58 55 54 56 55 54 52 51 45 40 37 37 36 32 28 27 26 26 28 33 33 28 27 27 27 28 30 29 29 29 28 27 27 26 26 25 24
56 54 56 56 55 56 56 56 54 53 50 42 36 33 32 30 28 26 26 27 26 25 25 25 25 27 29 32 32 30 30 26 25 28 28 27 26 25 25 24 24 23 22 19
58 57 59 57 54 48 41 38 39 36 33 31 30 28 26 25 23 23 24 25 24 23 24 25 26 27 27 28 28 27 26 26 26 25 24 24 21 22 22 22 22 21 20 21
54 50 47 45 42 38 35 32 31 30 29 28 26 24 24 24 25 25 25 23 22 21 22 26 26 26 24 24 27 25 24 23 24 24 23 22 21 22 20 20 19 18 18 18
38 37 35 34 34 33 29 29 29 27 27 27 26 24 24 25 25 23 23 22 24 24 26 26 26 25 24 24 24 25 23 22 22 22 21 19 18 18 18 17 18 17 16 15
31 31 30 30 29 29 29 28 27 27 27 27 26 24 24 24 24 24 22 20 22 25 26 26 26 25 24 22 25 23 22 21 20 19 18 18 17 17 17 16 15 14 13 13
29 28 27 27 27 26 27 27 27 26 25 25 25 25 24 23 23 23 24 22 24 24 26 24 21 18 20 17 23 21 20 19 18 18 17 16 15 14 13 13 13 12 12 10
28 28 27 27 26 26 27 27 27 27 26 25 25 26 26 27 27 25 21 26 26 24 22 20 18 17 14 18 20 19 18 17 16 16 16 15 14 13 13 12 12 12 11 10
29 29 28 28 28 28 25 26 28 27 25 25 24 26 27 24 24 25 25 23 22 20 19 17 16 14 9 18 18 17 16 15 15 15 13 10 13 12 12 11 11 11 10 9
29 30 30 30 29 28 29 29 28 28 27 26 26 26 26 26 24 23 23 22 20 21 18 12 13 12 17 17 15 14 15 14 14 12 12 11 10 10 10 10 9 9 7 6
29 29 29 30 29 29 29 29 26 26 25 23 24 24 24 25 24 23 22 19 20 18 19 19 17 16 15 14 13 13 13 13 12 12 10 9 9 9 8 7 7 6 6 4
28 28 27 25 26 26 25 24 22 21 24 23 21 22 23 23 22 21 20 19 18 17 17 17 16 15 14 13 13 12 11 11 10 9 8 7 7 6 6 5 4 4 3 3

GFSNGP_sfc_temp_081.txt.gz
Temp
54 58 58 58 58 57 54 53 49 51 53 59 61 62 64 66 68 68 69 69 68 67 66 67 66 64 66 61 59 58 57 56 54 53 53 52 51 51 51 51 50 50 49 49
47 54 57 55 58 57 59 58 56 55 54 63 65 64 66 68 66 66 68 68 69 69 68 66 63 59 58 56 54 54 52 51 51 51 51 50 50 49 49 48 48 49 49 49
39 51 51 40 52 56 58 61 57 50 56 62 61 64 63 64 68 66 67 66 67 65 63 60 57 55 52 51 53 51 50 50 50 49 48 47 47 47 47 47 47 47 48 48
35 40 33 50 61 62 58 61 61 59 60 61 63 64 63 65 64 65 65 64 63 58 56 54 53 52 51 50 50 50 49 49 48 47 46 47 47 47 46 47 47 47 47 47
32 36 45 51 56 56 56 54 62 60 61 63 64 64 58 63 64 62 61 61 58 56 54 52 51 51 50 49 49 49 48 48 48 47 46 47 46 46 47 47 47 47 48 46
33 31 30 46 58 63 61 43 61 61 60 61 61 48 53 57 59 59 60 59 55 55 54 51 50 51 49 48 48 48 49 48 49 48 48 47 48 48 49 49 49 46 44 40
32 31 38 56 61 62 43 42 61 62 61 60 56 55 57 58 57 59 58 58 55 54 52 51 51 51 48 48 47 51 51 50 50 51 51 50 50 50 48 44 40 34 35 36
33 30 30 60 58 50 53 59 62 60 60 57 56 55 55 57 56 57 56 56 56 54 51 51 51 50 48 49 52 53 52 51 51 50 52 51 48 47 45 40 35 34 34 32
42 40 53 57 55 57 59 58 59 59 61 58 54 55 56 55 55 55 55 55 56 53 52 52 52 52 49 48 51 50 51 50 50 50 49 49 45 42 39 38 35 33 33 32
45 52 56 57 58 60 60 58 63 63 62 60 56 55 55 54 53 54 54 54 53 52 50 49 51 51 50 50 50 49 48 47 46 44 42 42 42 39 35 34 33 32 31 31
49 55 57 59 60 63 63 63 63 63 63 61 57 54 54 53 53 53 53 52 52 49 48 47 49 48 49 50 49 46 43 42 40 38 36 33 33 33 31 30 31 29 28 29
42 55 55 56 59 61 63 62 63 61 62 62 58 55 55 53 53 52 51 51 49 48 44 38 38 38 42 46 44 40 38 37 34 34 33 31 29 29 31 30 31 31 30 29
54 59 58 56 56 58 57 56 59 61 61 60 58 56 54 52 51 46 49 47 42 38 37 37 36 35 37 37 37 36 34 33 32 31 31 31 31 30 27 29 30 31 31 31
58 58 53 55 52 56 56 58 57 57 57 56 55 54 52 51 49 46 41 39 37 35 33 33 32 31 33 33 32 31 30 30 29 28 28 28 28 28 28 28 25 26 30 29
57 56 55 55 54 54 55 53 52 51 51 50 51 50 44 40 37 35 35 34 33 30 29 29 28 27 29 29 29 28 28 28 28 26 26 27 27 27 27 27 26 26 27 27
58 55 55 52 52 52 51 50 48 45 40 36 34 33 33 32 30 29 29 29 27 25 25 25 25 27 28 28 26 25 25 25 26 27 27 27 26 25 25 25 24 24 23 22
49 48 49 48 45 42 39 39 37 34 33 30 29 29 28 27 25 24 24 25 24 24 24 24 24 26 26 26 25 26 25 26 26 27 25 25 24 22 22 21 21 20 19 16
44 44 47 43 38 34 31 31 30 29 27 27 26 25 24 23 22 22 22 22 22 22 23 23 24 25 27 28 27 26 24 24 24 23 23 20 20 20 19 18 18 17 15 18
39 37 36 35 33 31 30 28 27 27 26 26 25 24 24 23 23 23 23 21 20 20 21 25 25 24 24 25 25 23 21 19 20 20 19 17 15 16 13 11 11 10 11 11
32 32 31 30 30 29 27 27 27 26 26 25 24 23 21 21 22 21 21 20 22 22 25 25 25 23 23 22 22 22 19 16 18 16 13 11 9 7 8 12 13 10 4 1
29 29 28 28 27 27 27 27 26 24 25 25 23 22 21 22 22 21 20 18 22 24 23 21 21 20 20 17 20 16 14 12 9 6 4 2 3 6 2 0 2 1 -1 -0
27 26 25 26 25 25 25 26 25 24 24 24 23 23 22 20 20 20 21 20 23 21 20 18 18 13 14 13 16 11 12 10 8 9 8 4 6 2 -0 -3 -3 2 -2 -6
26 26 25 25 24 24 25 25 25 25 24 23 22 22 22 24 24 19 17 22 21 18 18 15 11 9 7 9 11 9 6 3 2 4 7 2 -1 -1 5 8 5 -0 2 3
26 26 25 26 25 25 23 25 26 25 23 23 22 23 22 19 19 21 20 17 13 12 9 6 7 9 8 11 9 7 4 1 6 2 1 2 5 2 0 3 6 5 4 2
27 27 26 26 25 24 25 26 25 24 23 22 22 23 22 22 18 18 16 14 15 13 9 9 6 5 3 -0 0 1 2 2 4 7 5 -1 -6 -7 -1 3 -0 0 2 1
26 25 25 26 25 25 25 25 22 21 21 19 18 18 19 19 18 17 13 11 13 9 8 8 8 6 6 3 4 4 -1 -1 4 3 -3 -6 -6 -4 -5 -3 -2 -4 -6 -9
24 24 23 21 22 22 20 18 18 18 17 15 14 16 16 15 13 13 9 9 6 5 4 5 4 5 0 -3 -2 -5 -5 -2 1 -3 -8 -12 -11 -5 -7 -11 -14 -12 -11 -11

GFSNGP_sfc_temp_084.txt.gz
Temp
49 53 54 53 52 55 54 51 45 49 49 54 58 60 62 64 63 63 65 65 64 63 62 63 63 65 66 65 64 64 63 58 58 56 57 56 55 54 53 52 52 52 51 51
42 50 54 49 54 55 54 54 53 53 51 61 66 59 61 63 63 63 64 63 65 65 63 62 61 60 57 55 55 58 57 54 52 51 52 52 51 50 50 50 50 50 49 49
35 47 49 38 46 51 54 56 54 47 54 58 58 60 61 62 63 63 64 64 63 63 61 59 56 56 54 53 53 53 51 51 50 50 49 48 49 48 48 48 48 48 48 48
30 37 32 44 56 59 56 58 58 58 58 61 61 61 60 61 61 61 61 60 58 54 51 50 51 52 52 52 51 51 50 49 49 48 47 47 47 47 47 47 47 47 46 46
32 31 41 48 52 54 53 52 59 58 61 62 60 57 56 59 58 59 59 58 54 52 50 50 50 51 51 50 50 50 49 49 49 48 47 47 46 46 46 47 46 45 46 44
32 28 27 42 55 59 60 44 60 61 59 59 58 46 52 57 58 56 55 54 51 50 49 49 48 49 49 48 49 48 49 48 48 48 47 46 46 46 47 47 46 44 42 40
31 31 35 49 55 60 42 42 59 62 62 58 55 54 58 57 57 55 54 52 51 50 48 47 48 48 46 46 46 49 49 49 49 49 48 48 47 47 46 43 40 37 35 36
31 27 28 54 54 48 50 56 57 59 58 59 56 54 54 55 55 54 51 50 50 49 47 47 48 47 45 44 47 49 49 47 49 49 50 49 46 44 42 39 35 34 32 31
37 37 50 54 54 55 56 56 57 56 59 57 53 53 54 53 53 52 51 50 51 49 48 48 48 47 45 48 50 49 48 48 48 47 47 46 43 40 38 37 35 33 32 30
42 50 52 54 57 59 59 59 60 59 57 54 53 52 52 52 50 50 51 49 50 49 47 45 46 47 46 47 47 47 44 41 40 38 38 38 38 37 34 33 33 32 31 29
44 51 55 56 58 59 61 61 61 59 58 58 56 53 51 50 50 49 48 48 47 42 38 38 41 44 46 45 43 40 39 38 36 35 34 31 30 31 31 30 31 30 29 30
40 53 52 57 58 59 58 58 59 61 59 56 56 53 52 50 49 48 46 41 38 37 36 35 36 37 40 42 42 38 35 34 32 32 31 31 30 28 31 31 31 31 30 28
52 58 56 56 54 56 56 55 56 57 57 58 54 54 51 47 46 39 39 37 35 34 34 33 32 32 35 35 35 33 31 31 30 30 30 30 29 29 27 29 29 29 28 31
56 55 50 52 51 54 54 53 52 51 52 51 50 49 45 39 37 35 34 33 33 31 30 29 29 29 32 33 32 31 30 29 29 28 28 28 27 27 27 27 25 26 29 28
55 55 54 52 52 51 51 49 43 40 41 40 42 38 36 33 31 30 31 31 30 29 29 29 28 27 29 29 28 27 28 27 26 26 26 26 27 26 26 25 25 24 25 25
52 52 51 50 49 47 45 41 36 34 33 31 30 29 30 29 28 28 29 29 27 24 24 24 24 27 27 27 26 25 25 25 26 26 25 25 25 24 23 22 22 21 20 20
46 44 44 40 38 36 35 34 32 31 29 28 28 27 27 25 24 23 22 23 23 22 23 23 23 25 27 26 25 25 25 25 24 24 23 22 21 20 20 19 19 18 16 16
41 41 41 38 34 30 29 29 29 28 26 26 25 24 23 22 20 20 21 21 21 20 21 23 24 26 26 26 25 24 22 22 21 20 19 17 18 18 16 15 15 14 13 16
36 34 33 32 31 29 28 27 27 27 26 25 24 22 22 22 22 22 22 20 19 18 20 24 24 23 23 24 23 20 18 16 17 17 16 13 11 13 10 10 12 10 10 10
31 31 30 29 29 28 26 27 26 25 25 24 23 22 20 20 20 20 20 19 20 21 24 22 22 20 21 20 19 18 15 13 14 11 8 7 3 2 4 7 6 2 -0 2
28 28 27 27 25 26 25 25 25 23 23 23 22 20 20 20 21 20 19 17 19 21 20 18 18 18 18 17 16 13 10 8 5 5 5 3 -1 1 -0 -2 0 0 0 2
26 25 24 25 24 24 25 25 25 23 22 22 21 20 19 19 19 19 20 18 19 18 18 16 15 11 14 13 12 8 8 6 3 -0 0 2 -0 -2 -2 -0 4 4 2 -1
25 25 25 24 23 23 24 24 23 22 21 22 21 21 21 21 22 18 14 18 18 14 15 12 9 9 7 7 6 3 1 0 2 1 1 -1 -7 -7 -5 -6 -6 -4 -1 0
25 25 24 25 25 24 22 23 23 23 22 21 21 20 19 16 16 17 16 11 8 9 9 8 7 4 1 0 -1 -2 -3 -5 -7 -9 -5 -6 -13 -13 -11 -9 -2 -2 -8 -9
25 25 25 24 23 22 22 23 22 22 21 20 20 20 20 19 14 14 14 14 13 11 9 5 3 -0 -2 -5 -7 -10 -10 -10 -8 -11 -14 -15 -15 -11 -12 -14 -16 -15 -14 -13
25 23 24 25 23 23 23 22 19 19 18 15 16 16 15 15 13 12 10 9 9 6 4 -1 -3 -5 -8 -8 -10 -8 -7 -5 -11 -12 -16 -15 -15 -15 -17 -16 -17 -16 -16 -16
22 22 21 20 20 21 21 19 15 14 14 13 12 13 12 11 8 7 3 3 -0 -2 -7 -10 -10 -7 -9 -9 -10 -12 -11 -12 -14 -15 -18 -16 -18 -20 -21 -22 -21 -19 -17 -17

GFSNGP_sfc_temp_087.txt.gz
Temp
45 50 52 51 50 51 47 47 43 46 47 54 55 57 60 62 62 61 61 60 60 61 62 63 62 63 64 63 63 62 61 61 61 61 59 57 57 57 58 58 57 55 54 53
40 46 51 50 52 52 50 49 48 50 50 57 60 59 58 61 62 60 62 62 61 61 61 60 60 61 61 61 61 60 60 59 54 54 55 55 55 55 52 52 52 53 52 51
33 44 44 36 46 50 53 51 49 45 51 57 55 57 58 59 60 60 61 62 62 60 62 62 57 55 54 52 53 54 53 52 51 52 50 50 51 51 50 50 50 50 50 49
31 36 29 43 53 56 52 56 56 56 58 58 60 60 59 60 60 60 60 60 58 55 52 51 53 52 52 52 52 51 51 50 50 50 49 49 49 49 48 48 48 48 47 48
31 32 37 42 48 50 48 48 57 57 59 60 59 55 55 56 58 59 58 56 54 51 49 51 51 52 51 50 51 51 50 50 49 48 48 47 46 46 46 46 46 46 46 44
32 28 26 38 52 56 56 41 58 60 58 57 56 47 53 57 55 57 54 52 49 48 50 50 50 52 51 49 50 48 48 48 48 48 47 46 46 46 46 46 44 42 39 39
32 30 33 45 50 54 36 39 54 60 58 56 54 55 57 55 54 52 51 49 49 48 48 48 49 50 48 49 47 48 49 49 48 48 47 47 46 46 43 41 38 35 33 34
31 27 26 50 50 42 47 52 56 57 61 56 59 53 53 54 52 51 49 49 48 47 46 46 46 46 46 46 48 49 48 48 48 48 48 46 43 41 40 37 34 32 31 30
37 34 45 50 54 56 56 55 55 55 60 59 53 52 53 50 50 50 49 48 49 47 46 45 46 46 44 47 49 48 45 42 42 42 41 42 40 38 36 36 33 32 30 28
40 46 47 50 53 54 56 57 60 59 57 55 53 52 51 50 49 48 48 47 47 45 42 41 43 44 47 46 44 42 39 38 38 36 35 36 35 35 33 33 32 32 30 28
41 47 49 54 55 55 58 60 59 60 59 55 54 52 51 48 46 46 43 42 42 39 38 39 41 41 42 42 41 38 37 36 34 33 31 30 30 30 30 30 31 31 30 29
39 50 48 51 57 57 55 57 58 59 59 56 55 50 50 46 45 40 38 38 36 35 35 35 36 36 37 39 38 35 32 32 31 31 31 30 29 28 31 30 30 30 30 29
48 53 52 52 54 55 55 51 54 56 56 52 52 49 45 38 37 36 35 34 32 32 32 32 32 32 33 34 34 33 31 31 31 31 30 30 29 29 27 28 30 30 29 29
50 51 48 51 51 50 50 47 46 45 46 45 43 41 38 35 34 32 30 30 31 30 29 30 30 29 31 32 31 29 28 28 28 27 27 27 27 26 26 26 25 26 28 28
50 51 52 50 49 46 45 42 38 36 36 35 36 34 33 30 28 28 29 30 29 28 28 28 27 26 28 28 27 27 27 26 26 26 25 25 25 25 24 24 23 23 24 23
51 48 47 45 44 42 40 37 33 31 31 30 29 28 28 27 26 25 26 27 25 23 23 23 23 25 26 26 25 25 25 25 25 25 23 23 22 21 20 19 19 18 18 17
43 41 40 37 36 34 33 32 30 29 28 27 27 27 26 24 23 21 21 22 22 21 22 23 22 25 26 26 25 25 24 23 22 21 19 19 18 17 16 16 15 15 14 14
37 40 41 37 32 29 28 29 28 28 26 26 25 24 22 21 19 19 19 20 19 19 20 22 23 25 25 24 23 21 20 19 18 17 16 14 15 14 12 11 11 12 12 12
34 32 32 31 30 28 28 26 26 26 25 25 23 21 21 21 20 20 21 19 17 16 18 22 23 22 21 21 20 18 16 14 14 13 13 9 8 9 7 5 4 1 3 4
30 30 30 29 29 28 26 26 25 24 24 23 22 21 19 19 19 18 18 16 17 18 21 21 20 19 18 17 17 15 12 11 11 8 5 5 1 -0 0 2 3 3 -1 2
27 27 27 26 25 25 25 25 24 22 22 22 20 19 18 19 18 18 16 14 17 19 18 18 17 16 15 14 13 9 8 6 3 1 -0 -5 -5 -5 -7 -8 -6 -4 -3 -2
25 24 24 24 23 23 24 24 23 21 20 19 19 19 18 17 16 15 16 15 16 16 16 14 13 10 10 10 9 5 5 3 0 -0 -4 -7 -9 -12 -11 -9 -7 -6 -5 -3
24 24 24 23 22 22 23 22 22 21 20 20 20 19 19 19 19 14 10 16 15 12 12 9 6 5 3 3 0 -1 -3 -5 -6 -9 -12 -16 -16 -18 -16 -14 -11 -12 -14 -13
23 24 23 24 24 23 20 21 21 20 19 19 18 18 17 13 12 14 13 10 9 8 7 5 3 1 -2 -4 -6 -7 -8 -10 -14 -17 -14 -16 -21 -20 -18 -19 -17 -18 -17 -16
24 24 23 22 21 20 21 21 20 19 18 18 17 18 18 17 12 12 12 10 9 5 2 -0 -1 -5 -8 -10 -9 -11 -15 -17 -18 -20 -21 -21 -21 -22 -22 -22 -22 -21 -21 -20
24 22 22 23 22 21 20 20 17 17 16 13 13 12 12 12 11 10 7 6 5 1 -2 -7 -11 -11 -13 -13 -17 -17 -15 -12 -18 -18 -21 -20 -21 -19 -23 -20 -23 -22 -22 -20
21 21 20 19 19 19 18 17 15 13 14 12 9 9 8 6 5 4 1 -1 -5 -7 -10 -13 -14 -12 -15 -17 -16 -16 -16 -17 -19 -18 -22 -22 -23 -25 -25 -24 -23 -22 -20 -20

GFSNGP_sfc_temp_090.txt.gz
Temp
38 40 39 38 44 49 46 45 40 42 45 51 54 55 59 60 58 59 61 59 57 55 57 58 59 59 60 60 59 59 58 57 58 58 58 56 57 57 57 58 58 58 57 56
32 40 41 38 46 48 47 46 44 45 44 54 58 54 56 59 60 60 59 61 61 59 58 57 59 59 59 59 59 58 58 57 58 57 56 55 56 56 57 57 56 57 54 53
30 38 35 33 42 48 48 48 48 41 48 52 54 54 56 59 58 59 60 60 59 60 59 57 55 55 53 53 54 55 56 54 52 53 53 54 54 54 54 54 53 52 52 52
30 33 27 40 50 53 49 51 51 51 53 54 56 59 59 59 59 59 60 59 59 56 51 50 52 52 52 53 52 52 51 51 51 51 51 51 51 51 50 49 49 48 47 47
29 30 34 40 46 46 46 47 53 52 53 56 57 53 55 58 58 59 57 55 52 50 51 52 52 52 52 51 51 50 50 50 50 50 49 48 48 46 47 46 46 44 44 42
31 27 26 39 47 50 53 37 53 53 52 54 55 46 53 57 54 52 52 50 49 50 51 52 51 52 51 50 49 48 48 48 49 48 47 46 46 46 46 44 42 40 37 37
31 30 33 45 48 50 34 38 52 52 54 54 54 57 59 53 50 49 48 48 49 50 49 49 51 51 48 48 46 48 48 48 48 48 46 46 44 43 41 37 35 33 31 32
32 30 28 48 46 38 45 49 52 53 53 54 54 54 53 51 49 48 49 48 48 48 47 47 50 49 46 45 47 48 46 44 44 44 44 43 40 39 37 35 32 31 30 29
35 35 47 49 51 53 53 51 51 53 54 53 55 56 51 49 48 48 48 48 48 47 45 46 47 48 44 45 44 43 42 40 40 40 40 40 38 37 35 34 32 31 30 28
38 45 47 48 52 52 54 53 54 57 55 54 52 51 48 48 48 47 47 45 45 43 42 42 45 45 44 44 43 41 38 36 35 34 34 34 35 34 33 33 32 31 29 27
40 47 50 51 52 53 54 56 55 56 56 56 52 48 49 45 42 42 41 40 40 38 37 37 39 39 40 39 38 33 32 31 31 32 32 30 30 30 30 30 31 30 29 29
35 48 45 47 51 54 51 52 50 52 56 54 51 45 41 38 39 38 37 37 35 34 32 32 33 32 34 35 35 33 31 31 31 31 31 30 29 28 31 31 31 30 30 28
46 48 46 49 49 49 49 46 44 43 45 48 46 42 38 34 33 33 33 32 32 31 31 31 31 30 32 33 34 32 30 30 30 30 29 28 28 28 25 28 31 30 30 29
47 46 45 47 45 45 44 44 43 40 40 38 37 36 34 32 32 30 29 30 30 30 29 29 28 28 30 31 30 28 27 26 26 26 25 25 24 24 25 24 23 24 26 26
47 48 48 45 43 42 42 40 35 34 33 32 33 32 31 29 27 27 28 29 29 28 27 27 26 25 27 28 26 25 25 24 24 23 22 22 22 21 21 21 19 19 19 20
46 47 45 41 40 39 38 37 33 31 30 29 28 27 27 26 25 25 26 27 25 22 22 22 23 24 25 25 24 24 23 22 21 21 20 19 18 17 16 16 15 14 12 12
39 40 38 35 33 32 31 32 30 28 28 27 26 26 25 23 22 20 20 21 21 21 21 21 21 24 25 25 23 22 21 20 19 18 17 16 14 13 12 11 11 11 9 8
37 35 38 35 30 28 28 29 29 28 26 26 24 22 20 19 17 18 18 19 20 19 20 21 22 23 22 22 21 19 17 17 15 13 12 10 10 10 7 7 6 6 6 8
32 31 30 30 29 28 27 26 26 25 24 23 21 19 19 19 18 18 19 18 17 16 17 21 22 20 19 19 17 16 13 11 10 9 8 4 3 5 2 1 1 -2 1 2
29 29 29 28 28 27 25 25 24 23 23 21 20 18 16 16 16 16 16 15 17 18 20 19 18 16 15 14 13 12 9 7 7 3 2 -0 -5 -7 -4 -2 -1 -5 -8 -4
27 27 26 25 24 24 23 23 22 21 21 21 18 16 16 16 16 16 15 13 15 17 17 16 15 13 12 11 9 6 4 2 -0 -4 -5 -10 -9 -8 -11 -15 -13 -13 -13 -13
25 24 23 23 22 21 22 22 21 20 19 18 17 16 14 13 13 13 14 13 14 13 13 11 10 7 7 7 5 2 2 -1 -4 -5 -9 -11 -15 -19 -20 -19 -18 -17 -16 -17
23 23 22 21 20 20 21 21 20 20 18 17 17 16 15 16 16 11 8 13 12 10 9 6 3 2 -2 -1 -3 -6 -6 -9 -11 -15 -20 -22 -22 -23 -20 -19 -18 -21 -20 -18
22 22 21 22 21 20 17 18 19 18 17 17 16 15 14 10 10 12 10 7 5 5 4 1 -1 -2 -7 -6 -8 -10 -13 -17 -21 -23 -19 -21 -26 -24 -21 -24 -21 -21 -22 -20
23 23 22 21 19 18 18 18 17 17 16 16 16 16 16 15 10 9 8 7 7 3 -2 -6 -5 -7 -10 -12 -13 -17 -20 -22 -23 -23 -24 -24 -24 -25 -26 -26 -26 -25 -24 -23
22 21 21 21 20 19 18 18 15 14 13 10 10 10 10 10 9 7 5 3 2 -3 -5 -11 -15 -14 -16 -16 -20 -21 -19 -15 -20 -20 -23 -23 -26 -23 -27 -24 -26 -25 -24 -23
20 19 18 17 18 18 17 16 13 12 11 9 7 7 7 5 3 2 -1 -3 -6 -9 -14 -18 -17 -13 -17 -20 -18 -19 -19 -20 -22 -21 -26 -27 -27 -29 -29 -29 -27 -25 -24 -23

GFSNGP_sfc_temp_093.txt.gz
Temp
40 43 43 42 40 43 40 42 40 48 50 56 62 64 67 69 67 65 66 66 65 66 65 64 64 64 64 64 63 63 62 62 62 63 63 63 63 63 63 64 64 64 63 61
34 40 41 39 44 44 44 44 46 50 51 60 64 64 63 65 66 66 68 67 69 67 65 64 64 64 64 64 63 63 62 61 63 62 62 62 62 62 63 63 63 62 60 58
31 40 40 35 42 44 47 50 52 46 55 60 59 60 62 65 65 65 66 66 66 66 65 66 64 64 64 63 63 62 62 62 62 62 62 62 62 62 62 62 61 58 57 56
29 32 26 45 51 51 47 51 56 57 58 60 63 65 66 67 67 66 66 66 66 63 59 58 58 59 58 61 62 61 61 58 58 58 56 56 57 57 54 51 50 48 47 46
28 30 38 45 46 45 41 43 55 56 60 63 65 60 62 65 65 65 65 62 59 58 57 56 54 55 55 54 54 53 53 53 53 53 51 50 49 48 48 46 43 42 41 39
31 26 26 42 50 50 52 40 53 56 56 57 61 52 61 61 58 55 54 53 53 54 53 53 54 55 53 51 50 48 48 48 49 49 48 47 46 44 42 40 38 37 35 35
29 28 37 47 49 53 36 41 50 54 56 55 56 60 60 53 49 49 49 50 52 53 51 52 53 52 49 48 46 48 48 48 47 46 44 44 42 41 39 36 34 33 31 32
31 28 26 50 49 42 43 48 53 55 57 55 58 57 53 51 49 49 48 48 49 49 48 50 50 49 46 44 45 46 45 43 43 43 43 42 39 38 37 35 32 31 30 29
34 34 45 50 50 53 55 51 54 53 57 56 53 53 50 48 47 47 47 47 47 46 45 46 49 48 43 43 44 42 41 39 38 39 39 39 37 36 34 34 31 30 29 28
40 46 48 50 54 54 55 53 57 57 56 54 50 49 48 47 45 44 44 44 44 42 40 39 42 43 43 42 41 40 38 37 36 36 35 36 35 35 33 33 31 31 29 27
41 46 49 52 53 54 54 57 56 58 55 53 50 44 44 42 40 40 40 40 40 38 37 36 37 38 40 40 40 38 37 36 35 33 32 31 31 31 31 30 31 31 31 32
38 48 47 49 52 53 52 49 49 52 55 53 48 43 40 37 38 38 36 37 36 36 35 34 35 36 38 39 39 37 35 34 33 33 33 32 31 30 31 31 31 31 31 31
47 53 50 50 52 51 50 47 45 45 46 43 43 40 36 34 34 34 34 33 32 31 32 32 31 31 33 35 35 34 32 32 31 31 31 31 32 31 27 27 28 28 28 28
50 49 47 51 50 48 47 44 43 42 40 39 37 36 35 31 31 30 29 30 30 29 29 28 28 27 31 31 31 29 28 28 29 29 29 29 29 28 28 26 24 23 23 24
49 51 51 52 46 44 44 43 39 37 36 34 34 32 31 29 28 27 27 27 27 26 25 26 25 24 27 28 28 27 27 26 26 25 25 25 25 24 24 22 21 20 21 20
48 47 49 46 44 42 41 38 34 31 31 29 28 28 27 28 26 25 26 26 23 21 22 22 22 24 26 26 25 25 24 22 23 23 22 22 22 21 20 19 18 17 16 16
43 44 42 40 37 35 36 35 33 31 29 28 27 26 25 24 22 21 20 21 21 20 21 21 22 25 26 26 25 24 23 21 20 20 19 19 18 17 17 17 16 15 13 11
39 38 40 41 35 32 30 31 31 30 27 26 24 23 21 20 18 18 18 19 19 18 20 22 23 24 23 24 23 21 20 18 17 16 16 15 15 15 14 13 12 12 12 11
35 34 34 34 33 32 30 29 28 26 24 23 21 19 19 19 19 18 19 17 17 16 18 21 21 21 20 19 19 18 16 15 14 13 13 11 11 12 11 10 9 8 9 9
30 31 31 30 30 29 26 26 25 22 22 21 19 18 17 17 18 17 18 16 18 19 20 19 19 17 16 15 15 15 14 13 11 10 9 9 8 7 7 5 6 6 6 6
28 28 27 26 24 24 23 23 21 19 20 19 17 16 15 16 17 17 16 14 16 17 17 16 16 15 14 13 13 11 10 9 7 7 6 6 5 5 4 4 4 3 3 2
24 23 22 22 22 21 22 22 21 19 17 16 15 15 14 13 13 13 14 14 15 14 14 13 12 10 10 10 10 9 8 7 6 6 5 4 4 3 2 2 1 1 1 0
22 22 21 20 19 19 19 19 18 17 16 16 15 15 16 16 17 13 9 13 13 11 11 9 5 4 4 6 6 5 4 3 3 3 2 2 1 1 1 -0 -0 -1 -2 -2
21 21 20 21 20 19 16 17 17 17 15 15 14 14 13 10 10 12 11 8 7 8 7 6 4 2 4 4 3 3 3 3 2 2 1 -4 -0 -1 -1 -3 -3 -3 -4 -4
21 21 20 19 18 17 17 17 16 16 15 15 14 15 15 15 10 10 9 8 8 6 4 1 0 -0 3 4 3 2 2 2 1 1 -0 -1 -2 -3 -3 -4 -6 -4 -5 -5
21 20 20 20 19 18 17 17 14 13 12 10 11 11 10 10 10 9 7 6 5 3 3 2 2 2 3 2 2 1 1 1 0 -0 -2 -3 -4 -3 -5 -6 -6 -6 -6 -6
19 19 18 17 18 18 17 15 13 12 12 10 8 9 8 7 6 5 3 3 1 1 1 1 3 2 2 2 1 -1 -1 -1 -5 -2 -3 -4 -5 -5 -7 -7 -7 -7 -6 -7

GFSNGP_sfc_temp_099.txt.gz
Temp
49 51 52 49 50 52 51 53 47 53 55 63 68 70 72 75 76 77 80 82 82 82 81 82 80 79 78 76 73 73 73 72 72 72 72 72 71 71 71 70 71 72 71 71
44 50 51 48 52 53 54 55 56 57 56 68 71 72 70 72 75 75 79 82 84 84 83 82 81 80 79 78 75 74 73 72 73 72 72 71 71 70 70 70 71 70 70 70
35 48 48 41 49 53 55 58 58 51 60 68 67 69 69 71 73 75 78 80 83 84 84 83 82 81 80 79 78 75 75 75 74 73 72 71 71 70 69 67 66 53 48 45
35 40 29 49 62 60 56 59 61 62 64 67 68 71 74 76 75 76 80 81 82 83 83 84 85 82 80 80 77 75 74 75 75 73 73 72 69 57 49 46 43 41 39 38
31 35 44 49 55 55 54 54 64 62 63 62 67 70 72 79 80 80 79 78 79 80 83 81 81 82 80 78 76 74 73 73 73 73 61 53 47 43 41 39 37 36 37 36
35 30 29 48 56 56 59 43 58 58 55 58 62 55 66 75 79 72 72 73 75 74 74 73 76 77 77 73 63 52 52 50 50 49 46 42 40 37 37 36 35 35 34 35
34 31 40 55 59 59 40 42 54 56 59 56 55 57 63 67 64 67 67 66 66 67 67 62 61 57 50 48 45 46 45 44 43 42 40 39 37 36 35 33 33 31 31 32
35 29 29 57 55 43 47 52 54 58 60 58 55 55 60 57 55 56 55 55 58 56 53 53 52 49 45 42 44 43 42 41 40 40 40 38 36 36 35 33 31 30 30 30
41 42 54 58 53 53 52 48 53 55 59 56 52 54 53 49 48 48 49 48 48 47 45 46 46 45 41 41 42 41 40 39 39 40 39 39 37 36 35 35 33 31 31 31
47 53 55 57 56 54 51 51 55 60 60 56 50 53 50 48 47 45 45 44 44 43 41 40 42 43 43 43 43 42 39 39 39 38 37 37 36 37 37 36 34 33 32 30
48 53 56 57 58 54 53 59 60 60 54 56 53 53 52 47 45 43 42 42 42 40 40 41 43 43 45 44 44 40 39 39 37 36 33 32 33 33 30 30 34 31 30 30
44 54 53 55 60 61 59 59 60 56 56 55 57 51 46 39 39 39 38 39 39 39 41 43 44 44 45 47 45 44 41 39 36 35 33 31 29 28 30 29 29 29 29 28
53 60 59 60 62 63 61 60 56 56 55 49 46 44 38 34 33 33 34 34 34 35 37 39 40 40 43 44 43 40 37 37 36 35 34 31 31 28 23 25 27 27 26 26
61 60 56 60 58 63 63 59 53 52 49 42 38 37 35 31 30 28 27 27 28 29 30 30 30 30 33 34 34 33 33 33 35 35 35 34 33 32 31 28 24 23 24 24
60 62 62 63 62 62 62 57 52 48 41 36 35 31 30 27 26 26 26 26 25 25 25 26 27 28 31 31 31 31 31 32 32 32 32 32 33 32 31 30 27 27 27 26
59 59 60 59 60 59 56 56 51 43 38 34 31 30 28 26 26 25 26 27 24 23 24 25 25 26 28 30 31 32 32 31 31 31 31 30 30 29 27 26 24 22 20 20
51 51 55 56 57 54 53 53 50 43 36 32 29 28 25 23 22 21 22 23 24 24 25 25 26 31 33 33 32 32 31 30 29 30 29 28 27 26 26 25 23 20 16 16
52 52 54 53 53 53 49 47 42 37 32 28 25 24 23 21 19 19 20 21 21 21 22 23 26 29 30 30 31 31 29 27 26 25 25 24 23 24 23 23 22 21 20 17
45 45 48 48 51 51 47 42 36 31 27 25 22 20 20 20 20 20 21 21 19 18 19 24 26 27 27 27 28 27 25 24 23 23 22 22 22 22 21 21 20 19 20 19
37 38 40 41 43 43 37 32 29 27 25 23 21 20 19 20 20 19 19 18 20 22 25 25 25 24 25 26 26 26 24 23 22 21 21 21 19 17 16 16 18 18 18 17
31 32 30 30 29 29 29 28 25 23 23 22 19 18 17 19 19 19 17 17 21 24 25 24 25 25 25 25 25 23 22 21 20 20 19 18 18 18 18 17 17 16 16 15
28 26 26 25 24 24 25 24 23 21 20 19 19 18 17 16 16 17 18 17 20 21 22 21 21 21 22 22 23 21 21 20 19 19 18 18 18 17 16 16 15 14 14 14
26 24 23 21 20 19 21 20 20 19 18 18 18 18 18 18 19 16 13 18 18 17 17 16 16 17 18 20 19 19 18 17 17 17 16 16 16 15 14 12 13 13 12 11
24 23 22 22 21 20 18 18 19 19 18 18 17 18 17 15 15 17 17 15 15 15 15 14 15 16 18 18 18 17 17 16 16 15 14 13 14 13 13 11 11 12 11 10
24 24 23 22 20 20 19 19 18 17 17 16 16 17 18 19 15 15 14 14 13 13 12 13 15 16 17 17 16 16 16 15 15 15 14 13 13 12 12 11 10 9 8 9
25 25 24 23 22 21 21 20 17 17 16 13 14 15 15 16 16 16 14 14 15 15 15 15 15 15 15 15 15 14 14 14 13 11 12 12 11 12 10 9 9 9 9 8
24 23 22 22 22 21 20 19 17 16 16 14 13 15 15 14 13 14 14 14 13 14 14 15 15 15 15 15 14 14 13 11 6 10 11 11 11 11 9 8 8 7 7 6

GFSNGP_sfc_temp_102.txt.gz
Temp
45 48 49 48 47 47 46 50 41 48 51 58 62 61 67 71 72 74 75 77 78 78 78 78 76 74 74 71 71 71 70 68 67 66 67 67 66 66 66 66 66 66 66 66
39 47 48 45 49 49 49 51 52 53 53 64 67 69 68 70 72 71 73 76 78 81 80 79 77 75 74 72 69 70 69 68 69 68 68 66 66 66 65 65 66 65 63 54
33 44 45 38 46 49 51 55 54 48 56 63 63 66 67 68 70 71 73 74 76 79 80 79 78 77 74 74 71 69 69 70 69 69 68 66 67 66 64 59 50 45 42 41
32 37 26 46 58 58 55 57 60 59 61 64 66 69 69 71 72 72 75 75 76 77 77 79 80 78 76 76 72 70 69 71 71 69 68 68 61 47 44 42 39 38 37 37
29 32 41 47 54 52 47 48 52 50 55 60 63 63 65 63 66 68 71 75 72 73 74 76 77 78 77 75 74 71 70 70 70 69 52 47 42 40 39 37 36 35 35 35
33 28 26 45 54 60 57 41 51 53 50 54 59 48 58 60 64 64 65 67 71 72 72 70 64 72 73 70 63 52 51 50 48 46 43 39 38 37 36 35 34 34 33 33
31 28 38 53 57 59 38 38 48 53 54 53 51 56 59 58 59 61 59 59 63 58 57 56 55 52 49 46 44 44 44 43 41 40 38 38 37 35 34 33 32 31 31 31
34 30 27 56 54 42 47 53 53 53 54 53 55 58 56 57 52 51 51 51 53 51 50 52 52 47 42 40 42 42 41 39 39 38 38 37 34 33 33 32 31 30 29 30
40 40 52 56 55 55 54 52 53 53 55 56 54 55 53 51 48 46 46 47 47 44 43 44 45 44 39 40 41 40 39 39 37 37 37 36 34 33 32 32 31 31 30 29
40 47 48 52 58 57 56 54 56 57 57 57 51 51 50 48 46 44 44 43 43 42 40 39 41 41 40 40 40 38 36 35 35 33 33 33 35 35 34 33 31 30 28 26
46 49 52 54 56 56 57 57 56 59 57 52 53 48 47 43 42 41 40 40 41 40 39 39 40 40 40 40 38 35 33 32 31 30 29 28 28 28 28 29 29 27 26 26
39 48 48 49 58 60 58 58 58 55 54 51 49 44 40 36 36 37 37 38 39 40 39 39 40 39 39 40 39 36 33 32 30 29 28 27 26 24 28 28 28 28 27 25
51 56 57 58 60 62 60 56 56 53 49 45 42 39 35 32 31 30 29 31 31 31 33 35 38 38 40 39 38 35 32 31 30 29 27 25 24 22 20 24 27 26 26 26
59 58 54 58 56 62 62 55 51 45 42 39 37 36 32 28 26 26 25 26 27 28 29 29 30 30 32 33 33 33 32 31 31 29 28 26 25 25 24 21 18 19 25 24
58 60 57 59 60 61 62 58 52 42 38 34 33 30 28 26 25 24 26 27 27 26 26 27 26 27 30 30 30 30 30 29 30 30 30 30 29 27 26 24 22 21 23 23
58 58 57 56 54 58 57 56 48 40 35 31 29 27 26 25 25 25 26 26 25 24 25 25 25 26 28 28 28 28 28 29 30 29 28 27 26 24 23 20 17 15 15 16
50 49 51 50 52 53 54 53 49 39 33 30 27 26 26 24 23 22 22 23 23 23 25 25 24 26 27 28 27 27 27 28 27 27 26 25 24 22 22 19 15 13 13 12
49 49 50 49 49 49 50 44 39 35 30 28 24 23 22 21 20 20 20 21 21 21 22 23 24 25 26 27 28 27 25 25 24 22 23 22 22 21 20 19 18 16 15 15
44 43 44 46 45 46 42 37 32 29 25 24 22 20 20 20 20 20 21 19 19 18 20 23 24 25 26 27 26 24 23 22 21 21 21 20 19 19 18 17 16 16 15 14
37 37 36 34 34 33 30 30 27 24 23 22 21 20 19 19 19 18 18 17 19 20 24 25 26 25 25 25 24 24 22 21 20 19 18 16 15 13 14 14 15 14 13 12
30 30 28 28 26 27 27 26 23 21 22 22 19 18 17 18 18 18 16 15 21 24 25 24 24 24 24 24 23 21 20 19 18 17 17 16 15 15 15 14 13 13 12 11
27 25 24 24 23 22 23 23 22 21 20 20 19 18 16 15 16 16 17 16 18 18 19 20 21 21 22 21 21 20 19 18 17 17 16 15 15 13 12 12 11 10 11 9
24 23 22 21 20 20 20 20 19 19 18 18 17 17 17 17 17 14 12 17 18 17 17 17 18 19 19 18 18 17 16 15 15 14 14 13 13 12 9 8 10 9 8 5
23 22 21 21 21 20 18 18 19 19 18 17 16 17 15 12 12 15 16 15 14 15 15 16 17 18 18 17 17 16 15 14 13 12 12 11 11 10 10 6 6 8 5 4
24 23 22 21 19 18 18 18 17 17 16 16 16 17 17 16 13 12 12 13 14 14 14 15 17 17 16 16 14 13 12 11 13 12 11 11 10 9 8 7 5 3 4 4
24 24 23 22 21 21 21 20 17 16 15 13 13 14 14 15 14 14 14 14 15 15 15 15 15 15 15 14 13 13 12 12 10 9 10 9 8 8 6 4 5 4 3 1
23 23 22 21 22 21 20 18 16 14 14 13 12 13 14 13 13 13 13 13 13 14 13 13 13 14 14 14 13 12 9 6 3 9 8 8 7 7 4 4 3 2 2 0

GFSNGP_sfc_temp_105.txt.gz
Temp
39 41 42 41 42 45 42 44 34 40 38 48 56 56 58 59 65 67 69 69 70 64 64 68 67 65 65 65 64 64 62 61 60 60 59 60 59 59 61 61 61 62 60 62
33 40 41 38 42 44 45 47 46 47 46 57 61 63 63 63 66 65 68 70 72 69 65 67 68 66 66 65 65 65 63 62 62 61 62 60 60 59 58 59 61 57 48 48
27 37 37 30 39 43 45 49 48 41 49 57 58 61 56 56 58 59 60 61 68 71 73 63 68 70 67 66 67 65 63 64 63 62 62 61 61 61 60 50 45 42 40 39
26 31 20 38 49 51 48 51 53 48 48 51 52 57 56 58 56 56 57 58 59 63 63 69 72 69 68 67 66 64 63 64 64 63 63 61 54 46 43 41 39 37 36 36
25 26 33 40 48 48 46 43 47 47 48 51 53 56 51 56 58 56 55 56 57 55 54 54 57 67 64 65 65 63 63 63 64 64 48 45 41 39 38 37 35 35 35 34
26 23 19 39 47 52 51 34 45 48 46 48 50 40 47 54 54 54 53 53 54 53 52 51 49 60 62 60 54 47 45 45 46 45 42 39 37 36 35 35 33 34 33 34
25 22 31 45 51 54 32 33 46 47 49 48 43 47 53 54 51 51 50 49 49 47 46 47 47 47 43 43 41 43 43 43 41 40 38 37 36 35 34 32 31 31 30 31
27 20 22 49 49 39 41 46 47 47 48 48 49 51 52 50 47 46 45 45 46 43 42 45 44 44 41 39 41 42 41 40 39 38 38 36 34 34 33 32 30 29 29 29
30 30 43 46 43 47 48 46 46 46 49 49 47 49 50 44 43 43 43 44 44 43 41 42 42 42 40 40 41 41 39 38 37 37 36 35 33 33 32 32 31 29 29 27
36 41 42 46 49 50 49 47 50 52 50 48 47 47 45 42 42 40 40 41 42 40 39 38 39 39 39 39 39 37 35 34 34 34 33 34 34 33 31 30 28 27 26 23
36 41 45 46 48 52 51 52 52 53 48 47 46 42 41 38 38 38 38 40 40 38 37 37 38 38 38 37 36 33 32 31 30 29 28 27 27 27 26 27 27 25 24 24
33 42 41 45 52 52 50 51 52 50 44 43 43 40 37 34 33 33 32 33 36 37 37 37 37 36 36 36 34 32 29 28 27 26 26 25 24 24 27 26 26 26 26 25
45 51 50 52 54 54 51 47 46 43 42 38 37 35 33 29 29 29 28 29 30 30 32 33 34 34 34 33 32 30 28 27 26 25 24 23 22 21 19 23 26 26 26 27
53 52 48 51 48 54 47 44 42 39 38 36 33 32 30 27 26 26 26 27 28 28 29 29 30 31 33 33 31 29 28 27 25 24 22 21 20 20 20 19 18 20 25 25
51 53 50 52 52 52 50 45 39 34 32 30 30 28 27 25 24 25 26 27 27 27 27 27 27 27 30 31 30 29 29 28 28 27 26 25 23 22 21 20 19 19 20 22
50 50 50 49 48 49 49 43 36 32 30 28 26 26 26 25 25 25 25 26 25 23 24 25 24 25 27 27 27 26 26 26 25 25 24 23 22 19 17 16 15 15 14 15
40 40 42 42 43 44 44 44 36 31 28 27 26 26 25 23 22 21 21 22 23 23 24 24 23 25 26 26 25 25 25 25 25 25 23 22 20 17 15 14 14 14 13 15
40 40 40 38 38 39 37 34 31 29 27 25 24 23 22 20 19 19 20 21 21 21 22 23 24 24 24 24 24 24 24 23 22 21 21 20 19 18 16 15 14 13 12 13
35 35 34 34 35 33 31 27 26 25 24 23 22 20 20 19 19 19 20 19 18 18 20 23 24 23 23 24 24 23 21 20 20 19 18 18 16 16 14 13 12 11 11 10
31 31 31 29 30 30 27 27 25 23 22 22 21 20 18 18 18 17 18 16 18 19 22 23 24 23 23 24 23 22 19 18 16 15 14 13 12 11 11 10 10 8 4 3
26 27 26 26 25 24 24 23 22 20 21 21 18 17 16 17 18 17 16 15 18 21 21 22 22 22 22 22 21 19 17 16 15 14 13 13 12 11 9 7 7 5 2 1
22 18 18 21 21 20 22 22 21 20 19 18 18 17 16 15 15 14 16 15 17 18 19 20 20 20 20 20 19 17 17 16 15 14 12 11 9 6 4 5 4 2 -2 -6
14 16 15 15 18 18 19 19 18 18 17 16 16 16 15 15 15 13 10 16 17 17 18 17 18 17 17 16 16 15 14 13 12 11 10 9 6 3 2 0 -1 -3 -7 -7
15 15 18 19 18 18 15 16 16 16 16 15 15 15 14 11 11 14 15 15 15 16 16 17 17 17 16 15 14 13 12 11 10 9 8 4 2 -1 -1 -2 -3 -8 -11 -6
20 19 18 17 16 15 15 16 15 15 14 14 14 15 14 14 11 12 13 14 16 15 14 15 15 13 12 11 9 8 8 10 9 7 6 5 3 -1 -6 -8 -11 -10 -7 -10
21 20 19 19 18 18 17 16 13 13 12 11 11 12 12 13 13 13 13 13 14 14 13 13 13 13 12 11 10 9 8 7 7 6 3 2 -0 -3 -9 -10 -10 -11 -13 -14
19 20 19 18 18 17 16 14 12 11 12 11 10 11 12 13 12 12 12 12 12 11 11 12 13 13 12 10 8 6 4 4 3 4 1 -3 -4 -10 -12 -12 -12 -12 -13 -13

GFSNGP_sfc_temp_108.txt.gz
Temp
36 38 38 36 37 38 37 38 31 36 40 48 51 52 54 54 53 57 59 64 63 62 60 60 59 59 60 60 59 60 60 61 59 58 57 57 56 57 57 58 59 59 58 59
31 36 37 34 37 38 40 41 41 43 43 55 55 58 56 58 58 57 57 58 57 63 61 63 62 60 60 60 60 60 59 59 60 59 59 57 57 56 56 56 57 54 51 47
27 34 34 27 34 37 40 44 43 37 46 49 49 54 52 52 54 53 54 55 55 55 56 54 64 64 61 60 61 60 59 60 59 59 58 57 57 57 54 47 45 42 40 39
24 29 18 35 45 45 42 45 47 46 46 48 49 51 53 54 53 52 52 52 52 52 51 52 51 63 63 61 60 60 60 60 60 59 59 58 53 46 43 41 39 37 36 36
18 22 31 36 43 41 38 39 44 43 45 47 50 50 48 53 54 51 50 51 50 50 49 49 48 54 63 61 60 59 59 60 60 60 50 45 42 39 38 37 36 35 35 34
22 19 20 35 45 51 47 32 44 45 44 45 47 37 42 50 52 50 49 48 47 47 47 45 45 48 57 56 58 50 47 47 50 47 44 40 38 37 36 36 34 34 33 34
25 18 27 42 48 51 29 33 46 46 46 44 42 45 49 50 48 47 45 44 45 43 42 43 44 45 43 43 42 45 44 44 43 42 39 38 36 35 34 33 32 32 31 32
26 18 20 45 43 37 39 43 44 44 45 45 46 47 47 45 43 42 40 41 42 40 40 43 44 44 41 40 42 43 42 40 38 38 38 36 34 33 33 32 30 29 29 29
27 29 41 43 42 44 44 44 44 44 46 46 45 46 44 42 39 40 40 40 40 39 39 40 41 41 39 40 41 40 38 37 36 36 35 34 33 33 31 31 30 29 27 26
34 37 38 43 47 48 49 46 47 49 47 46 43 45 42 39 39 38 39 40 40 39 36 36 37 38 38 38 39 37 35 35 35 34 34 33 33 32 30 29 27 26 25 23
34 36 39 44 45 47 47 48 47 46 44 44 43 40 38 36 36 35 35 38 39 36 35 34 35 34 35 35 35 32 32 31 30 29 28 27 27 27 27 27 27 24 23 24
31 39 40 43 47 48 47 47 47 43 39 38 39 35 34 31 31 32 32 34 34 35 35 34 34 33 33 34 33 30 28 27 26 26 25 25 24 24 28 27 28 28 27 25
43 49 47 49 51 49 44 43 41 39 38 35 34 33 31 28 29 29 29 30 30 31 32 32 31 30 31 31 30 28 26 26 25 25 24 23 23 22 21 25 27 28 28 27
50 48 45 47 44 45 42 39 37 35 35 33 31 31 29 27 25 26 26 27 29 30 30 30 29 28 29 29 27 26 25 24 23 22 21 21 21 20 20 20 19 20 26 26
47 48 48 48 48 45 44 40 34 31 30 29 29 28 27 25 24 24 25 26 26 26 26 27 27 28 30 28 27 25 24 23 23 22 21 21 21 21 21 20 19 18 18 20
44 43 43 42 43 46 43 38 32 29 28 27 26 26 25 24 23 23 24 24 23 22 23 24 24 26 27 27 26 25 25 25 24 23 22 20 20 18 18 17 17 16 14 13
34 33 34 34 36 39 37 37 33 29 28 27 26 26 25 23 22 21 21 22 22 22 23 23 23 25 26 26 26 25 24 23 22 21 20 18 17 16 16 16 15 14 13 13
33 34 33 33 33 34 31 30 29 27 26 26 24 23 21 20 19 19 19 20 21 20 21 22 23 24 24 24 24 23 23 22 21 19 18 16 16 16 15 14 13 12 11 10
32 30 31 31 32 30 30 28 27 26 24 23 21 19 19 19 19 19 20 19 19 18 20 23 24 22 22 23 22 22 21 20 19 18 18 17 15 15 12 11 10 10 9 8
28 28 27 27 28 28 26 26 25 23 22 21 20 19 17 18 18 18 18 16 18 20 22 22 22 21 22 22 21 20 18 17 16 15 15 14 12 10 9 8 8 5 4 3
21 23 23 23 23 23 23 23 22 21 20 20 18 16 16 17 17 18 16 15 18 21 21 21 21 21 21 20 20 18 17 15 15 14 13 11 10 9 7 5 4 2 3 4
14 11 12 15 17 19 20 21 20 19 18 17 17 16 15 13 14 14 16 16 18 19 19 19 19 19 19 19 18 16 16 14 13 12 10 9 8 6 4 3 2 1 0 -3
7 9 10 11 12 16 18 17 17 17 16 16 15 15 14 15 15 13 11 17 18 17 17 17 17 16 16 15 15 14 13 12 11 10 8 7 6 5 3 -2 -2 -3 -6 -7
11 14 12 14 14 14 12 13 14 14 14 14 14 14 13 12 12 15 16 16 16 16 16 16 16 16 15 13 13 12 11 10 9 7 5 4 2 2 2 -1 -3 -10 -8 -6
14 13 12 11 12 12 13 14 14 13 12 11 12 13 13 14 12 14 15 15 16 14 12 12 12 12 11 11 10 11 10 9 8 7 6 4 1 -1 -4 -4 -5 -7 -11 -14
16 16 13 12 15 15 15 14 11 12 11 9 10 11 12 13 13 13 14 13 13 13 12 11 10 10 10 9 9 8 9 8 7 6 4 2 0 -3 -4 -6 -12 -15 -17 -17
17 18 17 15 15 15 14 13 11 10 11 10 9 11 12 12 12 12 12 11 10 11 11 11 11 10 9 8 7 7 6 6 4 3 0 -1 -4 -9 -12 -13 -15 -17 -18 -19

GFSNGP_sfc_temp_111.txt.gz
Temp
33 35 35 34 33 34 33 34 27 33 35 41 47 48 52 54 54 52 52 54 56 55 56 57 57 58 58 58 56 56 56 57 58 58 57 56 56 56 57 56 56 57 57 57
30 34 35 31 34 35 35 36 36 37 36 48 52 53 54 54 54 52 51 53 55 55 55 55 56 58 58 58 57 56 56 57 58 57 55 55 55 55 56 57 55 55 52 50
25 32 31 27 33 34 36 39 37 32 41 46 46 49 52 51 52 51 51 51 52 51 52 52 52 55 59 59 59 57 57 56 58 56 55 54 55 54 54 49 47 43 42 41
23 28 16 33 41 41 38 41 43 43 44 45 46 49 50 52 50 50 50 50 50 49 49 50 50 52 58 61 59 58 57 57 57 56 55 55 53 47 43 42 40 38 37 37
16 21 29 34 39 38 35 35 42 43 43 45 47 48 47 52 51 49 48 48 48 48 48 47 46 48 57 59 59 58 57 57 58 57 51 47 43 40 39 38 36 35 35 34
21 17 13 32 43 47 44 29 41 42 41 43 45 38 42 49 48 47 46 45 45 45 45 45 45 49 50 54 55 54 56 56 54 49 46 41 39 38 37 36 34 34 33 33
23 15 26 39 44 48 26 31 43 44 43 43 41 44 48 47 44 44 43 42 43 42 40 42 44 45 46 45 43 43 44 46 46 45 43 40 37 37 35 34 33 32 32 32
25 17 18 43 42 35 40 44 45 45 45 44 44 48 44 42 40 40 39 40 41 41 39 40 42 42 42 43 43 42 40 39 39 38 38 37 35 34 34 33 31 30 29 29
29 27 39 40 41 45 45 43 44 43 45 46 43 45 43 40 40 39 39 40 41 39 38 38 39 40 37 39 42 39 37 35 34 34 34 35 34 32 31 31 30 29 29 28
32 35 37 41 44 45 47 45 46 45 44 44 42 43 40 39 38 37 37 38 39 37 35 34 35 36 37 37 38 37 35 34 33 32 31 31 31 31 30 28 27 27 26 25
34 35 37 42 44 45 47 46 43 41 40 40 39 37 37 35 34 34 34 36 37 35 33 32 33 33 34 34 34 30 30 29 28 28 27 27 27 27 26 27 27 25 26 26
29 38 36 38 44 46 43 40 42 40 36 35 36 34 33 30 31 31 31 33 34 34 33 32 32 31 32 33 32 29 28 27 26 26 27 26 26 25 29 28 29 29 29 28
41 44 45 46 43 43 39 38 37 35 35 33 33 31 30 28 28 29 29 29 30 30 31 30 30 29 30 30 30 27 25 26 25 25 25 25 25 24 22 26 29 29 29 28
44 45 43 43 40 41 39 36 35 34 33 32 31 30 29 26 20 21 23 26 27 28 28 28 27 26 27 28 27 25 25 25 24 24 23 23 24 23 23 22 21 22 26 26
39 42 41 44 44 43 41 38 33 29 28 28 28 27 27 25 23 23 22 24 24 25 25 25 26 25 26 26 24 23 23 22 22 21 21 21 21 21 21 20 19 19 19 20
36 37 37 36 36 39 40 36 31 28 27 26 25 25 25 24 23 22 22 23 22 21 23 23 24 25 26 26 24 23 22 22 22 21 21 20 20 19 18 17 16 14 13 12
30 30 31 30 31 34 33 31 30 28 28 27 25 26 24 23 21 20 20 21 20 20 22 23 23 25 26 25 24 23 22 21 20 20 19 19 18 17 17 16 14 13 11 12
32 32 31 30 30 30 30 30 30 29 27 25 24 22 21 20 18 19 19 21 21 20 21 22 23 24 24 24 23 23 21 19 19 18 18 17 16 16 15 14 13 11 9 9
29 28 28 28 28 30 29 28 27 26 24 23 21 19 19 19 19 19 19 19 19 18 20 23 24 23 22 23 22 21 20 18 17 17 16 15 14 14 12 11 10 9 8 7
24 25 26 26 25 25 25 25 25 23 22 21 20 18 17 18 18 18 18 16 18 19 21 21 21 20 20 20 21 20 18 17 16 15 14 13 11 10 9 8 7 6 5 3
19 21 20 20 19 19 18 20 20 20 20 20 18 16 16 17 18 18 17 16 18 20 21 20 20 19 20 19 19 17 16 15 14 13 12 10 10 8 7 6 5 4 3 2
13 10 10 12 14 13 17 18 18 17 17 16 16 16 14 14 15 15 16 16 18 18 19 18 19 18 18 18 17 15 14 13 12 10 9 8 7 5 4 4 2 2 0 -4
6 7 9 9 10 11 13 15 15 15 14 14 14 14 14 15 16 14 12 17 17 17 16 16 15 15 15 14 13 12 12 11 10 8 7 7 5 4 3 1 -0 -1 -3 -4
7 9 7 7 10 11 9 10 12 13 12 13 13 14 14 12 13 16 16 16 15 15 14 14 14 14 13 12 11 10 10 8 7 6 5 3 3 2 1 -0 -2 -3 -4 -4
8 9 9 8 9 10 10 12 11 11 11 11 12 13 14 15 13 14 14 14 14 12 11 11 12 11 11 10 9 8 8 7 6 5 4 3 2 1 -1 -1 -3 -5 -8 -12
11 10 8 11 10 13 13 12 10 10 10 9 10 12 13 14 14 14 13 13 12 11 10 10 9 9 8 8 8 7 7 6 5 4 3 2 1 -2 -3 -4 -4 -10 -13 -14
13 13 12 12 14 14 13 11 10 9 10 10 9 11 12 12 12 11 11 11 11 11 10 10 9 8 7 7 7 6 5 4 3 3 1 -2 -4 -5 -4 -6 -9 -12 -13 -17

GFSNGP_sfc_temp_114.txt.gz
Temp
33 35 34 33 32 33 31 32 26 32 31 39 43 46 47 51 50 52 52 52 51 52 52 53 55 57 57 57 57 57 55 57 57 57 57 57 56 56 56 57 57 57 57 57
29 34 33 30 32 32 32 34 32 34 33 44 47 49 48 50 51 51 52 52 52 52 52 51 52 52 57 57 56 56 55 56 58 56 56 56 55 56 56 56 56 56 53 52
24 30 30 25 32 32 33 35 34 29 37 42 43 46 46 47 49 49 50 51 50 50 49 49 49 50 51 57 57 55 56 58 57 56 55 55 55 55 54 50 48 45 44 45
23 27 14 30 38 37 35 37 39 40 42 43 45 45 46 49 48 49 49 48 48 47 47 47 47 48 49 53 57 56 55 57 57 56 55 55 54 47 44 43 41 39 38 38
15 20 27 31 37 36 33 32 40 39 41 43 45 45 43 49 49 46 45 45 45 46 45 45 46 47 48 51 57 57 55 55 55 56 53 49 45 42 40 39 37 35 35 35
22 17 12 30 38 42 39 26 39 37 39 40 42 37 42 46 46 44 44 43 43 44 43 43 43 45 48 54 55 55 55 55 55 52 49 45 41 39 37 36 34 34 33 34
24 20 26 35 41 43 25 28 37 41 41 40 39 40 45 45 43 42 41 40 42 43 41 40 42 43 44 43 42 45 46 47 48 47 44 41 38 37 35 34 33 32 31 32
25 20 16 38 38 30 37 42 42 43 44 43 42 46 43 41 40 39 39 40 41 39 38 38 39 41 40 39 40 41 41 39 38 39 39 38 36 35 34 33 31 30 30 30
28 27 35 37 40 42 44 41 42 43 44 43 42 44 40 39 39 38 38 39 39 37 36 36 36 37 36 37 39 37 36 35 35 35 35 34 33 32 31 31 30 29 29 28
31 35 35 37 41 45 42 40 45 42 43 43 41 41 38 37 35 35 36 36 37 35 33 32 34 34 34 36 37 35 32 31 32 32 31 31 32 31 30 30 29 28 26 25
32 35 37 41 42 41 42 44 38 38 37 38 37 36 35 33 32 33 33 35 35 33 32 31 32 32 33 33 32 30 29 29 29 29 28 27 28 28 28 28 29 27 26 26
29 35 35 37 41 42 38 38 40 37 34 35 36 34 33 30 30 30 30 32 32 32 31 30 31 30 31 32 31 29 28 28 28 27 27 27 27 26 30 30 30 30 30 27
34 40 42 39 41 41 36 35 35 34 35 32 32 31 30 28 27 28 27 27 27 28 28 28 28 28 28 29 29 28 27 27 26 27 26 26 26 26 24 27 30 30 29 29
37 38 37 39 38 41 37 34 34 32 32 31 30 30 28 26 25 24 23 24 24 24 26 26 25 24 25 27 26 25 25 25 25 25 25 25 25 25 25 23 22 23 27 27
34 37 35 37 37 39 41 37 32 29 29 28 29 28 27 24 23 22 22 22 20 21 22 24 24 23 24 24 23 22 22 22 23 23 23 23 23 23 22 21 20 19 20 21
32 34 33 32 32 34 34 32 29 28 28 27 26 25 25 24 22 21 21 21 21 18 20 22 22 23 23 23 22 22 22 22 22 22 21 20 19 18 17 16 16 14 13 13
28 27 28 28 29 31 31 30 30 29 28 27 25 25 24 22 21 20 20 20 19 19 20 22 22 24 24 23 22 21 21 21 20 20 19 19 18 17 16 15 13 12 10 11
29 29 29 28 27 28 30 30 29 28 26 25 23 22 20 20 19 19 19 20 20 20 21 22 23 23 23 23 22 21 20 19 19 18 18 17 17 16 14 13 11 9 8 8
26 24 26 27 26 26 27 27 26 25 23 22 20 19 19 19 19 19 19 18 18 17 19 22 24 22 22 22 21 20 19 17 17 16 16 15 14 13 12 10 9 8 8 6
23 23 23 24 24 22 22 23 23 21 21 20 19 18 17 17 18 18 18 16 17 18 21 21 20 19 20 20 20 19 18 17 16 14 13 12 11 10 9 8 6 5 4 4
17 18 17 17 17 16 15 17 17 16 16 16 16 16 16 17 17 18 15 14 18 20 20 19 19 19 19 18 18 16 15 14 13 12 11 10 9 8 6 6 5 4 2 1
11 8 8 10 11 10 13 14 15 13 14 13 12 13 14 13 14 14 16 15 17 17 18 17 17 17 17 17 15 14 13 12 10 10 8 8 6 4 4 3 2 1 -0 -2
4 5 5 6 6 7 7 9 10 11 12 12 12 12 13 14 15 13 11 16 17 16 15 14 14 14 14 13 12 11 10 9 8 8 7 6 5 4 3 1 -1 -1 -3 -3
4 6 3 4 6 9 6 8 10 11 11 12 12 13 14 12 13 15 15 14 14 13 12 12 13 13 12 11 10 8 7 6 5 5 4 3 2 1 0 -1 -2 -5 -5 -5
7 7 7 5 7 6 6 8 8 10 10 10 12 14 14 15 13 13 13 12 13 10 10 10 10 11 10 8 8 7 6 6 5 4 4 3 2 1 -1 -1 -3 -4 -5 -9
9 8 7 7 6 7 8 9 7 8 8 8 10 12 13 14 13 13 12 12 11 10 9 8 8 8 7 7 7 6 5 5 4 3 2 1 -1 -2 -4 -5 -5 -4 -8 -13
13 12 12 9 10 10 11 10 8 7 9 8 9 11 12 11 11 11 11 11 10 9 8 8 8 8 7 6 5 5 4 3 2 1 -1 -1 -2 -3 -4 -6 -8 -10 -11 -14

GFSNGP_sfc_temp_117.txt.gz
Temp
37 38 38 37 37 38 36 38 32 38 38 44 48 50 51 53 54 55 56 57 57 55 54 53 53 53 52 56 57 58 58 61 62 61 60 59 58 59 58 58 59 58 57 57
31 36 37 33 37 37 37 38 37 38 37 49 51 51 51 52 54 54 55 55 54 54 53 49 50 50 50 51 57 58 58 60 62 59 58 58 57 57 57 57 57 56 55 53
26 34 34 27 35 36 38 41 39 34 42 49 47 49 50 52 54 53 53 52 51 50 49 48 47 48 48 49 52 57 57 60 60 58 57 57 57 57 56 52 50 47 46 45
26 29 17 35 43 42 38 41 43 42 45 47 48 51 53 54 51 50 49 48 48 47 47 48 47 46 46 49 52 56 57 59 59 58 57 57 56 50 47 46 44 42 40 39
23 24 31 35 40 39 37 38 45 42 43 43 47 50 50 51 50 47 46 46 45 46 46 46 46 44 45 48 52 55 56 57 58 59 56 53 48 44 42 40 38 37 37 36
25 19 17 34 42 47 44 31 40 38 37 41 46 40 47 47 45 45 45 44 44 45 45 43 42 43 44 44 47 54 55 57 58 58 52 48 43 41 39 37 35 34 34 34
25 22 28 40 42 46 29 31 41 38 37 43 40 44 45 44 43 44 43 42 43 43 40 39 40 41 40 40 38 40 47 53 52 52 47 44 40 38 36 34 34 33 32 32
26 23 21 40 42 34 39 41 39 41 42 42 45 44 42 43 41 40 39 40 41 39 37 37 38 38 37 36 38 38 39 42 41 41 40 39 37 36 35 34 32 31 30 30
29 31 38 41 40 44 44 41 41 43 44 44 43 42 40 39 38 37 37 38 39 37 35 35 35 35 33 34 36 35 35 35 36 36 36 36 34 33 33 33 32 30 29 28
31 36 37 39 43 45 45 42 44 41 41 42 39 39 38 38 36 35 35 35 36 35 33 32 33 33 32 33 33 33 31 31 32 33 33 33 33 33 32 31 30 29 27 26
32 34 35 38 37 40 40 41 39 38 38 37 38 35 35 33 33 33 33 34 35 33 31 30 31 31 32 32 32 31 30 30 30 30 29 29 29 29 29 30 30 27 27 27
28 32 33 33 33 36 36 36 37 37 36 35 35 33 33 30 31 30 30 31 31 32 30 29 29 29 30 31 31 30 29 28 28 28 29 29 28 28 31 30 30 30 29 27
31 34 35 36 38 37 35 33 33 35 34 34 33 33 31 28 28 28 27 27 27 27 28 28 27 27 28 29 30 29 28 28 28 28 28 27 27 27 25 28 30 30 29 29
35 37 35 35 33 37 37 36 35 34 33 33 32 32 31 28 26 25 23 23 24 25 26 25 25 24 25 26 27 27 26 27 27 27 27 27 26 26 25 24 24 24 28 28
33 36 33 34 35 35 37 36 33 32 31 30 30 28 27 25 23 22 23 24 23 23 22 23 22 23 25 25 24 23 24 24 25 25 24 24 24 24 23 23 23 22 23 25
32 33 33 31 31 33 34 33 32 30 30 29 28 26 25 25 24 23 22 22 22 21 22 22 23 24 25 25 24 23 23 23 22 22 21 21 20 20 19 19 18 18 18 17
27 26 27 27 27 29 30 31 31 30 29 27 26 26 25 24 23 21 21 22 22 22 23 23 23 24 24 24 24 23 23 22 22 23 21 21 21 19 18 17 16 15 15 16
27 27 28 28 26 26 28 29 29 28 26 25 24 23 22 21 20 20 21 22 22 21 23 24 24 24 24 24 23 23 23 22 22 21 20 19 18 17 16 16 15 13 12 12
26 25 25 27 25 25 26 26 26 25 23 22 21 19 20 20 20 20 21 20 20 20 20 23 24 24 23 23 23 23 21 20 19 19 18 17 16 16 15 14 13 13 13 12
23 24 23 23 23 21 21 22 23 22 22 21 19 19 19 19 19 19 20 18 20 21 22 22 22 21 22 22 22 22 20 19 18 17 17 16 14 13 13 12 12 11 11 10
18 19 18 17 17 16 15 17 18 18 18 19 19 17 16 18 18 18 19 19 19 21 21 21 22 21 21 21 22 20 19 18 17 16 14 13 13 12 12 11 11 10 9 9
15 12 11 11 12 12 12 14 16 16 16 15 15 16 15 16 16 16 17 18 20 18 20 20 20 18 19 19 20 18 18 17 16 15 14 13 12 11 10 10 9 9 9 8
13 12 12 10 10 11 11 11 12 14 14 14 15 16 17 18 19 18 16 18 19 17 18 18 16 15 15 17 16 16 15 15 14 14 13 13 12 12 11 10 9 9 8 8
13 13 12 11 11 13 11 12 13 14 13 15 15 16 17 16 16 18 18 15 14 16 16 16 15 14 15 15 15 14 14 13 13 12 11 11 11 10 10 9 8 8 7 7
13 13 13 12 13 13 12 13 13 13 13 14 15 16 17 18 16 16 16 15 14 14 14 12 12 13 14 14 13 13 13 13 12 12 11 11 10 9 9 8 7 7 7 7
16 16 15 13 14 15 15 15 13 14 14 13 14 15 15 16 15 15 14 13 14 13 13 13 13 13 13 12 12 11 12 11 11 10 10 9 9 9 8 7 7 7 6 6
16 15 16 15 15 15 15 14 13 12 13 13 12 14 14 15 14 14 13 13 13 12 12 12 12 12 12 12 11 11 11 10 9 9 9 9 8 8 7 7 7 6 4 3

GFSNGP_sfc_temp_123.txt.gz
Temp
42 46 46 45 43 42 38 39 35 44 44 45 56 60 63 64 64 65 66 67 69 70 70 68 67 65 64 60 61 59 54 54 60 61 62 64 65 64 65 66 67 65 63 62
36 43 45 42 45 45 45 43 44 46 47 60 63 64 62 63 63 63 64 66 68 67 65 63 63 62 62 58 54 56 52 52 58 60 61 63 63 63 63 64 64 62 61 57
30 41 40 34 43 46 47 49 46 40 50 59 58 59 60 61 62 62 64 63 63 61 61 61 60 60 57 56 55 51 51 53 54 60 61 65 63 63 62 61 58 52 49 48
30 35 22 42 52 51 47 49 52 53 55 58 59 59 60 62 61 63 61 60 60 60 60 60 59 55 51 53 53 50 49 50 53 59 62 66 62 60 56 54 48 44 42 42
26 27 35 41 44 46 44 44 54 53 55 56 54 52 55 58 59 56 54 56 56 58 57 56 52 49 49 48 49 48 45 46 47 57 64 65 58 52 48 45 43 40 40 38
32 23 22 35 47 53 52 37 50 49 47 47 45 35 42 45 48 48 50 51 51 53 52 49 46 45 46 44 43 42 40 41 43 45 62 58 49 46 44 41 39 38 36 37
31 27 35 41 49 52 32 33 46 44 39 36 34 38 41 42 43 44 48 47 49 49 46 43 43 41 41 41 38 38 39 40 42 44 54 51 45 42 39 37 36 35 34 35
30 27 24 39 46 33 38 47 42 41 37 34 39 40 43 44 42 44 44 46 49 48 46 44 40 37 37 37 37 37 38 38 37 44 47 45 42 38 37 35 34 33 32 31
30 30 36 37 35 37 38 40 38 37 37 44 42 42 42 40 40 41 44 46 48 47 46 45 41 35 33 34 35 35 35 35 35 36 40 41 38 36 35 35 33 31 30 29
31 34 33 35 36 36 35 35 37 39 44 45 41 42 41 41 42 43 44 43 45 44 43 41 40 36 32 34 35 33 32 33 33 33 32 35 36 35 34 33 32 30 28 27
33 35 38 39 36 35 36 37 38 40 44 43 42 40 40 39 39 40 39 40 40 38 37 38 38 35 31 32 33 32 31 32 32 32 31 30 30 31 31 32 33 30 28 28
30 34 32 34 35 40 37 38 40 40 41 43 41 39 39 36 36 35 34 35 33 33 33 33 35 33 29 31 32 31 30 30 30 31 30 29 28 28 31 30 30 30 30 28
34 40 40 39 41 41 40 40 41 41 40 38 39 38 36 32 32 31 31 30 29 28 29 30 31 30 29 29 30 29 29 29 29 29 28 27 26 26 24 27 30 29 29 29
42 41 38 40 36 41 41 43 44 43 41 39 37 37 36 32 30 28 27 28 29 28 27 27 28 27 28 27 27 27 27 27 28 28 27 27 26 26 25 24 23 24 27 27
42 42 41 43 44 43 43 42 41 38 38 37 37 35 32 29 28 27 27 28 30 28 27 26 26 27 29 27 25 24 25 25 26 26 27 26 26 25 24 24 23 22 23 25
43 44 43 41 40 40 41 39 35 35 35 35 33 32 33 31 29 28 27 28 27 26 26 26 26 28 29 29 27 26 25 25 24 24 25 25 25 23 22 22 21 20 20 21
37 35 36 36 36 37 37 38 35 33 32 31 30 30 31 30 28 27 27 27 27 27 27 27 26 28 29 29 29 29 27 25 24 24 23 23 23 23 23 22 22 23 24 25
38 38 38 35 34 34 34 34 32 30 28 28 27 27 27 26 26 26 27 28 28 26 27 27 28 29 29 29 29 29 29 27 26 24 24 23 22 22 21 20 21 21 22 24
36 35 35 34 33 31 31 30 28 28 26 26 26 25 25 26 26 27 28 27 27 25 25 28 27 28 28 29 30 30 28 26 25 25 24 23 22 21 20 20 21 21 22 22
33 33 31 30 30 27 25 25 25 25 25 25 25 25 25 24 25 26 27 24 25 26 27 28 28 27 28 29 29 29 27 26 25 25 24 23 21 20 21 22 22 22 21 21
27 29 26 23 23 23 21 22 22 22 23 23 23 23 23 24 24 24 27 26 25 28 28 27 28 29 29 30 30 28 27 26 25 24 22 21 22 22 21 21 21 20 20 20
26 23 22 20 20 21 22 22 22 21 22 22 22 23 24 25 25 24 23 24 26 26 28 27 27 27 29 29 29 27 27 26 25 25 24 24 23 22 21 20 19 19 19 19
26 24 24 21 20 22 24 22 21 21 20 21 21 22 24 25 25 24 23 25 26 25 25 24 24 26 28 29 29 28 27 26 25 25 24 23 23 22 21 20 20 19 19 18
26 25 24 24 23 24 22 23 23 23 22 23 22 22 24 26 25 26 24 22 21 21 21 22 24 26 27 27 27 26 26 26 25 25 24 23 22 21 21 20 20 19 18 18
24 24 25 24 24 24 24 24 24 24 24 24 24 25 24 25 24 24 24 23 23 23 22 22 24 25 26 26 26 25 25 24 24 24 23 22 21 21 20 20 19 18 17 17
25 26 26 24 24 24 24 24 22 24 24 23 24 24 24 24 24 24 23 22 23 23 22 23 24 24 24 23 23 22 23 23 23 23 22 21 21 20 19 18 18 18 18 17
27 22 26 26 26 25 23 22 22 22 22 22 21 23 23 23 22 22 22 23 22 22 21 22 22 22 23 23 22 22 22 22 21 21 21 20 20 19 18 18 17 17 15 13

GFSNGP_sfc_temp_126.txt.gz
Temp
40 42 44 43 42 43 40 38 32 37 37 38 37 42 49 54 63 64 64 65 66 67 64 63 62 61 61 60 59 57 54 55 55 56 61 61 61 62 62 62 63 64 63 63
30 41 43 39 43 45 45 45 43 42 40 52 54 54 56 61 62 61 62 64 66 64 62 61 60 59 59 56 54 55 54 53 55 54 58 60 60 60 61 61 61 61 60 57
28 39 38 32 41 44 46 48 46 38 45 53 53 54 53 55 57 58 61 62 60 58 58 57 57 56 52 51 53 52 52 52 52 51 54 59 60 60 59 59 56 51 49 48
29 33 21 39 46 48 47 48 50 50 52 52 48 51 54 52 52 52 54 55 55 55 56 56 55 51 49 50 50 49 49 50 49 47 50 57 59 59 56 52 48 45 43 42
26 28 35 40 40 43 42 43 47 45 44 44 47 49 47 47 48 48 50 50 51 53 53 52 49 46 45 46 47 46 45 44 45 44 44 48 54 54 49 45 42 40 39 38
31 23 22 29 36 46 50 34 40 43 38 36 38 34 39 42 43 44 47 49 49 50 50 47 45 43 41 42 42 41 39 40 42 43 43 45 50 49 45 42 39 38 36 37
28 26 30 32 40 46 30 27 39 41 38 35 33 36 39 43 43 44 44 47 50 50 48 47 45 41 37 37 37 37 39 39 40 42 41 43 47 44 40 37 36 34 34 34
29 24 20 34 39 28 31 36 36 36 37 37 39 41 41 42 41 43 44 46 48 47 46 47 44 40 35 34 36 36 37 37 38 39 40 46 43 41 38 36 34 32 32 31
29 28 34 35 33 35 35 34 35 36 38 42 40 40 41 41 43 43 43 43 44 43 43 43 42 39 33 32 34 34 34 34 35 37 36 37 39 37 36 35 33 32 30 29
30 35 35 34 36 36 36 35 37 39 39 40 39 40 40 40 39 39 40 38 39 38 37 36 37 37 34 32 32 32 32 32 33 33 32 33 33 35 35 34 33 31 29 27
32 35 37 39 36 35 37 38 39 42 41 40 39 38 38 36 35 35 35 35 35 33 32 32 34 33 33 31 30 30 31 31 31 31 31 30 29 29 32 32 33 31 29 28
29 33 32 34 36 40 38 39 40 40 39 40 39 37 37 34 33 32 31 32 31 30 29 29 30 31 31 30 29 29 29 30 29 29 28 28 28 27 30 31 31 31 31 29
33 40 37 40 42 43 40 40 41 41 40 37 37 36 35 32 30 29 29 29 28 27 27 27 29 29 29 28 28 27 27 29 28 28 27 26 26 26 24 28 30 29 29 29
44 43 38 42 39 43 43 42 43 41 40 38 36 36 33 31 29 27 26 26 28 27 27 26 26 26 27 27 26 25 26 27 27 27 26 26 25 25 24 23 23 24 28 28
43 45 43 44 44 43 44 41 38 36 35 35 35 32 32 29 27 26 27 27 28 27 26 25 25 26 28 27 25 24 24 25 26 26 25 24 24 24 23 23 23 23 24 26
43 44 42 40 39 39 40 38 34 32 32 31 30 29 30 30 29 28 27 27 25 24 25 25 25 26 28 29 26 25 24 24 24 25 23 22 22 21 20 20 21 21 22 22
36 34 36 34 34 35 35 35 32 30 29 28 28 28 29 29 29 27 27 28 25 25 26 25 26 27 28 28 28 26 25 24 23 22 22 22 22 22 22 22 22 22 22 23
39 37 37 35 32 31 31 31 29 27 26 27 26 26 25 25 24 25 26 28 28 25 26 26 27 28 28 28 28 27 25 24 23 22 22 21 20 21 20 20 20 20 21 22
37 34 33 32 30 28 28 26 25 26 25 24 23 25 24 25 25 25 25 23 23 23 25 28 28 28 28 28 29 27 25 24 23 22 21 20 20 20 19 19 19 19 19 19
33 32 30 28 28 25 23 23 23 23 23 23 22 23 23 22 23 23 26 22 24 25 27 27 28 28 28 28 29 27 26 24 23 21 21 20 20 19 19 19 19 19 19 19
27 27 25 23 22 23 20 21 21 20 21 22 21 20 21 24 22 22 25 23 24 26 27 26 27 28 29 28 28 27 26 24 22 21 21 20 20 19 19 18 18 18 17 17
27 23 22 19 20 20 22 22 21 21 19 21 20 21 23 25 24 22 21 23 25 25 25 25 26 27 28 28 28 26 25 24 23 22 21 20 19 19 18 18 18 18 17 16
26 25 24 21 20 21 23 22 19 22 18 20 18 20 21 24 24 22 20 23 23 23 23 23 25 26 27 27 26 25 24 23 22 22 21 21 20 19 19 18 18 18 17 16
25 25 24 25 24 24 22 24 23 24 20 23 21 19 23 22 23 25 24 21 19 20 21 22 24 25 26 26 25 25 24 23 22 22 21 20 19 19 18 18 17 17 16 16
25 25 26 24 23 23 23 24 24 24 23 24 24 24 24 24 21 22 23 23 23 22 22 22 23 24 24 24 24 23 23 22 22 21 20 19 19 18 18 17 16 15 14 15
26 26 26 25 24 24 23 23 21 22 23 22 22 23 24 24 23 23 22 21 21 21 21 22 23 23 22 22 21 21 21 21 21 20 19 19 18 17 16 15 15 15 14 12
27 25 26 25 25 24 23 22 21 20 21 19 21 23 23 23 22 22 22 22 21 20 20 20 21 21 21 21 20 20 19 19 20 19 18 17 17 16 16 16 14 12 10 9

GFSNGP_sfc_temp_129.txt.gz
Temp
33 35 37 36 37 40 37 36 28 35 36 41 43 40 41 46 50 55 59 59 59 56 54 55 54 54 53 51 51 51 51 51 51 52 53 54 56 60 62 62 62 62 61 60
28 35 36 35 37 39 39 40 39 40 40 49 48 46 44 47 51 50 51 53 54 54 54 53 51 49 48 47 47 49 49 49 51 51 50 50 53 57 60 61 60 59 60 60
24 34 33 27 33 37 39 42 40 33 36 44 43 46 43 44 46 46 48 48 48 48 49 48 46 46 43 44 46 47 47 47 48 48 46 46 49 50 59 59 58 54 53 51
24 28 18 34 38 37 35 34 36 38 38 40 41 44 43 44 42 43 46 46 46 46 46 45 44 42 42 43 44 44 45 43 42 42 43 44 46 48 55 55 53 49 45 43
18 22 30 29 33 31 31 31 35 37 38 39 40 43 39 43 43 43 43 45 46 47 45 42 41 40 39 40 41 42 40 38 40 40 40 42 42 44 48 48 47 42 40 39
26 21 18 26 34 42 36 26 33 36 36 35 37 31 34 40 42 42 44 45 46 48 46 41 38 38 37 35 37 36 36 36 38 39 40 40 40 42 47 46 41 39 36 36
25 22 25 31 37 41 25 22 34 35 35 34 33 35 37 41 41 44 44 43 44 44 41 39 38 36 33 33 31 33 34 35 37 38 39 40 40 41 41 39 38 35 34 34
21 12 13 34 35 25 30 34 35 35 34 34 35 39 40 41 40 41 37 38 38 37 36 37 36 34 31 29 31 32 32 34 35 36 37 39 39 41 39 37 35 33 32 32
27 26 33 35 33 35 35 33 34 35 35 35 36 37 39 37 37 37 35 34 35 33 33 34 33 32 29 29 30 30 31 33 33 35 35 35 36 36 35 36 34 32 31 30
29 31 33 33 35 35 36 35 36 39 39 38 36 36 35 34 33 33 32 32 33 31 30 29 30 30 29 29 29 29 29 31 31 31 31 30 32 33 33 33 32 32 30 29
29 32 35 34 35 35 36 40 39 40 39 36 35 34 34 32 30 30 30 31 31 29 28 28 28 28 28 28 28 27 28 30 29 29 29 28 29 30 32 32 32 32 32 29
26 32 32 33 35 39 38 37 38 38 36 37 34 33 32 30 30 28 27 28 28 27 26 26 27 28 28 28 27 26 27 28 27 27 27 27 27 27 31 31 31 31 31 30
32 39 35 37 41 42 39 38 38 36 36 33 34 33 32 29 28 28 26 24 26 24 25 25 26 27 27 26 27 26 25 27 27 26 25 24 24 25 24 28 30 30 30 30
41 41 37 40 36 40 40 38 38 36 36 34 32 32 31 29 27 24 24 22 24 22 23 24 24 24 27 26 25 24 25 26 25 24 24 24 24 24 24 24 23 25 28 29
39 41 38 39 39 37 38 35 32 31 31 30 30 28 28 27 21 24 18 21 21 20 21 24 24 24 27 26 24 23 24 24 23 23 22 22 23 23 24 24 24 24 26 27
39 38 36 34 33 34 33 31 27 26 28 27 27 26 27 27 26 24 22 22 19 21 21 22 24 25 27 26 24 24 23 23 23 22 22 21 22 21 21 21 21 21 22 22
31 29 30 28 28 29 29 27 26 25 26 25 25 26 26 25 24 21 20 25 18 21 22 22 24 26 26 27 25 24 23 22 22 22 21 21 21 21 21 21 20 20 20 22
33 31 30 28 26 25 25 25 24 24 23 23 21 19 19 14 18 20 18 20 20 20 23 23 25 25 25 26 26 24 23 22 21 20 20 20 20 21 20 20 20 19 19 20
31 28 27 27 25 24 23 22 22 23 19 19 15 18 19 12 15 17 19 15 19 19 21 24 27 26 26 26 26 25 23 21 21 20 20 20 19 19 19 19 18 18 18 18
27 27 25 24 24 23 21 21 19 19 17 19 13 13 14 17 17 18 19 14 18 23 24 24 25 25 25 25 25 24 22 21 20 20 19 19 18 18 18 18 18 17 17 17
24 25 22 21 20 17 12 12 10 13 12 13 10 13 17 20 16 15 18 18 21 23 23 23 24 26 26 25 24 22 21 20 20 19 19 18 17 17 17 16 16 16 16 15
22 15 15 12 12 12 12 14 13 9 7 8 8 10 15 18 17 15 17 18 21 20 21 22 23 25 25 24 23 22 21 21 20 19 18 18 17 17 16 16 15 15 15 15
15 14 13 11 10 16 16 17 10 10 6 8 7 9 16 20 14 15 14 18 20 20 21 21 22 23 23 23 22 21 19 19 19 18 18 17 17 16 16 15 15 15 14 14
14 13 15 18 12 13 12 12 13 17 9 18 9 8 15 17 16 17 19 18 17 19 20 22 22 22 19 21 21 20 19 19 18 17 16 16 15 15 15 14 14 14 13 12
15 16 15 13 15 12 12 12 16 15 14 20 12 17 17 17 13 14 18 19 21 20 20 20 19 19 19 18 18 18 18 17 15 14 14 15 13 12 13 12 11 11 11 10
16 16 15 20 16 12 12 12 11 10 11 13 13 9 9 13 17 17 14 16 17 18 19 19 18 18 18 17 17 17 16 16 16 15 14 13 12 11 11 10 10 10 8 6
21 18 17 16 14 14 13 10 11 10 8 4 15 9 15 16 14 16 16 14 13 15 16 17 17 17 16 15 14 14 15 16 14 14 12 11 11 12 11 8 6 5 4 2